GFSMA_500_temp_012.txt.gz
Temp
-15 -15 -15 -15 -15 -14 -14 -14 -14 -14 -14 -14 -14 -14 -14 -14 -14 -14 -13 -14 -14 -14 -14 -14 -14 -14 -14 -14 -14 -14 -14 -14 -14 -14 -14 -13 -14 -14 -14 -14 -13 -14 -15
-15 -15 -15 -15 -15 -15 -15 -14 -14 -15 -15 -14 -14 -14 -14 -14 -14 -14 -14 -13 -13 -14 -14 -14 -14 -14 -14 -14 -14 -14 -14 -14 -14 -14 -14 -14 -14 -14 -14 -14 -14 -14 -14
-15 -15 -15 -15 -15 -15 -14 -14 -15 -15 -15 -15 -15 -14 -14 -14 -14 -14 -14 -13 -13 -13 -13 -13 -14 -14 -14 -14 -14 -14 -14 -15 -15 -14 -14 -14 -14 -14 -14 -14 -14 -14 -14
-15 -15 -15 -15 -15 -15 -15 -15 -15 -14 -14 -15 -15 -15 -14 -15 -15 -15 -15 -15 -15 -14 -14 -14 -14 -14 -15 -14 -14 -14 -14 -15 -15 -15 -14 -14 -14 -14 -15 -14 -14 -14 -14
-16 -15 -15 -15 -15 -15 -15 -15 -15 -15 -15 -15 -15 -14 -14 -14 -15 -15 -15 -15 -16 -16 -14 -15 -15 -14 -14 -14 -15 -14 -14 -14 -15 -15 -15 -15 -14 -14 -14 -15 -14 -14 -14
-16 -15 -15 -15 -15 -15 -15 -16 -15 -15 -15 -15 -15 -15 -15 -15 -15 -15 -15 -15 -14 -14 -15 -14 -14 -15 -15 -14 -15 -15 -15 -15 -15 -15 -15 -16 -15 -14 -14 -14 -14 -15 -14
-16 -15 -15 -15 -16 -16 -16 -16 -15 -15 -16 -16 -16 -16 -16 -16 -16 -16 -16 -15 -15 -15 -14 -15 -15 -14 -15 -16 -15 -15 -16 -16 -15 -15 -15 -15 -16 -15 -14 -15 -15 -15 -15
-17 -17 -17 -16 -17 -17 -17 -17 -17 -17 -17 -18 -18 -18 -17 -17 -17 -17 -17 -17 -17 -17 -17 -16 -15 -15 -15 -16 -17 -17 -16 -16 -16 -16 -15 -16 -16 -16 -15 -15 -16 -15 -14
-17 -18 -18 -18 -18 -18 -18 -18 -18 -18 -18 -19 -19 -19 -19 -18 -18 -18 -19 -19 -19 -19 -19 -19 -18 -16 -17 -16 -15 -18 -18 -17 -17 -17 -16 -16 -16 -16 -16 -16 -16 -15 -15
-18 -18 -18 -18 -18 -19 -19 -19 -19 -20 -19 -19 -20 -20 -21 -21 -20 -19 -20 -20 -21 -21 -21 -21 -21 -21 -18 -17 -18 -17 -19 -19 -18 -17 -18 -17 -16 -17 -17 -16 -16 -16 -16
-18 -18 -19 -19 -20 -20 -20 -20 -20 -21 -21 -21 -21 -21 -21 -22 -22 -22 -21 -21 -21 -22 -23 -22 -22 -23 -22 -21 -18 -18 -19 -20 -19 -18 -18 -18 -18 -17 -17 -17 -16 -16 -16
-19 -20 -20 -20 -21 -21 -21 -21 -22 -22 -22 -22 -22 -22 -23 -23 -22 -24 -24 -22 -21 -21 -22 -23 -23 -23 -24 -23 -23 -21 -20 -20 -21 -20 -19 -18 -18 -18 -18 -18 -17 -17 -16
-20 -21 -21 -21 -22 -22 -22 -23 -23 -23 -23 -23 -23 -24 -24 -24 -24 -25 -25 -25 -24 -23 -23 -23 -24 -24 -23 -22 -23 -23 -21 -21 -21 -21 -21 -20 -19 -19 -18 -18 -18 -18 -17
-21 -21 -22 -22 -22 -23 -23 -23 -23 -24 -25 -25 -26 -27 -27 -27 -27 -27 -27 -28 -27 -26 -26 -26 -26 -25 -25 -24 -23 -24 -24 -23 -24 -22 -21 -22 -21 -20 -19 -19 -19 -18 -18
-22 -23 -23 -23 -24 -24 -25 -25 -25 -26 -27 -28 -28 -29 -29 -29 -29 -30 -30 -30 -31 -31 -30 -29 -29 -28 -27 -27 -27 -26 -25 -24 -24 -23 -22 -22 -23 -22 -21 -20 -19 -19 -19
-23 -24 -24 -24 -25 -25 -26 -27 -28 -29 -29 -30 -30 -31 -31 -31 -31 -31 -31 -31 -31 -31 -31 -30 -30 -29 -29 -27 -27 -27 -26 -26 -24 -24 -25 -24 -23 -23 -22 -21 -20 -19 -19
-24 -25 -25 -27 -27 -28 -29 -29 -30 -30 -31 -31 -31 -31 -31 -31 -31 -31 -31 -31 -31 -31 -31 -30 -30 -30 -30 -28 -27 -28 -28 -27 -27 -26 -25 -25 -25 -24 -24 -23 -22 -21 -20
-26 -27 -28 -28 -29 -30 -30 -31 -31 -31 -31 -31 -31 -31 -31 -31 -31 -31 -31 -31 -31 -31 -31 -31 -30 -30 -30 -30 -29 -29 -28 -29 -28 -27 -27 -27 -26 -26 -25 -24 -23 -22 -21
-28 -29 -29 -30 -30 -30 -31 -31 -31 -31 -31 -31 -31 -31 -31 -31 -31 -31 -31 -31 -31 -31 -31 -30 -30 -30 -30 -30 -30 -29 -29 -29 -29 -28 -28 -28 -27 -27 -26 -26 -25 -24 -23
-29 -30 -30 -30 -31 -31 -31 -31 -31 -31 -31 -31 -32 -32 -32 -31 -31 -31 -31 -31 -31 -31 -31 -30 -30 -30 -30 -30 -30 -30 -30 -30 -29 -29 -28 -28 -28 -27 -27 -26 -26 -25 -24
-30 -30 -31 -31 -31 -31 -31 -31 -32 -32 -32 -32 -33 -33 -33 -33 -33 -32 -32 -31 -31 -31 -31 -31 -30 -30 -30 -30 -30 -30 -29 -29 -29 -29 -28 -28 -28 -27 -27 -27 -27 -26 -26
-31 -31 -32 -32 -32 -32 -32 -32 -32 -33 -33 -34 -34 -34 -34 -34 -34 -34 -33 -32 -31 -31 -31 -30 -30 -30 -30 -30 -30 -30 -29 -29 -29 -29 -29 -29 -28 -28 -28 -27 -27 -26 -26
-32 -32 -32 -32 -32 -32 -32 -32 -33 -33 -34 -34 -34 -34 -34 -34 -34 -34 -34 -33 -32 -31 -30 -30 -30 -30 -30 -30 -30 -29 -29 -29 -29 -29 -29 -28 -28 -28 -28 -28 -28 -27 -27
-33 -32 -33 -32 -32 -32 -33 -33 -34 -34 -34 -34 -34 -34 -34 -34 -34 -35 -34 -34 -33 -32 -31 -30 -30 -30 -29 -30 -29 -29 -29 -29 -29 -29 -29 -28 -29 -28 -28 -28 -28 -27 -27
-33 -33 -33 -33 -33 -33 -33 -34 -34 -34 -34 -34 -35 -35 -35 -35 -35 -35 -35 -34 -34 -32 -30 -30 -29 -30 -29 -29 -29 -29 -29 -29 -29 -29 -29 -29 -29 -29 -28 -28 -28 -27 -27
-33 -33 -33 -33 -33 -34 -34 -34 -34 -34 -35 -35 -36 -36 -36 -36 -36 -36 -35 -34 -34 -32 -30 -30 -29 -29 -29 -30 -30 -30 -30 -30 -30 -30 -30 -29 -29 -29 -29 -29 -29 -28 -28

GFSMA_500_temp_015.txt.gz
Temp
-15 -15 -15 -15 -15 -15 -15 -14 -14 -14 -14 -14 -14 -14 -14 -14 -14 -14 -13 -13 -13 -14 -14 -14 -14 -14 -14 -14 -14 -14 -15 -15 -14 -14 -14 -14 -14 -14 -14 -14 -14 -13 -13
-15 -15 -15 -15 -15 -15 -15 -14 -14 -14 -14 -14 -14 -14 -14 -14 -14 -14 -13 -13 -13 -13 -13 -14 -14 -14 -14 -14 -14 -14 -14 -15 -15 -15 -15 -14 -14 -14 -15 -14 -14 -14 -14
-15 -15 -15 -15 -15 -15 -15 -14 -14 -14 -14 -14 -14 -13 -13 -13 -14 -14 -14 -14 -14 -14 -14 -14 -14 -14 -14 -14 -14 -14 -14 -14 -14 -15 -15 -15 -15 -15 -14 -14 -14 -14 -14
-16 -16 -15 -15 -15 -15 -14 -14 -14 -14 -14 -14 -14 -14 -14 -14 -14 -14 -14 -15 -14 -15 -15 -15 -14 -14 -14 -15 -14 -14 -14 -14 -14 -15 -15 -15 -15 -15 -15 -15 -14 -14 -14
-16 -16 -15 -15 -15 -15 -15 -15 -15 -15 -14 -15 -15 -15 -15 -15 -14 -14 -14 -14 -14 -14 -14 -15 -15 -15 -15 -15 -15 -15 -14 -14 -14 -14 -15 -15 -15 -15 -15 -15 -15 -15 -14
-16 -16 -15 -16 -16 -16 -16 -15 -15 -15 -15 -15 -15 -15 -15 -15 -15 -15 -15 -15 -14 -14 -14 -14 -14 -15 -15 -15 -16 -15 -15 -15 -14 -14 -15 -15 -15 -15 -15 -15 -15 -15 -15
-16 -17 -16 -16 -16 -16 -17 -16 -16 -16 -16 -16 -16 -16 -15 -16 -16 -16 -16 -16 -16 -15 -15 -14 -14 -13 -14 -15 -15 -16 -17 -16 -16 -15 -15 -15 -16 -15 -15 -15 -15 -15 -15
-16 -16 -16 -16 -17 -16 -16 -17 -17 -17 -17 -17 -17 -17 -16 -17 -17 -18 -17 -18 -17 -17 -16 -16 -15 -15 -15 -15 -15 -15 -16 -17 -17 -17 -16 -15 -16 -16 -15 -15 -15 -15 -15
-17 -17 -17 -16 -17 -17 -17 -17 -18 -18 -18 -19 -19 -19 -19 -18 -18 -19 -20 -20 -20 -19 -19 -19 -18 -17 -16 -16 -15 -16 -16 -17 -18 -18 -17 -17 -16 -16 -16 -16 -15 -15 -15
-17 -18 -18 -18 -18 -18 -18 -18 -19 -19 -19 -20 -20 -21 -21 -20 -20 -19 -20 -21 -21 -21 -21 -21 -21 -20 -19 -18 -18 -18 -18 -19 -19 -19 -19 -18 -17 -17 -16 -16 -16 -16 -15
-17 -18 -18 -18 -18 -19 -20 -20 -20 -21 -21 -21 -22 -22 -22 -22 -22 -22 -21 -21 -21 -22 -22 -22 -22 -22 -22 -22 -21 -21 -22 -21 -20 -20 -20 -20 -19 -18 -18 -17 -16 -16 -16
-19 -19 -19 -20 -20 -21 -21 -21 -22 -22 -22 -23 -23 -23 -23 -22 -22 -23 -23 -22 -22 -21 -22 -23 -23 -23 -23 -23 -22 -22 -22 -22 -22 -21 -21 -21 -21 -19 -19 -18 -18 -17 -17
-20 -20 -20 -21 -21 -22 -22 -23 -23 -23 -23 -23 -23 -23 -24 -24 -24 -25 -25 -24 -24 -25 -24 -24 -25 -24 -24 -24 -24 -24 -23 -23 -23 -23 -23 -22 -22 -21 -20 -20 -19 -18 -18
-21 -21 -22 -22 -23 -23 -23 -24 -24 -24 -24 -25 -25 -26 -26 -27 -28 -28 -29 -29 -28 -27 -27 -27 -27 -27 -26 -25 -25 -25 -25 -25 -24 -24 -24 -24 -23 -23 -21 -20 -20 -19 -19
-22 -23 -23 -24 -24 -25 -25 -26 -27 -27 -28 -28 -29 -29 -30 -30 -30 -31 -31 -31 -31 -30 -30 -30 -30 -30 -30 -28 -27 -26 -26 -26 -25 -24 -24 -23 -24 -23 -23 -22 -21 -20 -20
-23 -23 -24 -25 -26 -28 -29 -29 -29 -30 -30 -30 -31 -31 -31 -31 -31 -31 -31 -31 -31 -31 -31 -31 -31 -31 -31 -30 -30 -29 -28 -27 -25 -26 -26 -25 -25 -25 -24 -24 -22 -21 -20
-24 -24 -27 -28 -29 -30 -30 -30 -30 -31 -31 -31 -31 -31 -31 -31 -31 -31 -31 -31 -31 -31 -31 -31 -31 -31 -31 -31 -30 -30 -29 -29 -27 -27 -26 -26 -26 -26 -25 -25 -24 -22 -21
-26 -27 -29 -30 -31 -30 -31 -31 -31 -32 -31 -31 -31 -31 -32 -32 -32 -32 -31 -31 -31 -31 -31 -31 -31 -31 -31 -31 -31 -30 -30 -30 -29 -28 -28 -27 -27 -27 -26 -25 -25 -24 -23
-27 -29 -30 -31 -32 -31 -32 -32 -32 -32 -32 -32 -32 -32 -32 -32 -32 -32 -32 -32 -32 -31 -31 -31 -30 -31 -31 -31 -31 -31 -30 -30 -30 -29 -29 -28 -28 -28 -28 -27 -26 -25 -25
-30 -30 -31 -31 -32 -33 -32 -32 -32 -32 -32 -32 -32 -32 -33 -33 -33 -33 -33 -33 -33 -32 -32 -31 -31 -31 -31 -31 -31 -31 -30 -30 -30 -30 -29 -29 -29 -29 -28 -28 -27 -27 -26
-30 -31 -32 -32 -33 -32 -32 -32 -32 -32 -32 -32 -33 -33 -34 -34 -34 -34 -33 -33 -34 -34 -33 -32 -31 -31 -31 -31 -31 -31 -30 -30 -30 -30 -30 -30 -30 -29 -28 -28 -28 -28 -27
-31 -32 -32 -33 -33 -32 -32 -32 -32 -33 -33 -33 -33 -34 -34 -34 -34 -34 -34 -34 -34 -34 -34 -33 -32 -31 -31 -31 -31 -31 -30 -30 -30 -29 -29 -30 -29 -29 -28 -28 -28 -28 -28
-32 -33 -33 -33 -32 -32 -32 -32 -32 -33 -34 -34 -34 -34 -34 -34 -34 -34 -34 -34 -34 -34 -34 -34 -32 -31 -31 -31 -31 -31 -30 -30 -30 -30 -29 -29 -29 -29 -29 -29 -28 -28 -28
-33 -33 -33 -32 -33 -32 -33 -33 -34 -34 -34 -35 -35 -35 -35 -35 -35 -35 -35 -35 -35 -35 -35 -34 -32 -31 -30 -31 -30 -30 -30 -30 -30 -30 -30 -29 -29 -29 -29 -29 -29 -29 -28
-33 -33 -33 -33 -33 -33 -33 -34 -34 -34 -35 -35 -36 -36 -36 -36 -36 -36 -36 -36 -36 -35 -35 -34 -32 -31 -30 -30 -30 -30 -30 -29 -29 -29 -29 -29 -29 -29 -29 -29 -29 -29 -29
-33 -33 -33 -33 -33 -33 -33 -34 -34 -35 -35 -35 -35 -35 -36 -36 -36 -36 -36 -36 -35 -35 -35 -33 -31 -31 -30 -30 -30 -30 -29 -29 -29 -30 -30 -29 -29 -29 -29 -29 -29 -29 -29

GFSMA_500_temp_018.txt.gz
Temp
-15 -15 -15 -14 -14 -14 -14 -14 -14 -14 -15 -15 -14 -14 -14 -14 -14 -14 -14 -14 -14 -14 -14 -14 -14 -13 -13 -14 -14 -14 -14 -14 -14 -15 -15 -15 -15 -15 -15 -14 -14 -14 -14
-16 -15 -15 -15 -14 -14 -14 -14 -14 -14 -14 -14 -14 -14 -14 -14 -15 -14 -14 -14 -14 -14 -14 -14 -14 -14 -14 -14 -14 -14 -14 -14 -14 -14 -14 -15 -15 -15 -15 -15 -16 -14 -14
-16 -16 -16 -15 -15 -15 -15 -15 -15 -14 -14 -14 -14 -14 -14 -14 -15 -15 -15 -15 -14 -14 -14 -14 -14 -14 -14 -14 -14 -14 -14 -14 -14 -14 -14 -14 -14 -15 -15 -15 -15 -15 -14
-17 -17 -16 -16 -16 -15 -15 -15 -15 -15 -15 -15 -15 -15 -15 -15 -15 -15 -15 -15 -15 -15 -15 -15 -15 -15 -14 -15 -15 -14 -14 -14 -14 -14 -14 -14 -14 -14 -15 -15 -15 -15 -14
-16 -16 -16 -16 -16 -16 -16 -15 -15 -15 -15 -15 -15 -15 -15 -15 -15 -15 -15 -15 -15 -15 -14 -14 -15 -15 -15 -15 -15 -15 -15 -14 -14 -14 -14 -14 -15 -14 -14 -14 -14 -14 -14
-16 -16 -16 -16 -16 -16 -16 -16 -16 -16 -16 -15 -15 -15 -15 -15 -15 -15 -15 -15 -15 -15 -15 -14 -14 -14 -15 -15 -15 -15 -15 -15 -15 -15 -14 -15 -15 -15 -15 -15 -15 -15 -15
-16 -17 -17 -17 -17 -16 -16 -16 -16 -16 -16 -16 -16 -16 -16 -16 -16 -16 -16 -16 -16 -15 -15 -15 -15 -15 -15 -15 -15 -15 -16 -16 -17 -16 -15 -15 -15 -14 -15 -15 -15 -15 -15
-17 -17 -17 -17 -17 -17 -17 -17 -17 -17 -17 -17 -17 -17 -17 -17 -17 -17 -18 -18 -18 -17 -17 -16 -16 -15 -15 -15 -15 -16 -16 -16 -17 -17 -17 -16 -15 -15 -15 -15 -15 -15 -15
-17 -17 -18 -17 -17 -17 -17 -18 -18 -18 -18 -19 -19 -19 -18 -18 -18 -19 -20 -20 -20 -20 -20 -19 -19 -18 -17 -17 -16 -17 -17 -17 -17 -18 -18 -18 -16 -15 -15 -15 -15 -15 -15
-18 -18 -18 -18 -18 -18 -18 -19 -19 -20 -20 -20 -20 -20 -20 -20 -20 -19 -19 -21 -21 -22 -22 -22 -21 -21 -20 -19 -19 -19 -19 -19 -19 -18 -18 -18 -19 -17 -16 -16 -15 -15 -15
-18 -18 -18 -18 -19 -19 -20 -21 -21 -21 -22 -22 -21 -21 -21 -22 -22 -21 -21 -21 -21 -22 -22 -22 -22 -22 -22 -22 -21 -21 -20 -20 -21 -20 -20 -19 -20 -20 -18 -17 -16 -16 -15
-18 -19 -19 -20 -20 -21 -21 -22 -22 -22 -22 -23 -23 -23 -23 -23 -23 -23 -22 -22 -22 -22 -22 -23 -22 -22 -22 -22 -22 -22 -22 -22 -22 -22 -22 -22 -22 -21 -20 -19 -18 -17 -17
-19 -19 -20 -21 -21 -22 -22 -23 -23 -24 -24 -24 -25 -25 -25 -26 -26 -26 -25 -24 -24 -24 -24 -24 -24 -23 -23 -23 -23 -23 -23 -22 -23 -23 -23 -23 -22 -22 -22 -21 -20 -18 -18
-20 -20 -21 -22 -22 -23 -23 -24 -25 -26 -27 -27 -28 -28 -28 -29 -29 -29 -29 -29 -29 -28 -28 -28 -28 -28 -27 -26 -26 -25 -25 -24 -24 -24 -24 -24 -23 -23 -23 -22 -21 -20 -19
-21 -22 -22 -23 -23 -24 -25 -27 -28 -29 -30 -30 -30 -30 -30 -30 -30 -30 -30 -31 -31 -30 -30 -31 -31 -31 -30 -30 -30 -28 -27 -27 -26 -25 -25 -25 -24 -23 -24 -23 -23 -21 -20
-22 -23 -23 -25 -26 -29 -28 -30 -30 -31 -31 -31 -31 -32 -31 -31 -31 -31 -31 -31 -32 -31 -31 -31 -31 -31 -31 -31 -31 -31 -30 -29 -28 -27 -26 -26 -25 -24 -25 -24 -24 -23 -22
-22 -23 -25 -27 -29 -31 -31 -31 -31 -32 -32 -32 -33 -33 -32 -32 -32 -32 -32 -31 -32 -32 -31 -31 -31 -31 -31 -32 -32 -32 -32 -31 -30 -29 -28 -27 -26 -26 -26 -25 -24 -24 -23
-24 -25 -27 -30 -31 -31 -31 -32 -31 -32 -33 -33 -32 -32 -32 -32 -32 -32 -32 -32 -32 -32 -32 -31 -31 -31 -31 -32 -32 -32 -32 -32 -31 -31 -30 -30 -29 -27 -27 -26 -25 -25 -24
-25 -29 -30 -31 -31 -31 -32 -31 -32 -32 -33 -32 -32 -32 -32 -32 -32 -32 -32 -32 -32 -32 -32 -32 -32 -31 -31 -31 -32 -32 -32 -31 -31 -31 -31 -30 -29 -27 -27 -26 -26 -25 -25
-28 -29 -31 -32 -31 -31 -32 -32 -32 -32 -32 -32 -33 -33 -33 -33 -33 -33 -33 -33 -33 -33 -33 -33 -33 -32 -32 -31 -31 -32 -32 -31 -31 -31 -31 -30 -30 -29 -27 -27 -26 -26 -25
-29 -30 -32 -32 -32 -32 -32 -32 -32 -32 -33 -33 -33 -33 -33 -33 -34 -34 -34 -34 -34 -34 -34 -34 -33 -33 -33 -32 -31 -31 -31 -31 -31 -31 -31 -30 -30 -30 -29 -28 -28 -27 -26
-30 -31 -33 -33 -33 -32 -32 -32 -32 -33 -33 -33 -33 -34 -34 -34 -35 -35 -35 -35 -34 -34 -34 -34 -34 -34 -34 -33 -32 -31 -31 -31 -31 -31 -31 -30 -31 -30 -30 -30 -29 -29 -28
-31 -32 -33 -33 -33 -32 -32 -32 -33 -32 -33 -34 -34 -34 -35 -35 -35 -36 -36 -36 -36 -35 -35 -34 -34 -34 -34 -34 -32 -31 -31 -31 -31 -31 -31 -31 -30 -30 -30 -30 -29 -29 -29
-32 -33 -33 -33 -33 -32 -33 -32 -33 -33 -34 -34 -34 -34 -35 -35 -35 -36 -36 -36 -36 -36 -36 -35 -34 -35 -34 -34 -32 -31 -31 -31 -31 -31 -31 -30 -31 -30 -30 -30 -30 -29 -29
-32 -32 -33 -33 -33 -33 -33 -33 -33 -34 -34 -34 -34 -34 -34 -35 -35 -36 -36 -36 -36 -36 -36 -35 -35 -35 -34 -33 -31 -30 -31 -31 -31 -31 -30 -30 -30 -30 -30 -30 -29 -29 -29
-32 -33 -33 -32 -33 -33 -32 -33 -33 -34 -34 -34 -34 -34 -34 -35 -35 -36 -36 -36 -36 -36 -36 -36 -35 -35 -34 -32 -31 -30 -30 -30 -30 -30 -30 -30 -30 -30 -30 -30 -30 -29 -29

GFSMA_500_temp_024.txt.gz
Temp
-15 -15 -14 -15 -14 -15 -15 -15 -16 -16 -16 -16 -16 -16 -16 -16 -16 -16 -16 -15 -15 -15 -15 -15 -15 -15 -15 -15 -14 -14 -14 -14 -14 -15 -14 -14 -14 -14 -14 -14 -14 -14 -13
-15 -15 -15 -15 -15 -16 -16 -16 -16 -16 -16 -16 -16 -16 -16 -16 -16 -16 -16 -16 -16 -16 -16 -16 -15 -15 -15 -15 -15 -14 -15 -14 -14 -14 -14 -14 -14 -14 -14 -14 -14 -14 -14
-15 -15 -15 -16 -16 -17 -17 -17 -17 -16 -16 -16 -16 -16 -16 -16 -16 -16 -16 -15 -15 -16 -16 -16 -16 -16 -15 -15 -15 -15 -15 -14 -15 -14 -14 -14 -15 -14 -14 -14 -14 -14 -14
-16 -17 -17 -17 -17 -16 -16 -16 -16 -16 -16 -16 -16 -17 -17 -17 -17 -16 -16 -16 -16 -15 -15 -15 -15 -15 -16 -16 -15 -15 -15 -15 -15 -14 -15 -14 -14 -14 -14 -14 -14 -14 -15
-17 -17 -17 -17 -17 -16 -16 -16 -16 -16 -16 -16 -16 -17 -17 -17 -17 -17 -17 -16 -16 -16 -16 -15 -15 -15 -15 -15 -16 -15 -15 -15 -15 -15 -15 -15 -15 -15 -14 -14 -14 -14 -14
-17 -17 -17 -17 -17 -17 -17 -17 -17 -17 -17 -17 -17 -17 -17 -17 -17 -17 -17 -17 -17 -17 -16 -16 -16 -16 -15 -15 -15 -16 -16 -15 -15 -15 -15 -15 -15 -15 -15 -15 -14 -14 -14
-17 -17 -17 -17 -17 -17 -17 -17 -17 -18 -18 -18 -18 -18 -18 -18 -18 -18 -18 -18 -18 -17 -17 -17 -16 -16 -16 -16 -16 -16 -16 -16 -16 -15 -15 -15 -15 -15 -15 -15 -15 -15 -14
-17 -17 -17 -17 -17 -17 -18 -18 -19 -19 -19 -19 -19 -19 -19 -19 -19 -20 -20 -20 -20 -19 -19 -19 -18 -17 -17 -17 -17 -17 -16 -16 -16 -17 -16 -15 -15 -15 -15 -15 -15 -14 -15
-18 -18 -18 -18 -19 -19 -19 -19 -19 -19 -19 -19 -20 -20 -19 -19 -18 -19 -20 -21 -21 -21 -22 -21 -21 -20 -19 -19 -19 -18 -18 -17 -17 -17 -17 -18 -17 -16 -16 -15 -15 -15 -15
-19 -19 -19 -18 -18 -18 -18 -19 -19 -19 -20 -20 -20 -21 -21 -21 -21 -21 -21 -22 -22 -23 -22 -22 -22 -22 -22 -21 -21 -20 -20 -19 -19 -19 -18 -18 -19 -18 -17 -17 -16 -15 -15
-18 -18 -18 -18 -18 -18 -19 -19 -20 -20 -21 -21 -22 -22 -23 -23 -24 -24 -24 -24 -25 -25 -24 -25 -24 -24 -23 -23 -23 -22 -22 -21 -21 -21 -21 -21 -20 -20 -20 -19 -17 -16 -16
-18 -18 -18 -18 -19 -19 -20 -20 -21 -21 -22 -23 -23 -24 -24 -25 -26 -27 -27 -28 -29 -28 -28 -27 -27 -27 -26 -25 -24 -24 -24 -23 -23 -22 -22 -22 -22 -21 -21 -20 -20 -19 -17
-18 -18 -18 -19 -20 -20 -21 -21 -22 -22 -23 -24 -25 -26 -28 -29 -30 -30 -30 -30 -31 -31 -30 -29 -29 -29 -29 -28 -28 -27 -26 -25 -24 -24 -23 -23 -23 -23 -22 -21 -21 -21 -19
-18 -19 -19 -20 -20 -21 -22 -23 -24 -24 -25 -26 -28 -30 -30 -31 -31 -32 -32 -32 -31 -32 -32 -31 -31 -31 -32 -31 -31 -30 -29 -28 -27 -26 -25 -24 -24 -24 -23 -23 -22 -22 -21
-19 -19 -20 -20 -21 -22 -23 -24 -25 -25 -27 -29 -30 -31 -32 -32 -32 -32 -32 -32 -32 -31 -31 -32 -32 -32 -32 -32 -32 -32 -31 -30 -30 -29 -27 -26 -25 -24 -24 -23 -23 -22 -22
-20 -20 -20 -21 -22 -23 -24 -25 -26 -28 -29 -31 -32 -32 -33 -33 -33 -32 -32 -32 -32 -32 -31 -32 -32 -32 -32 -32 -32 -32 -32 -32 -31 -31 -30 -28 -27 -26 -25 -24 -24 -23 -23
-20 -21 -22 -22 -23 -25 -26 -27 -29 -30 -31 -33 -33 -32 -32 -32 -32 -32 -32 -32 -32 -32 -32 -31 -32 -32 -32 -32 -32 -32 -32 -32 -32 -32 -31 -31 -29 -27 -26 -25 -24 -24 -24
-21 -22 -23 -24 -25 -26 -27 -29 -30 -31 -32 -33 -32 -32 -32 -32 -32 -32 -32 -32 -33 -33 -33 -33 -33 -33 -33 -32 -32 -32 -32 -32 -32 -32 -32 -32 -31 -30 -28 -27 -25 -25 -24
-22 -23 -24 -25 -26 -28 -30 -31 -31 -32 -32 -32 -32 -32 -32 -32 -32 -32 -33 -33 -34 -34 -35 -35 -34 -34 -34 -34 -33 -33 -33 -33 -32 -32 -32 -32 -32 -32 -31 -29 -27 -26 -25
-23 -24 -25 -26 -28 -30 -31 -31 -32 -32 -32 -32 -32 -32 -32 -32 -33 -33 -34 -34 -34 -34 -35 -35 -35 -35 -35 -35 -34 -33 -33 -33 -32 -32 -32 -32 -32 -32 -32 -31 -30 -27 -26
-24 -25 -27 -28 -29 -31 -32 -32 -32 -32 -32 -32 -32 -32 -32 -33 -33 -34 -34 -34 -34 -35 -35 -35 -35 -35 -36 -36 -35 -34 -34 -34 -33 -33 -32 -32 -32 -32 -32 -32 -31 -30 -28
-25 -27 -28 -30 -31 -32 -32 -32 -32 -33 -33 -32 -32 -32 -33 -33 -34 -34 -34 -34 -34 -35 -35 -36 -36 -36 -36 -36 -36 -36 -35 -34 -34 -33 -32 -32 -32 -31 -32 -32 -32 -31 -30
-27 -28 -30 -31 -32 -32 -32 -32 -33 -33 -33 -33 -33 -33 -33 -33 -34 -34 -34 -34 -34 -35 -35 -36 -36 -37 -37 -37 -37 -36 -35 -34 -34 -34 -33 -33 -32 -31 -31 -32 -32 -32 -31
-28 -30 -31 -32 -32 -32 -33 -33 -33 -33 -33 -33 -33 -33 -33 -34 -34 -34 -34 -34 -35 -35 -36 -36 -37 -37 -37 -37 -37 -36 -35 -34 -34 -34 -33 -33 -32 -32 -31 -31 -32 -32 -31
-30 -30 -32 -33 -33 -33 -33 -33 -33 -33 -33 -33 -33 -33 -33 -34 -34 -33 -33 -34 -34 -35 -36 -36 -37 -37 -37 -37 -37 -36 -35 -34 -34 -34 -33 -33 -32 -31 -31 -31 -32 -32 -31
-31 -31 -32 -33 -33 -33 -33 -33 -33 -33 -33 -33 -33 -33 -34 -34 -34 -33 -33 -33 -34 -35 -35 -36 -36 -36 -37 -37 -36 -36 -35 -34 -34 -34 -34 -33 -32 -31 -31 -31 -31 -31 -31

GFSMA_500_temp_027.txt.gz
Temp
-15 -15 -15 -15 -15 -15 -15 -16 -16 -16 -16 -16 -16 -16 -16 -16 -16 -16 -16 -16 -16 -16 -16 -16 -16 -16 -16 -15 -15 -14 -14 -14 -14 -14 -15 -14 -14 -14 -14 -15 -15 -15 -14
-15 -15 -15 -15 -16 -16 -16 -16 -16 -17 -17 -17 -17 -17 -17 -16 -16 -16 -16 -16 -16 -16 -16 -16 -16 -16 -16 -16 -15 -15 -14 -14 -14 -14 -14 -14 -14 -14 -14 -14 -14 -14 -14
-16 -16 -16 -16 -16 -16 -16 -17 -17 -17 -17 -17 -17 -17 -17 -16 -16 -16 -16 -16 -16 -16 -16 -16 -16 -16 -16 -16 -16 -16 -15 -15 -14 -14 -14 -14 -14 -14 -14 -14 -14 -14 -15
-16 -16 -17 -17 -17 -17 -17 -17 -17 -17 -17 -16 -16 -16 -16 -16 -16 -16 -16 -16 -16 -16 -16 -16 -16 -16 -15 -15 -16 -15 -15 -15 -15 -14 -14 -14 -14 -14 -14 -14 -14 -14 -14
-17 -17 -17 -18 -17 -17 -17 -17 -17 -17 -16 -16 -17 -17 -17 -17 -17 -17 -16 -16 -16 -16 -16 -16 -16 -15 -15 -15 -15 -15 -15 -15 -15 -15 -14 -14 -14 -14 -14 -14 -14 -14 -14
-18 -18 -18 -18 -18 -17 -17 -17 -17 -17 -17 -17 -17 -17 -17 -18 -18 -18 -17 -17 -17 -17 -16 -16 -16 -16 -15 -15 -15 -15 -15 -15 -15 -15 -15 -15 -14 -15 -15 -15 -14 -14 -14
-18 -18 -18 -17 -17 -17 -17 -17 -17 -18 -18 -18 -18 -19 -19 -19 -19 -19 -19 -19 -19 -18 -18 -17 -17 -16 -16 -15 -15 -15 -15 -15 -15 -15 -15 -15 -15 -15 -15 -15 -15 -15 -14
-17 -17 -17 -18 -18 -18 -19 -19 -19 -18 -19 -19 -19 -19 -19 -19 -20 -20 -20 -20 -20 -20 -20 -19 -18 -17 -16 -16 -16 -16 -15 -15 -15 -16 -16 -16 -15 -15 -15 -15 -15 -15 -15
-19 -19 -19 -19 -19 -19 -18 -18 -18 -18 -18 -19 -19 -19 -19 -19 -20 -20 -21 -21 -22 -22 -22 -22 -22 -22 -21 -20 -18 -17 -17 -17 -16 -17 -16 -16 -17 -16 -16 -16 -15 -15 -15
-19 -19 -18 -18 -18 -18 -18 -18 -18 -18 -19 -19 -20 -20 -20 -20 -20 -20 -21 -21 -22 -23 -23 -23 -23 -23 -23 -23 -22 -21 -20 -18 -17 -18 -18 -17 -17 -17 -16 -16 -16 -16 -15
-18 -18 -18 -18 -18 -18 -18 -19 -19 -19 -20 -20 -20 -21 -21 -22 -23 -23 -23 -24 -25 -26 -26 -26 -26 -26 -26 -25 -24 -23 -23 -23 -21 -20 -20 -19 -19 -18 -18 -17 -17 -17 -16
-18 -18 -18 -18 -18 -19 -19 -19 -19 -20 -21 -21 -22 -22 -23 -23 -24 -25 -27 -28 -28 -29 -29 -29 -29 -29 -29 -28 -27 -26 -25 -24 -24 -23 -22 -21 -21 -20 -19 -19 -19 -18 -18
-18 -18 -18 -19 -19 -19 -19 -20 -21 -21 -22 -23 -23 -23 -25 -26 -28 -29 -30 -30 -30 -31 -31 -31 -31 -31 -31 -31 -30 -29 -28 -27 -26 -25 -24 -23 -22 -22 -21 -21 -21 -20 -19
-18 -19 -19 -19 -19 -20 -20 -21 -22 -22 -23 -23 -25 -26 -28 -29 -30 -31 -31 -31 -31 -31 -31 -31 -32 -31 -31 -31 -31 -31 -31 -30 -29 -28 -26 -25 -24 -24 -23 -23 -22 -22 -21
-19 -19 -19 -20 -20 -20 -21 -22 -23 -23 -24 -26 -28 -29 -30 -31 -31 -31 -32 -31 -31 -30 -30 -31 -31 -32 -32 -31 -31 -32 -32 -32 -31 -30 -30 -28 -27 -26 -25 -24 -24 -23 -23
-19 -20 -20 -20 -21 -21 -22 -23 -24 -25 -27 -29 -30 -31 -31 -31 -32 -32 -32 -32 -32 -31 -30 -31 -31 -31 -32 -32 -31 -32 -32 -32 -32 -32 -31 -30 -29 -28 -26 -26 -25 -24 -24
-20 -20 -20 -21 -22 -22 -23 -25 -26 -28 -30 -31 -31 -31 -31 -31 -32 -32 -32 -32 -32 -32 -32 -32 -32 -32 -32 -32 -32 -32 -32 -32 -32 -32 -32 -31 -31 -30 -28 -27 -26 -25 -25
-20 -21 -21 -22 -23 -24 -25 -27 -28 -30 -31 -32 -32 -32 -32 -32 -32 -32 -32 -32 -33 -33 -33 -34 -34 -34 -34 -34 -34 -33 -33 -32 -32 -32 -32 -32 -32 -31 -30 -29 -27 -26 -25
-21 -22 -23 -23 -24 -25 -27 -29 -30 -31 -32 -32 -32 -32 -32 -32 -32 -32 -32 -33 -33 -34 -34 -34 -34 -34 -34 -34 -34 -34 -34 -34 -33 -33 -32 -32 -32 -32 -31 -31 -29 -28 -26
-22 -23 -23 -24 -25 -27 -29 -30 -31 -32 -32 -32 -32 -32 -32 -32 -32 -32 -33 -33 -34 -34 -34 -34 -34 -34 -35 -35 -35 -35 -35 -35 -34 -33 -32 -32 -32 -32 -32 -32 -31 -29 -28
-23 -23 -24 -25 -28 -29 -30 -31 -32 -32 -32 -33 -33 -33 -33 -32 -32 -33 -33 -33 -34 -34 -34 -34 -34 -35 -35 -36 -36 -36 -36 -35 -35 -35 -33 -33 -32 -32 -32 -32 -32 -31 -30
-23 -24 -26 -28 -29 -30 -31 -32 -33 -33 -33 -33 -33 -33 -33 -32 -33 -33 -33 -34 -33 -33 -34 -34 -35 -35 -36 -36 -36 -36 -36 -36 -36 -35 -34 -33 -32 -32 -32 -32 -32 -32 -31
-24 -26 -28 -29 -30 -31 -32 -33 -33 -33 -33 -33 -33 -33 -33 -33 -33 -33 -33 -33 -33 -33 -34 -34 -35 -36 -36 -37 -37 -37 -37 -36 -36 -36 -35 -34 -33 -32 -32 -32 -32 -32 -32
-26 -28 -29 -30 -31 -32 -33 -33 -33 -33 -33 -33 -33 -33 -33 -33 -33 -33 -33 -33 -33 -33 -34 -34 -35 -36 -36 -37 -37 -37 -37 -37 -37 -36 -35 -34 -33 -33 -32 -32 -32 -32 -32
-28 -29 -30 -31 -32 -33 -33 -33 -34 -34 -34 -34 -33 -33 -33 -33 -33 -33 -33 -33 -33 -33 -34 -34 -35 -35 -36 -37 -37 -37 -37 -36 -36 -36 -34 -34 -34 -33 -32 -32 -32 -32 -32
-29 -30 -31 -32 -32 -33 -33 -34 -34 -34 -34 -34 -33 -33 -33 -33 -33 -33 -33 -33 -33 -33 -33 -34 -34 -35 -36 -36 -37 -37 -37 -36 -36 -35 -34 -34 -34 -33 -32 -32 -32 -32 -32

GFSMA_500_temp_030.txt.gz
Temp
-16 -16 -16 -16 -15 -15 -15 -15 -16 -15 -15 -16 -16 -16 -16 -16 -16 -17 -16 -16 -17 -17 -17 -16 -16 -16 -16 -16 -16 -15 -15 -15 -14 -15 -14 -14 -14 -14 -14 -14 -14 -15 -15
-16 -16 -15 -15 -15 -15 -15 -16 -16 -16 -16 -17 -17 -17 -17 -17 -17 -17 -17 -16 -16 -16 -16 -16 -16 -16 -16 -16 -16 -16 -15 -15 -15 -14 -15 -14 -14 -14 -14 -14 -14 -14 -15
-17 -16 -15 -15 -15 -16 -16 -17 -17 -17 -17 -17 -17 -17 -17 -17 -16 -16 -16 -16 -16 -16 -16 -16 -16 -16 -16 -16 -16 -16 -16 -16 -15 -15 -14 -15 -14 -14 -14 -14 -14 -14 -14
-17 -17 -17 -17 -17 -17 -18 -18 -18 -17 -17 -17 -17 -17 -17 -17 -16 -16 -16 -16 -16 -16 -16 -16 -16 -16 -16 -16 -16 -16 -16 -16 -16 -15 -15 -15 -15 -14 -14 -14 -14 -14 -14
-17 -18 -18 -18 -18 -18 -18 -18 -18 -17 -17 -17 -17 -17 -17 -17 -17 -17 -17 -17 -16 -17 -17 -16 -16 -16 -16 -16 -16 -16 -16 -16 -16 -16 -15 -15 -15 -15 -15 -14 -14 -14 -14
-18 -18 -18 -18 -18 -18 -17 -17 -17 -17 -17 -17 -18 -18 -18 -18 -18 -18 -18 -18 -17 -17 -17 -17 -17 -17 -16 -16 -16 -16 -16 -16 -16 -15 -15 -15 -15 -15 -15 -15 -15 -14 -14
-17 -17 -17 -17 -17 -18 -18 -18 -18 -18 -18 -18 -19 -19 -19 -18 -18 -18 -18 -19 -19 -19 -19 -19 -18 -17 -17 -16 -16 -16 -16 -16 -15 -15 -16 -15 -15 -15 -15 -15 -15 -14 -14
-19 -19 -19 -19 -19 -19 -19 -19 -19 -19 -19 -19 -18 -18 -18 -18 -18 -18 -18 -19 -19 -19 -19 -19 -19 -19 -19 -17 -16 -16 -16 -16 -16 -15 -15 -15 -15 -15 -15 -15 -15 -15 -15
-19 -19 -19 -19 -19 -19 -19 -18 -18 -18 -18 -18 -18 -18 -18 -19 -19 -20 -20 -20 -19 -20 -20 -20 -20 -20 -19 -19 -18 -17 -17 -16 -16 -16 -15 -15 -15 -15 -16 -15 -15 -15 -15
-18 -18 -18 -18 -18 -18 -18 -18 -18 -19 -19 -19 -19 -19 -20 -20 -20 -20 -20 -20 -20 -20 -21 -21 -21 -22 -22 -21 -21 -20 -20 -20 -17 -17 -17 -16 -16 -16 -16 -16 -15 -15 -15
-18 -19 -19 -19 -19 -19 -19 -19 -19 -19 -19 -20 -20 -20 -21 -21 -21 -21 -21 -21 -22 -24 -24 -25 -26 -27 -27 -26 -26 -26 -23 -23 -23 -21 -19 -18 -18 -17 -17 -17 -17 -16 -16
-19 -19 -19 -19 -19 -19 -19 -19 -19 -19 -19 -20 -21 -21 -21 -22 -22 -23 -25 -26 -27 -28 -28 -28 -28 -28 -29 -29 -28 -28 -28 -28 -26 -25 -24 -22 -21 -20 -19 -19 -18 -17 -17
-19 -19 -19 -19 -19 -19 -19 -19 -20 -20 -21 -21 -22 -22 -22 -24 -26 -27 -29 -29 -29 -30 -30 -30 -30 -30 -30 -30 -30 -30 -30 -30 -29 -28 -27 -25 -24 -22 -21 -21 -21 -20 -18
-19 -19 -19 -19 -19 -19 -20 -20 -21 -21 -22 -22 -23 -24 -26 -27 -29 -30 -30 -30 -30 -30 -30 -30 -31 -31 -31 -31 -30 -30 -30 -31 -30 -30 -29 -28 -26 -25 -24 -23 -22 -22 -21
-19 -19 -19 -19 -20 -20 -20 -21 -22 -22 -23 -23 -25 -27 -28 -30 -31 -31 -31 -31 -31 -30 -30 -30 -31 -31 -31 -31 -31 -30 -30 -30 -31 -31 -30 -30 -29 -27 -25 -24 -24 -23 -22
-20 -20 -20 -20 -21 -21 -21 -22 -22 -23 -24 -26 -28 -29 -31 -31 -32 -32 -31 -31 -31 -31 -30 -31 -31 -31 -31 -31 -31 -31 -31 -31 -31 -31 -31 -31 -30 -30 -28 -27 -25 -25 -23
-20 -20 -21 -21 -21 -22 -22 -23 -23 -24 -26 -28 -30 -31 -32 -32 -32 -32 -32 -32 -32 -32 -31 -32 -32 -33 -33 -33 -33 -33 -33 -33 -32 -31 -32 -31 -31 -31 -31 -29 -28 -27 -25
-21 -21 -21 -21 -22 -22 -23 -23 -24 -27 -29 -30 -31 -32 -32 -32 -32 -32 -32 -32 -32 -32 -32 -33 -33 -33 -33 -33 -33 -34 -34 -34 -34 -33 -32 -32 -32 -32 -32 -31 -30 -29 -28
-21 -21 -22 -22 -23 -23 -24 -25 -27 -29 -30 -31 -32 -32 -32 -32 -32 -32 -32 -32 -32 -32 -33 -33 -33 -33 -33 -33 -34 -34 -34 -34 -34 -34 -34 -33 -32 -32 -32 -32 -31 -30 -29
-22 -22 -22 -23 -23 -24 -25 -27 -29 -30 -31 -32 -33 -33 -33 -33 -32 -33 -32 -32 -33 -33 -33 -33 -33 -33 -33 -34 -34 -34 -34 -34 -34 -34 -34 -34 -33 -32 -32 -32 -32 -31 -30
-22 -23 -23 -23 -24 -25 -27 -29 -30 -31 -32 -33 -33 -33 -33 -33 -33 -33 -32 -33 -33 -33 -33 -33 -33 -33 -34 -34 -35 -35 -35 -35 -35 -35 -35 -35 -34 -33 -32 -32 -32 -32 -31
-23 -23 -23 -24 -26 -27 -29 -30 -31 -32 -33 -33 -33 -33 -33 -33 -33 -32 -33 -33 -33 -33 -33 -33 -33 -33 -34 -34 -35 -36 -36 -36 -36 -36 -36 -35 -35 -34 -32 -32 -32 -32 -32
-23 -23 -24 -26 -27 -28 -30 -31 -32 -33 -33 -33 -34 -33 -33 -33 -33 -32 -33 -33 -33 -33 -33 -33 -33 -33 -34 -34 -35 -36 -37 -37 -37 -37 -36 -36 -35 -35 -33 -32 -32 -32 -32
-24 -24 -25 -28 -28 -30 -31 -32 -33 -33 -34 -34 -34 -33 -33 -33 -32 -33 -33 -33 -33 -33 -33 -33 -33 -33 -34 -35 -36 -37 -37 -37 -37 -37 -37 -36 -36 -35 -34 -32 -32 -32 -32
-24 -25 -27 -28 -30 -31 -32 -33 -33 -34 -34 -34 -34 -33 -33 -33 -32 -33 -33 -33 -33 -33 -33 -33 -33 -33 -34 -35 -36 -36 -37 -37 -37 -37 -37 -37 -36 -35 -34 -33 -32 -32 -32
-25 -27 -28 -29 -31 -32 -33 -33 -33 -34 -34 -34 -34 -33 -33 -33 -33 -33 -33 -33 -33 -33 -33 -33 -33 -33 -34 -35 -35 -36 -37 -37 -37 -37 -37 -36 -36 -35 -34 -33 -32 -32 -32

GFSMA_500_temp_033.txt.gz
Temp
-16 -16 -16 -16 -16 -15 -15 -15 -15 -15 -15 -16 -16 -16 -17 -17 -17 -17 -17 -17 -17 -17 -17 -17 -17 -16 -16 -16 -16 -16 -16 -15 -15 -15 -15 -15 -15 -14 -14 -14 -14 -14 -15
-16 -15 -16 -16 -17 -16 -16 -15 -15 -15 -16 -16 -17 -17 -17 -17 -17 -17 -17 -17 -17 -17 -17 -17 -17 -17 -16 -16 -16 -16 -16 -16 -16 -15 -15 -15 -15 -15 -15 -14 -14 -14 -14
-15 -17 -17 -16 -17 -16 -16 -17 -17 -17 -17 -17 -17 -17 -17 -17 -17 -17 -17 -17 -17 -16 -16 -17 -17 -17 -17 -17 -16 -16 -16 -16 -16 -16 -16 -15 -16 -15 -15 -15 -15 -14 -14
-17 -16 -16 -17 -17 -17 -18 -18 -17 -18 -18 -18 -17 -17 -17 -17 -17 -17 -17 -16 -16 -16 -16 -16 -16 -17 -16 -16 -16 -16 -16 -16 -16 -16 -16 -16 -15 -16 -16 -15 -15 -15 -15
-17 -17 -17 -18 -18 -18 -18 -18 -17 -17 -17 -17 -17 -17 -17 -17 -17 -17 -17 -17 -17 -17 -17 -17 -16 -16 -16 -16 -16 -16 -16 -16 -16 -16 -16 -16 -16 -15 -16 -16 -15 -15 -15
-17 -17 -17 -17 -17 -17 -17 -17 -18 -18 -18 -18 -18 -18 -18 -18 -18 -18 -18 -18 -18 -18 -18 -17 -17 -17 -17 -17 -16 -16 -16 -16 -16 -15 -15 -15 -15 -16 -15 -15 -16 -15 -15
-16 -17 -17 -18 -19 -19 -19 -19 -19 -19 -19 -19 -19 -19 -19 -19 -19 -18 -18 -18 -18 -18 -18 -18 -18 -18 -18 -17 -17 -17 -16 -16 -16 -15 -15 -15 -15 -15 -16 -15 -15 -16 -15
-17 -18 -19 -19 -19 -19 -19 -19 -19 -19 -19 -19 -19 -18 -18 -18 -19 -19 -19 -18 -18 -18 -18 -18 -18 -18 -18 -18 -18 -18 -17 -17 -17 -17 -16 -15 -15 -15 -15 -16 -15 -15 -16
-17 -18 -18 -19 -19 -19 -19 -19 -19 -19 -19 -19 -19 -19 -19 -19 -19 -19 -20 -20 -20 -20 -20 -19 -19 -19 -19 -19 -19 -18 -18 -18 -18 -17 -17 -16 -15 -15 -15 -15 -15 -15 -15
-17 -18 -18 -18 -19 -19 -19 -19 -19 -19 -19 -19 -19 -19 -20 -20 -20 -20 -20 -20 -20 -20 -20 -20 -20 -20 -21 -21 -21 -21 -20 -19 -19 -19 -18 -18 -17 -16 -15 -15 -15 -16 -15
-17 -18 -18 -18 -18 -19 -19 -20 -19 -20 -19 -19 -20 -20 -20 -20 -21 -21 -20 -20 -20 -21 -22 -23 -24 -25 -27 -27 -27 -27 -25 -25 -24 -23 -22 -20 -18 -17 -16 -16 -16 -16 -16
-17 -18 -18 -19 -19 -19 -20 -19 -20 -20 -20 -20 -20 -20 -21 -21 -21 -22 -22 -22 -24 -26 -28 -29 -29 -29 -29 -29 -29 -29 -29 -28 -27 -27 -26 -24 -23 -21 -19 -17 -16 -16 -16
-18 -19 -19 -19 -20 -20 -20 -20 -20 -20 -21 -21 -21 -21 -21 -22 -22 -24 -26 -27 -28 -29 -30 -30 -31 -30 -30 -30 -29 -29 -29 -29 -29 -29 -28 -27 -27 -25 -24 -21 -19 -17 -17
-19 -19 -19 -20 -20 -20 -20 -20 -21 -21 -21 -21 -22 -22 -23 -24 -25 -27 -29 -30 -30 -30 -31 -31 -31 -31 -30 -30 -30 -30 -29 -30 -29 -29 -30 -29 -29 -28 -27 -25 -23 -21 -19
-19 -19 -20 -20 -20 -20 -21 -21 -21 -22 -22 -22 -23 -23 -24 -26 -28 -29 -31 -31 -32 -31 -30 -31 -31 -31 -31 -31 -31 -31 -30 -30 -30 -30 -30 -30 -30 -29 -29 -28 -26 -25 -22
-20 -20 -20 -20 -20 -21 -21 -22 -22 -22 -22 -23 -24 -25 -27 -29 -30 -31 -32 -32 -32 -32 -31 -31 -31 -31 -31 -31 -31 -32 -32 -32 -31 -31 -31 -30 -31 -30 -30 -29 -29 -27 -25
-20 -20 -21 -21 -21 -21 -22 -22 -22 -23 -23 -24 -25 -27 -29 -30 -32 -32 -32 -32 -32 -32 -31 -31 -32 -32 -31 -32 -33 -33 -33 -33 -33 -33 -33 -32 -31 -30 -30 -30 -30 -29 -27
-20 -21 -21 -21 -22 -22 -22 -23 -23 -23 -24 -26 -27 -29 -30 -32 -32 -33 -33 -33 -32 -32 -32 -31 -32 -32 -33 -33 -33 -33 -33 -33 -33 -33 -33 -33 -33 -32 -31 -31 -30 -30 -29
-21 -21 -21 -22 -22 -23 -23 -23 -23 -24 -25 -28 -29 -31 -32 -33 -33 -33 -33 -33 -33 -32 -32 -32 -32 -33 -33 -33 -33 -33 -33 -33 -33 -33 -33 -33 -33 -33 -32 -31 -30 -31 -31
-21 -21 -22 -22 -23 -23 -23 -24 -24 -25 -27 -29 -31 -32 -33 -33 -33 -33 -33 -33 -32 -32 -32 -32 -33 -33 -33 -33 -33 -33 -32 -33 -33 -34 -34 -34 -34 -33 -33 -33 -32 -32 -32
-21 -22 -22 -23 -23 -23 -24 -24 -26 -28 -29 -31 -32 -32 -33 -33 -33 -33 -33 -33 -32 -32 -33 -33 -33 -33 -33 -33 -32 -32 -32 -33 -34 -35 -35 -35 -35 -34 -34 -34 -33 -32 -32
-22 -22 -23 -23 -24 -24 -25 -26 -27 -29 -30 -32 -32 -33 -33 -33 -33 -33 -33 -33 -32 -32 -33 -33 -33 -33 -33 -33 -32 -33 -33 -34 -35 -36 -36 -36 -36 -36 -35 -34 -34 -32 -32
-22 -23 -23 -24 -25 -24 -26 -27 -28 -30 -32 -32 -33 -33 -33 -33 -33 -33 -32 -32 -32 -33 -33 -33 -33 -33 -33 -32 -33 -33 -34 -35 -36 -37 -37 -37 -37 -36 -36 -35 -34 -33 -32
-23 -24 -24 -25 -25 -25 -28 -28 -29 -32 -32 -33 -33 -33 -34 -33 -33 -33 -32 -33 -33 -33 -33 -34 -33 -33 -33 -33 -33 -33 -35 -36 -37 -37 -37 -37 -37 -37 -36 -35 -35 -34 -33
-24 -24 -25 -25 -26 -27 -28 -29 -31 -32 -33 -33 -34 -34 -34 -33 -33 -33 -33 -33 -33 -33 -34 -34 -33 -33 -33 -33 -33 -34 -35 -36 -37 -37 -37 -37 -37 -37 -36 -36 -35 -34 -33
-24 -25 -26 -26 -27 -28 -29 -31 -32 -33 -33 -34 -34 -34 -34 -33 -33 -33 -33 -33 -34 -34 -34 -34 -33 -33 -33 -34 -34 -34 -35 -36 -36 -37 -37 -37 -37 -37 -37 -36 -36 -35 -33

GFSMA_500_temp_036.txt.gz
Temp
-15 -15 -16 -16 -15 -15 -14 -14 -14 -14 -15 -15 -15 -16 -16 -17 -17 -17 -17 -18 -18 -17 -17 -17 -17 -17 -17 -17 -16 -16 -16 -16 -16 -16 -16 -16 -16 -15 -16 -15 -15 -14 -14
-15 -15 -15 -15 -15 -15 -15 -15 -15 -15 -16 -16 -16 -17 -17 -17 -17 -17 -17 -17 -17 -17 -17 -17 -17 -17 -17 -17 -17 -17 -16 -16 -16 -16 -16 -16 -16 -16 -15 -16 -15 -15 -15
-16 -16 -16 -15 -15 -16 -16 -16 -16 -16 -16 -17 -17 -17 -17 -17 -17 -17 -17 -17 -17 -17 -17 -17 -17 -17 -17 -17 -16 -16 -16 -16 -16 -16 -16 -16 -16 -16 -16 -16 -16 -15 -15
-15 -15 -15 -16 -16 -16 -17 -17 -17 -17 -17 -17 -17 -17 -17 -17 -17 -17 -17 -17 -17 -17 -17 -17 -17 -17 -17 -17 -17 -16 -16 -16 -16 -16 -16 -16 -16 -16 -16 -16 -16 -16 -16
-14 -15 -16 -16 -16 -16 -16 -17 -18 -18 -18 -18 -18 -18 -18 -18 -18 -18 -18 -18 -18 -18 -18 -18 -17 -17 -17 -17 -17 -17 -16 -16 -16 -16 -15 -16 -16 -16 -16 -16 -16 -16 -16
-15 -15 -16 -16 -16 -16 -17 -17 -18 -18 -18 -18 -18 -19 -19 -19 -19 -19 -19 -19 -19 -19 -18 -18 -18 -18 -17 -17 -17 -17 -17 -17 -16 -16 -16 -16 -15 -15 -15 -16 -16 -16 -16
-15 -16 -15 -16 -17 -17 -17 -18 -18 -18 -19 -19 -19 -19 -19 -19 -19 -19 -19 -19 -19 -18 -18 -18 -18 -18 -18 -18 -18 -17 -17 -17 -17 -17 -16 -16 -16 -16 -16 -15 -15 -16 -16
-15 -15 -16 -16 -17 -18 -18 -18 -18 -18 -19 -19 -19 -19 -19 -19 -19 -19 -19 -19 -19 -19 -19 -19 -19 -19 -18 -18 -18 -18 -18 -18 -17 -17 -17 -17 -17 -16 -16 -16 -15 -16 -15
-15 -16 -17 -17 -18 -18 -18 -18 -18 -18 -19 -19 -19 -19 -19 -19 -19 -19 -20 -20 -20 -20 -20 -20 -20 -20 -20 -20 -20 -19 -19 -19 -18 -18 -18 -18 -17 -17 -17 -16 -16 -16 -16
-16 -17 -17 -17 -18 -18 -18 -19 -19 -19 -19 -19 -20 -20 -20 -19 -19 -19 -20 -20 -20 -21 -21 -21 -21 -22 -22 -22 -22 -23 -22 -21 -20 -19 -19 -19 -18 -17 -17 -17 -16 -16 -17
-16 -17 -18 -18 -18 -18 -18 -19 -19 -20 -20 -20 -20 -20 -20 -20 -21 -21 -21 -21 -21 -21 -22 -23 -24 -25 -26 -27 -27 -27 -27 -26 -26 -25 -25 -24 -22 -20 -19 -18 -17 -17 -17
-17 -17 -17 -18 -18 -18 -19 -19 -20 -20 -20 -20 -20 -20 -21 -21 -21 -21 -21 -21 -22 -23 -26 -27 -28 -29 -30 -30 -30 -29 -29 -29 -29 -28 -28 -28 -27 -26 -24 -21 -20 -19 -18
-17 -18 -18 -18 -19 -19 -20 -20 -20 -20 -20 -21 -21 -22 -22 -22 -22 -22 -22 -23 -25 -26 -28 -30 -31 -32 -31 -31 -31 -30 -30 -30 -30 -29 -29 -28 -28 -28 -27 -26 -24 -22 -20
-18 -18 -19 -19 -20 -20 -20 -20 -21 -21 -21 -21 -22 -22 -22 -23 -23 -23 -25 -27 -28 -28 -30 -31 -32 -32 -32 -31 -31 -31 -30 -30 -30 -30 -29 -29 -29 -29 -28 -28 -27 -26 -24
-19 -19 -19 -20 -20 -20 -20 -20 -21 -21 -22 -22 -22 -23 -23 -24 -25 -26 -28 -29 -30 -30 -30 -31 -32 -32 -32 -31 -31 -31 -31 -31 -30 -30 -30 -30 -29 -29 -29 -28 -28 -28 -27
-19 -20 -20 -20 -20 -20 -20 -21 -21 -22 -22 -23 -23 -23 -24 -25 -26 -28 -29 -31 -32 -32 -31 -32 -32 -32 -32 -31 -31 -31 -31 -31 -31 -31 -31 -31 -31 -30 -30 -29 -29 -29 -28
-20 -20 -20 -20 -20 -21 -21 -21 -22 -22 -23 -23 -24 -24 -24 -26 -28 -30 -31 -32 -33 -33 -32 -32 -32 -32 -32 -31 -31 -32 -32 -32 -32 -32 -32 -32 -32 -32 -31 -30 -30 -30 -29
-20 -20 -20 -20 -21 -21 -21 -22 -22 -23 -24 -24 -24 -24 -26 -28 -30 -31 -32 -33 -33 -33 -33 -32 -32 -32 -31 -32 -32 -32 -32 -33 -33 -32 -32 -32 -32 -32 -32 -32 -31 -30 -30
-20 -20 -20 -21 -21 -22 -22 -22 -23 -23 -24 -24 -25 -25 -27 -30 -31 -32 -33 -33 -33 -33 -33 -32 -32 -32 -32 -32 -32 -33 -33 -32 -32 -32 -32 -31 -31 -31 -32 -32 -32 -32 -31
-20 -21 -21 -21 -22 -22 -22 -23 -24 -24 -24 -25 -26 -27 -29 -31 -32 -33 -33 -33 -33 -32 -32 -32 -32 -32 -32 -33 -33 -33 -32 -32 -32 -32 -31 -31 -31 -32 -32 -32 -33 -33 -32
-21 -21 -22 -22 -22 -22 -23 -24 -24 -24 -24 -25 -27 -30 -31 -32 -32 -33 -33 -33 -33 -32 -32 -32 -32 -32 -33 -33 -33 -33 -32 -32 -32 -31 -31 -33 -33 -33 -34 -34 -33 -33 -33
-21 -22 -22 -22 -22 -23 -24 -24 -24 -25 -26 -28 -29 -31 -32 -32 -33 -33 -33 -33 -33 -32 -32 -32 -32 -33 -33 -33 -33 -33 -32 -32 -32 -33 -33 -34 -35 -35 -35 -36 -35 -34 -33
-21 -22 -22 -23 -23 -24 -25 -25 -25 -26 -27 -29 -30 -32 -32 -33 -33 -33 -33 -33 -32 -32 -32 -32 -33 -33 -34 -34 -33 -33 -33 -32 -33 -34 -34 -35 -36 -36 -37 -37 -36 -35 -34
-22 -22 -23 -24 -24 -24 -26 -26 -27 -27 -29 -30 -31 -32 -33 -33 -33 -33 -33 -33 -32 -32 -33 -33 -33 -34 -34 -33 -33 -33 -33 -33 -34 -35 -35 -36 -37 -37 -37 -37 -37 -36 -35
-22 -23 -25 -25 -25 -25 -26 -27 -28 -29 -30 -31 -32 -33 -33 -34 -34 -34 -33 -33 -33 -33 -33 -34 -34 -34 -34 -33 -33 -34 -33 -34 -35 -35 -36 -36 -37 -37 -37 -37 -37 -36 -36
-24 -25 -25 -25 -26 -27 -27 -29 -29 -30 -31 -32 -33 -33 -34 -34 -34 -34 -34 -33 -33 -33 -33 -34 -34 -34 -34 -34 -34 -34 -34 -34 -35 -36 -36 -36 -37 -37 -37 -37 -37 -37 -36

GFSMA_500_temp_039.txt.gz
Temp
-14 -15 -15 -14 -14 -15 -15 -15 -14 -14 -15 -15 -15 -16 -16 -16 -16 -16 -16 -16 -17 -17 -17 -17 -17 -17 -17 -17 -17 -17 -17 -17 -16 -16 -16 -16 -16 -16 -16 -16 -16 -15 -15
-14 -15 -15 -15 -15 -15 -15 -15 -15 -15 -16 -16 -16 -16 -16 -16 -16 -17 -17 -17 -17 -17 -17 -17 -17 -18 -18 -18 -17 -17 -17 -17 -17 -17 -16 -16 -16 -16 -16 -16 -16 -16 -16
-15 -15 -15 -15 -15 -15 -15 -16 -16 -16 -16 -16 -17 -17 -17 -17 -18 -18 -18 -18 -17 -17 -17 -17 -17 -17 -17 -18 -17 -17 -17 -17 -17 -17 -17 -16 -16 -16 -16 -16 -16 -16 -16
-15 -15 -15 -15 -15 -15 -16 -16 -16 -16 -16 -16 -17 -17 -17 -17 -18 -18 -18 -18 -18 -18 -18 -18 -17 -17 -17 -18 -18 -17 -17 -17 -17 -17 -17 -17 -16 -16 -16 -16 -16 -16 -16
-15 -15 -15 -15 -16 -16 -16 -16 -17 -17 -17 -17 -18 -18 -18 -18 -19 -19 -19 -19 -19 -19 -19 -19 -19 -18 -18 -18 -18 -18 -18 -18 -17 -17 -17 -17 -17 -17 -16 -16 -16 -16 -16
-15 -15 -16 -16 -16 -16 -16 -16 -17 -17 -18 -18 -18 -18 -19 -19 -19 -19 -19 -19 -19 -19 -19 -19 -19 -19 -18 -18 -18 -18 -18 -18 -18 -18 -18 -17 -17 -17 -17 -17 -16 -16 -16
-15 -15 -15 -16 -16 -16 -16 -17 -17 -17 -17 -18 -18 -18 -19 -19 -19 -19 -19 -19 -19 -19 -19 -19 -19 -19 -19 -19 -19 -19 -19 -18 -18 -18 -18 -18 -18 -17 -17 -17 -17 -17 -17
-15 -15 -15 -16 -16 -17 -17 -17 -17 -17 -18 -18 -18 -18 -18 -19 -19 -19 -19 -19 -19 -19 -20 -20 -20 -20 -20 -20 -20 -20 -20 -20 -19 -18 -18 -18 -17 -18 -17 -17 -17 -17 -17
-15 -15 -16 -16 -17 -17 -18 -18 -18 -18 -18 -18 -19 -19 -18 -18 -18 -19 -19 -20 -21 -21 -21 -21 -21 -21 -21 -21 -21 -21 -21 -21 -20 -20 -19 -19 -18 -18 -17 -17 -17 -17 -17
-15 -16 -16 -17 -17 -17 -18 -18 -18 -18 -18 -19 -19 -19 -19 -20 -20 -20 -20 -20 -21 -21 -21 -22 -22 -22 -22 -23 -24 -24 -24 -23 -23 -22 -22 -21 -21 -20 -19 -18 -18 -17 -17
-16 -16 -17 -17 -17 -18 -18 -18 -19 -19 -19 -19 -19 -20 -20 -20 -21 -21 -20 -21 -21 -22 -22 -22 -22 -23 -25 -26 -27 -27 -27 -26 -26 -26 -26 -25 -25 -24 -21 -20 -19 -18 -17
-16 -17 -17 -17 -17 -18 -19 -19 -19 -19 -19 -19 -20 -20 -21 -20 -21 -21 -21 -21 -22 -22 -22 -24 -26 -28 -28 -29 -29 -29 -30 -30 -29 -29 -28 -29 -28 -28 -27 -25 -22 -21 -19
-17 -17 -18 -18 -19 -20 -20 -20 -20 -20 -20 -20 -20 -21 -21 -21 -21 -22 -22 -23 -22 -22 -23 -26 -29 -30 -31 -31 -31 -32 -32 -31 -30 -30 -29 -29 -29 -29 -29 -28 -27 -25 -23
-18 -18 -19 -19 -20 -20 -20 -20 -20 -20 -20 -21 -21 -22 -21 -22 -22 -23 -23 -23 -23 -23 -26 -29 -31 -32 -32 -32 -32 -32 -32 -31 -30 -30 -30 -29 -29 -29 -29 -29 -28 -28 -27
-19 -19 -19 -20 -20 -20 -20 -20 -20 -21 -21 -22 -22 -22 -22 -23 -23 -23 -23 -24 -26 -27 -28 -30 -31 -32 -33 -32 -32 -32 -31 -31 -30 -30 -30 -30 -30 -30 -29 -29 -29 -29 -28
-19 -19 -20 -20 -20 -20 -20 -20 -21 -21 -21 -22 -22 -22 -23 -23 -23 -24 -24 -26 -28 -30 -31 -32 -32 -32 -32 -32 -32 -32 -31 -31 -31 -30 -31 -31 -30 -30 -30 -30 -30 -29 -29
-20 -19 -20 -20 -20 -20 -21 -20 -21 -21 -22 -22 -23 -23 -24 -24 -24 -24 -26 -28 -30 -32 -32 -32 -32 -32 -32 -32 -32 -32 -31 -31 -31 -31 -31 -32 -32 -32 -32 -32 -31 -30 -30
-20 -20 -20 -20 -21 -21 -21 -21 -22 -22 -23 -23 -23 -24 -24 -25 -25 -27 -28 -31 -31 -32 -32 -31 -32 -33 -32 -32 -32 -31 -32 -32 -32 -32 -32 -32 -32 -32 -32 -32 -31 -31 -31
-19 -20 -21 -21 -21 -21 -21 -22 -22 -23 -23 -24 -24 -24 -25 -25 -26 -28 -31 -32 -32 -32 -32 -32 -32 -32 -32 -32 -32 -32 -32 -32 -33 -33 -32 -32 -32 -31 -31 -30 -30 -30 -31
-20 -20 -21 -21 -21 -21 -22 -22 -23 -23 -24 -25 -24 -25 -26 -26 -28 -30 -31 -32 -33 -32 -32 -32 -32 -32 -32 -32 -32 -32 -32 -33 -33 -32 -32 -31 -31 -31 -30 -30 -30 -30 -30
-20 -21 -21 -21 -22 -22 -23 -23 -23 -24 -25 -24 -25 -26 -26 -28 -30 -31 -32 -33 -33 -33 -32 -32 -32 -32 -32 -33 -33 -33 -33 -33 -33 -32 -32 -32 -31 -30 -31 -31 -31 -31 -31
-21 -21 -21 -22 -22 -23 -24 -24 -25 -25 -25 -25 -26 -27 -28 -30 -31 -32 -33 -33 -33 -32 -32 -32 -32 -32 -33 -33 -33 -33 -33 -33 -33 -32 -31 -32 -31 -32 -33 -33 -34 -34 -34
-21 -22 -22 -22 -23 -24 -25 -25 -25 -26 -27 -27 -28 -29 -30 -31 -32 -33 -33 -33 -33 -32 -32 -31 -32 -32 -33 -33 -33 -34 -33 -33 -33 -33 -32 -33 -33 -34 -34 -35 -36 -36 -36
-22 -22 -22 -23 -24 -25 -25 -25 -26 -28 -28 -28 -29 -30 -31 -32 -33 -33 -34 -34 -34 -33 -33 -32 -32 -33 -33 -33 -34 -34 -33 -33 -34 -33 -32 -35 -34 -35 -36 -36 -37 -37 -37
-22 -23 -24 -25 -25 -25 -25 -27 -28 -28 -29 -30 -31 -31 -32 -33 -33 -34 -34 -34 -34 -34 -33 -33 -33 -33 -33 -34 -34 -34 -33 -33 -34 -34 -33 -35 -35 -35 -36 -37 -37 -37 -37
-24 -25 -25 -26 -25 -26 -28 -29 -29 -29 -30 -31 -31 -32 -33 -34 -34 -34 -34 -34 -34 -34 -33 -33 -33 -33 -34 -34 -34 -34 -34 -34 -34 -35 -34 -35 -35 -36 -37 -37 -37 -37 -37

GFSMA_500_temp_042.txt.gz
Temp
-14 -14 -14 -14 -14 -14 -14 -15 -14 -14 -14 -14 -14 -14 -15 -15 -15 -16 -16 -16 -16 -16 -16 -17 -17 -17 -18 -18 -18 -18 -18 -17 -17 -17 -17 -17 -17 -17 -17 -16 -17 -17 -16
-14 -14 -14 -14 -14 -15 -15 -14 -14 -15 -15 -15 -15 -15 -16 -16 -16 -17 -16 -17 -17 -17 -17 -17 -17 -18 -18 -18 -18 -18 -18 -18 -18 -17 -18 -17 -17 -17 -17 -17 -16 -16 -16
-14 -14 -14 -14 -14 -14 -14 -14 -15 -16 -16 -16 -16 -16 -16 -16 -17 -17 -17 -17 -17 -18 -17 -18 -18 -18 -18 -18 -18 -18 -18 -18 -18 -18 -18 -18 -18 -18 -17 -17 -17 -16 -16
-14 -14 -14 -15 -15 -15 -15 -16 -16 -16 -16 -17 -17 -17 -17 -17 -17 -18 -18 -18 -18 -18 -18 -18 -18 -18 -18 -18 -18 -18 -18 -18 -18 -18 -17 -18 -18 -18 -18 -17 -17 -17 -17
-14 -15 -15 -15 -15 -16 -16 -16 -16 -17 -17 -17 -17 -17 -18 -18 -18 -18 -19 -19 -19 -19 -19 -19 -19 -18 -18 -18 -18 -18 -18 -18 -18 -18 -18 -18 -17 -18 -18 -18 -18 -17 -17
-15 -15 -16 -16 -16 -16 -16 -16 -17 -17 -17 -18 -18 -18 -18 -18 -19 -19 -19 -19 -19 -19 -19 -19 -19 -19 -18 -18 -19 -19 -19 -19 -19 -18 -18 -18 -18 -18 -18 -18 -18 -18 -18
-15 -16 -16 -16 -16 -16 -16 -17 -17 -18 -18 -18 -18 -18 -18 -19 -19 -19 -19 -19 -20 -20 -19 -19 -19 -20 -20 -20 -20 -20 -20 -20 -20 -20 -19 -19 -17 -18 -18 -18 -18 -18 -18
-15 -16 -16 -16 -16 -17 -17 -17 -17 -18 -18 -18 -19 -19 -19 -19 -19 -19 -20 -20 -20 -20 -20 -21 -21 -21 -21 -21 -21 -21 -21 -21 -21 -21 -21 -21 -20 -18 -18 -18 -18 -18 -18
-16 -16 -16 -17 -17 -17 -17 -17 -18 -18 -18 -19 -19 -19 -19 -19 -19 -20 -20 -20 -21 -21 -21 -21 -22 -22 -22 -22 -22 -22 -21 -21 -22 -22 -22 -22 -22 -21 -20 -19 -18 -18 -18
-16 -16 -17 -17 -17 -18 -18 -18 -19 -19 -20 -20 -19 -19 -20 -19 -19 -19 -19 -20 -20 -21 -21 -22 -22 -22 -22 -22 -22 -22 -22 -23 -23 -24 -24 -24 -24 -23 -22 -21 -19 -19 -18
-17 -17 -17 -18 -18 -18 -18 -19 -19 -19 -20 -20 -20 -19 -19 -20 -20 -20 -20 -20 -21 -21 -21 -22 -22 -22 -23 -22 -23 -24 -26 -27 -27 -27 -27 -26 -26 -26 -25 -24 -22 -21 -20
-17 -17 -18 -18 -18 -18 -19 -19 -19 -19 -19 -20 -19 -20 -20 -20 -20 -20 -20 -21 -21 -22 -22 -23 -23 -23 -23 -23 -25 -28 -29 -30 -30 -29 -29 -29 -29 -29 -28 -27 -26 -24 -23
-17 -17 -18 -19 -19 -19 -19 -19 -19 -19 -20 -20 -20 -20 -20 -21 -21 -21 -21 -22 -22 -23 -23 -23 -23 -24 -25 -27 -29 -30 -31 -32 -32 -31 -31 -30 -30 -30 -30 -29 -28 -27 -26
-18 -19 -19 -19 -19 -20 -19 -20 -20 -20 -20 -20 -21 -21 -21 -21 -22 -22 -23 -23 -23 -24 -23 -23 -24 -25 -28 -30 -31 -32 -32 -32 -32 -31 -31 -31 -30 -30 -30 -29 -29 -29 -28
-19 -20 -19 -20 -20 -20 -20 -20 -20 -20 -21 -21 -21 -21 -21 -22 -22 -23 -24 -24 -24 -23 -23 -24 -26 -28 -30 -32 -32 -32 -32 -32 -32 -31 -31 -31 -30 -30 -30 -30 -29 -29 -29
-19 -19 -19 -20 -20 -20 -20 -20 -20 -21 -21 -21 -21 -21 -22 -22 -23 -24 -25 -24 -24 -25 -25 -26 -28 -30 -31 -32 -32 -32 -31 -31 -31 -31 -31 -31 -30 -30 -30 -30 -30 -29 -29
-20 -20 -20 -20 -20 -21 -21 -20 -21 -21 -21 -21 -21 -22 -23 -24 -24 -25 -25 -26 -26 -26 -27 -28 -30 -31 -32 -31 -31 -31 -31 -31 -31 -31 -31 -31 -31 -30 -30 -30 -30 -30 -30
-19 -20 -20 -20 -20 -21 -21 -21 -21 -21 -22 -22 -22 -23 -24 -25 -25 -25 -26 -26 -27 -28 -29 -31 -32 -32 -32 -32 -31 -31 -31 -31 -31 -31 -31 -31 -31 -31 -31 -31 -31 -31 -31
-20 -20 -20 -20 -20 -21 -21 -21 -22 -22 -22 -23 -24 -25 -25 -25 -25 -26 -27 -27 -29 -30 -31 -32 -32 -32 -32 -31 -31 -31 -31 -32 -32 -32 -32 -32 -32 -32 -32 -32 -32 -32 -31
-20 -20 -20 -21 -21 -21 -22 -22 -22 -23 -23 -24 -25 -25 -25 -26 -27 -27 -28 -29 -30 -31 -32 -33 -33 -32 -32 -32 -31 -31 -32 -32 -33 -33 -33 -33 -33 -32 -32 -32 -31 -31 -30
-20 -20 -21 -21 -22 -22 -22 -23 -23 -24 -25 -26 -26 -26 -26 -27 -27 -28 -29 -30 -32 -32 -33 -33 -33 -33 -32 -32 -32 -32 -32 -33 -34 -33 -33 -33 -32 -32 -32 -31 -31 -30 -30
-21 -21 -21 -22 -23 -23 -23 -24 -25 -26 -26 -26 -26 -27 -28 -28 -29 -30 -31 -32 -33 -33 -34 -34 -33 -33 -32 -32 -32 -32 -33 -33 -34 -33 -33 -33 -32 -32 -32 -31 -31 -31 -30
-21 -22 -22 -23 -23 -24 -24 -25 -26 -26 -26 -27 -28 -29 -29 -30 -31 -32 -32 -33 -34 -34 -34 -33 -33 -33 -32 -32 -32 -33 -33 -33 -33 -33 -33 -34 -32 -32 -32 -33 -33 -33 -33
-22 -22 -23 -24 -25 -25 -26 -26 -26 -27 -28 -29 -29 -30 -31 -31 -32 -32 -33 -34 -34 -35 -34 -34 -34 -33 -33 -32 -33 -33 -33 -34 -33 -33 -33 -34 -33 -33 -33 -34 -34 -34 -35
-23 -24 -25 -25 -26 -27 -27 -28 -29 -29 -29 -30 -31 -31 -31 -32 -33 -33 -34 -34 -35 -35 -35 -34 -34 -33 -33 -33 -33 -33 -34 -34 -34 -33 -33 -34 -34 -34 -35 -35 -35 -35 -36
-24 -24 -27 -27 -27 -28 -29 -30 -30 -30 -31 -31 -32 -32 -32 -33 -33 -34 -34 -35 -35 -35 -35 -35 -34 -34 -33 -33 -33 -33 -34 -34 -34 -34 -34 -34 -34 -34 -36 -35 -35 -36 -37

GFSMA_500_temp_045.txt.gz
Temp
-14 -14 -15 -15 -15 -15 -14 -14 -14 -14 -14 -14 -14 -14 -14 -15 -15 -15 -15 -15 -15 -15 -15 -16 -16 -16 -17 -17 -18 -18 -17 -17 -17 -18 -18 -18 -17 -17 -17 -17 -17 -17 -17
-14 -14 -14 -14 -15 -15 -14 -14 -14 -14 -14 -14 -15 -15 -15 -15 -15 -16 -16 -16 -16 -16 -16 -16 -17 -17 -17 -17 -18 -18 -18 -18 -18 -18 -18 -18 -18 -18 -18 -17 -17 -17 -17
-15 -15 -14 -14 -14 -14 -14 -14 -15 -15 -15 -15 -15 -16 -16 -16 -16 -17 -17 -17 -17 -17 -17 -17 -17 -17 -18 -18 -18 -18 -18 -18 -18 -18 -18 -18 -18 -18 -18 -18 -18 -17 -17
-15 -14 -14 -14 -14 -15 -15 -15 -15 -15 -16 -16 -16 -17 -17 -17 -17 -17 -17 -18 -18 -18 -18 -18 -18 -18 -18 -18 -18 -18 -18 -18 -18 -18 -18 -18 -18 -18 -19 -19 -18 -18 -18
-14 -14 -15 -15 -15 -15 -15 -15 -16 -16 -16 -17 -17 -18 -18 -18 -18 -18 -18 -18 -18 -19 -19 -19 -19 -19 -18 -18 -18 -18 -18 -18 -18 -18 -17 -17 -18 -18 -18 -19 -19 -18 -18
-15 -15 -15 -15 -15 -15 -16 -16 -16 -17 -17 -17 -18 -18 -18 -19 -19 -19 -19 -19 -19 -19 -19 -19 -18 -18 -18 -18 -18 -18 -18 -18 -18 -18 -18 -18 -17 -17 -17 -18 -19 -19 -19
-15 -15 -15 -15 -16 -16 -16 -16 -17 -17 -17 -18 -18 -19 -19 -19 -20 -20 -20 -20 -20 -20 -19 -19 -19 -19 -20 -20 -20 -20 -20 -20 -20 -20 -20 -20 -20 -19 -18 -17 -18 -18 -19
-15 -15 -16 -16 -16 -16 -17 -17 -17 -18 -18 -18 -19 -19 -19 -20 -20 -20 -20 -20 -20 -20 -20 -20 -20 -20 -20 -21 -21 -21 -21 -21 -21 -22 -22 -21 -21 -21 -20 -19 -18 -18 -18
-16 -16 -16 -16 -17 -17 -17 -17 -18 -18 -19 -19 -19 -19 -19 -19 -20 -20 -20 -20 -20 -20 -20 -21 -21 -21 -21 -21 -22 -22 -22 -22 -22 -22 -22 -22 -22 -22 -22 -22 -21 -19 -19
-16 -16 -16 -17 -17 -17 -18 -18 -19 -19 -20 -20 -20 -20 -20 -20 -20 -20 -20 -20 -20 -20 -21 -21 -21 -21 -22 -22 -23 -23 -23 -23 -23 -22 -23 -23 -23 -23 -24 -24 -23 -21 -20
-16 -16 -17 -17 -18 -18 -19 -19 -19 -19 -19 -20 -20 -20 -20 -20 -20 -20 -20 -20 -20 -21 -21 -21 -21 -22 -22 -22 -23 -24 -23 -23 -24 -24 -24 -25 -26 -26 -27 -27 -26 -25 -24
-16 -17 -17 -18 -18 -19 -19 -19 -19 -20 -20 -20 -20 -20 -21 -20 -20 -20 -20 -21 -21 -21 -21 -22 -22 -23 -24 -24 -24 -24 -24 -24 -25 -26 -28 -28 -29 -29 -30 -30 -29 -28 -27
-17 -17 -18 -19 -19 -20 -20 -19 -20 -20 -20 -20 -21 -21 -21 -20 -20 -21 -21 -21 -21 -21 -22 -23 -23 -24 -25 -24 -24 -25 -25 -26 -28 -29 -30 -30 -31 -31 -31 -31 -31 -30 -29
-18 -18 -19 -19 -20 -19 -20 -20 -20 -20 -21 -21 -21 -21 -21 -21 -21 -21 -22 -22 -22 -23 -23 -23 -24 -25 -25 -25 -25 -26 -27 -28 -30 -31 -31 -31 -31 -31 -31 -31 -31 -30 -30
-18 -17 -19 -19 -19 -20 -20 -20 -20 -20 -20 -20 -20 -21 -21 -22 -22 -23 -23 -23 -23 -23 -24 -25 -25 -25 -25 -26 -27 -28 -29 -30 -31 -31 -31 -31 -31 -30 -30 -30 -30 -30 -30
-19 -19 -19 -20 -20 -20 -20 -20 -20 -21 -21 -21 -21 -22 -22 -22 -23 -23 -24 -25 -25 -25 -26 -25 -25 -26 -26 -27 -28 -30 -31 -31 -31 -31 -31 -31 -31 -31 -30 -30 -30 -30 -30
-19 -20 -20 -19 -19 -20 -20 -21 -21 -21 -21 -22 -22 -22 -22 -23 -23 -24 -25 -26 -26 -26 -26 -26 -26 -27 -28 -29 -30 -31 -31 -31 -31 -31 -30 -30 -30 -31 -30 -30 -30 -30 -30
-19 -20 -20 -20 -20 -21 -21 -21 -21 -21 -22 -22 -22 -23 -24 -24 -25 -26 -27 -27 -26 -26 -27 -27 -29 -30 -31 -31 -32 -32 -32 -31 -31 -31 -30 -31 -31 -32 -31 -31 -31 -31 -31
-19 -20 -20 -21 -21 -21 -21 -21 -21 -22 -22 -23 -24 -24 -25 -26 -27 -27 -27 -27 -28 -28 -29 -30 -31 -32 -32 -32 -32 -32 -32 -31 -31 -30 -31 -32 -32 -32 -32 -32 -32 -32 -31
-20 -20 -21 -21 -21 -21 -22 -22 -22 -23 -23 -23 -25 -26 -27 -27 -27 -27 -28 -29 -30 -31 -31 -31 -32 -33 -33 -33 -33 -32 -32 -31 -31 -31 -32 -33 -33 -33 -33 -33 -33 -32 -32
-20 -20 -21 -21 -21 -22 -23 -23 -23 -23 -24 -25 -27 -27 -27 -28 -29 -29 -30 -31 -31 -31 -32 -33 -33 -33 -34 -34 -33 -33 -32 -32 -32 -31 -33 -33 -33 -33 -33 -32 -32 -32 -32
-20 -21 -21 -22 -22 -23 -23 -23 -24 -25 -25 -28 -28 -29 -29 -30 -30 -30 -31 -32 -32 -32 -32 -33 -34 -34 -34 -34 -33 -33 -32 -32 -33 -32 -33 -34 -33 -33 -33 -33 -33 -32 -32
-21 -21 -21 -22 -23 -23 -23 -24 -25 -26 -29 -29 -29 -30 -30 -30 -31 -32 -32 -32 -33 -33 -33 -34 -34 -34 -35 -34 -34 -33 -33 -33 -33 -33 -33 -34 -33 -33 -33 -33 -32 -32 -32
-22 -22 -22 -22 -23 -24 -24 -25 -27 -29 -30 -30 -30 -30 -31 -31 -32 -32 -33 -33 -33 -34 -34 -34 -35 -35 -35 -34 -34 -33 -33 -33 -33 -33 -33 -34 -33 -34 -34 -33 -32 -33 -33
-22 -22 -23 -23 -24 -24 -26 -28 -29 -30 -30 -30 -31 -31 -31 -32 -33 -33 -33 -33 -34 -34 -34 -35 -35 -35 -35 -35 -34 -34 -33 -34 -34 -34 -33 -34 -34 -34 -34 -33 -33 -33 -34
-23 -24 -24 -24 -25 -26 -28 -29 -30 -30 -30 -31 -31 -31 -32 -32 -33 -33 -33 -34 -34 -35 -35 -35 -35 -35 -35 -35 -34 -34 -34 -34 -34 -34 -33 -34 -34 -33 -34 -35 -34 -34 -35

GFSMA_500_temp_048.txt.gz
Temp
-15 -15 -15 -15 -15 -14 -14 -14 -14 -14 -14 -14 -14 -15 -15 -15 -15 -15 -15 -15 -15 -15 -15 -16 -16 -16 -16 -16 -16 -16 -17 -17 -17 -17 -18 -18 -18 -18 -18 -18 -18 -17 -17
-15 -15 -15 -15 -14 -14 -14 -14 -14 -14 -15 -15 -15 -15 -15 -15 -15 -16 -16 -16 -16 -16 -16 -16 -16 -16 -16 -17 -17 -17 -17 -18 -18 -17 -17 -17 -17 -18 -18 -18 -18 -18 -17
-15 -15 -15 -15 -14 -14 -14 -14 -15 -15 -15 -15 -15 -15 -15 -15 -16 -16 -16 -17 -17 -17 -17 -17 -17 -17 -17 -17 -18 -18 -18 -18 -18 -18 -18 -18 -18 -18 -18 -17 -18 -18 -18
-15 -15 -15 -14 -14 -15 -15 -15 -15 -15 -15 -15 -15 -16 -16 -16 -16 -17 -17 -18 -18 -18 -18 -18 -18 -18 -18 -18 -18 -18 -18 -18 -18 -18 -18 -18 -18 -18 -18 -18 -18 -17 -17
-15 -15 -15 -15 -15 -15 -15 -15 -15 -15 -15 -16 -16 -16 -17 -17 -18 -18 -18 -18 -18 -18 -18 -19 -19 -19 -19 -19 -19 -18 -18 -18 -18 -18 -18 -17 -17 -18 -18 -18 -19 -19 -19
-15 -15 -15 -15 -15 -15 -15 -15 -15 -16 -16 -16 -17 -17 -18 -18 -18 -18 -19 -19 -19 -19 -19 -19 -19 -19 -19 -19 -19 -19 -19 -18 -18 -18 -18 -18 -18 -18 -18 -18 -18 -18 -18
-15 -15 -15 -15 -15 -15 -15 -15 -16 -16 -17 -17 -18 -18 -18 -19 -19 -19 -19 -19 -20 -20 -20 -20 -20 -19 -19 -19 -19 -19 -20 -20 -20 -20 -20 -19 -19 -19 -19 -19 -19 -18 -18
-15 -15 -15 -15 -15 -15 -16 -16 -17 -17 -18 -18 -18 -19 -19 -19 -19 -20 -20 -20 -21 -20 -20 -20 -20 -20 -20 -20 -20 -20 -20 -20 -20 -20 -20 -21 -21 -20 -21 -21 -21 -20 -20
-15 -15 -15 -15 -16 -16 -16 -17 -17 -18 -18 -19 -19 -19 -19 -19 -20 -20 -20 -20 -21 -21 -21 -20 -20 -21 -20 -21 -21 -21 -21 -21 -22 -22 -22 -21 -22 -22 -22 -22 -22 -22 -22
-15 -15 -16 -16 -16 -17 -17 -18 -18 -19 -19 -19 -20 -20 -20 -20 -20 -20 -20 -20 -20 -21 -21 -21 -21 -21 -21 -22 -22 -22 -22 -23 -23 -23 -23 -23 -23 -23 -23 -23 -23 -23 -23
-16 -15 -16 -16 -17 -18 -18 -19 -19 -20 -20 -20 -20 -20 -20 -20 -20 -20 -20 -20 -20 -21 -21 -21 -22 -22 -22 -22 -22 -23 -23 -23 -23 -23 -24 -24 -24 -24 -24 -24 -24 -24 -25
-16 -16 -17 -17 -18 -18 -19 -19 -19 -20 -20 -19 -20 -20 -20 -20 -20 -20 -20 -21 -21 -21 -21 -22 -22 -22 -23 -23 -24 -24 -24 -24 -25 -25 -25 -25 -25 -25 -25 -26 -27 -27 -27
-16 -17 -18 -18 -18 -19 -19 -19 -19 -19 -19 -20 -20 -20 -20 -20 -21 -21 -21 -21 -21 -21 -22 -22 -23 -23 -24 -24 -25 -25 -26 -25 -26 -26 -25 -26 -26 -27 -28 -28 -29 -29 -29
-18 -18 -18 -17 -18 -18 -19 -19 -20 -20 -20 -20 -20 -20 -21 -21 -21 -22 -22 -22 -22 -23 -23 -24 -24 -25 -25 -26 -26 -26 -27 -27 -26 -26 -27 -28 -29 -29 -30 -29 -29 -29 -30
-18 -18 -18 -18 -18 -19 -19 -20 -20 -20 -20 -20 -20 -21 -21 -22 -22 -22 -23 -23 -24 -24 -24 -26 -27 -27 -27 -27 -27 -27 -27 -28 -29 -29 -30 -30 -30 -30 -30 -30 -29 -30 -30
-17 -18 -18 -18 -19 -19 -20 -20 -20 -20 -20 -20 -21 -21 -22 -22 -23 -23 -24 -23 -24 -26 -27 -28 -28 -28 -28 -28 -28 -29 -30 -30 -30 -31 -31 -31 -31 -31 -30 -30 -30 -30 -30
-18 -18 -18 -19 -19 -19 -20 -20 -20 -20 -21 -21 -22 -22 -23 -23 -23 -23 -24 -26 -27 -28 -28 -28 -29 -29 -30 -30 -30 -30 -31 -31 -32 -32 -32 -31 -31 -31 -30 -30 -30 -30 -30
-18 -18 -19 -19 -20 -20 -20 -21 -21 -21 -21 -22 -23 -23 -23 -23 -24 -25 -26 -28 -29 -29 -29 -29 -30 -31 -31 -32 -31 -32 -33 -33 -33 -32 -32 -31 -31 -31 -30 -30 -31 -31 -31
-18 -18 -19 -19 -20 -21 -21 -21 -21 -21 -22 -23 -23 -23 -23 -24 -26 -27 -29 -29 -30 -30 -30 -31 -31 -32 -32 -32 -33 -33 -33 -33 -33 -32 -31 -31 -31 -31 -31 -32 -32 -32 -32
-19 -19 -20 -20 -21 -21 -21 -21 -22 -22 -23 -23 -23 -24 -25 -26 -27 -29 -30 -30 -31 -31 -31 -32 -32 -32 -33 -33 -33 -33 -34 -34 -33 -32 -32 -32 -31 -32 -32 -33 -33 -33 -33
-20 -20 -21 -21 -21 -22 -22 -22 -22 -23 -23 -24 -24 -25 -26 -28 -29 -30 -31 -31 -31 -32 -32 -32 -32 -33 -33 -34 -34 -35 -34 -34 -33 -32 -32 -32 -31 -32 -33 -33 -33 -33 -33
-20 -20 -21 -21 -22 -22 -22 -23 -23 -23 -24 -25 -25 -26 -28 -30 -30 -31 -31 -31 -32 -32 -33 -33 -33 -33 -34 -34 -35 -35 -34 -34 -33 -33 -33 -33 -32 -33 -33 -33 -33 -33 -33
-20 -21 -21 -21 -22 -23 -23 -23 -23 -24 -25 -26 -27 -28 -30 -30 -31 -31 -31 -32 -32 -33 -33 -33 -34 -34 -35 -35 -35 -35 -34 -34 -33 -33 -32 -34 -33 -34 -33 -33 -33 -33 -33
-21 -22 -21 -22 -22 -23 -24 -24 -25 -25 -26 -27 -29 -30 -31 -31 -31 -31 -31 -32 -33 -34 -33 -33 -34 -34 -35 -35 -35 -35 -35 -35 -34 -33 -33 -34 -34 -34 -34 -33 -33 -33 -33
-22 -22 -22 -23 -23 -24 -25 -25 -25 -26 -28 -29 -30 -31 -31 -31 -31 -31 -32 -33 -33 -34 -34 -34 -34 -35 -35 -35 -35 -35 -35 -35 -35 -34 -33 -34 -34 -34 -34 -34 -33 -32 -32
-22 -23 -23 -24 -24 -24 -25 -26 -27 -28 -29 -30 -31 -31 -31 -31 -31 -32 -33 -33 -34 -34 -34 -34 -35 -35 -35 -35 -35 -35 -35 -35 -35 -35 -34 -34 -34 -33 -34 -34 -34 -33 -33

GFSMA_500_temp_051.txt.gz
Temp
-16 -15 -15 -15 -15 -15 -15 -14 -14 -14 -14 -14 -14 -14 -14 -15 -15 -15 -15 -15 -15 -15 -15 -16 -16 -16 -16 -16 -17 -16 -16 -16 -16 -17 -17 -17 -18 -18 -18 -18 -18 -18 -18
-15 -15 -15 -15 -15 -15 -14 -14 -14 -14 -14 -14 -14 -15 -15 -15 -15 -15 -16 -16 -16 -16 -16 -16 -16 -16 -17 -17 -17 -17 -17 -17 -17 -17 -17 -18 -17 -18 -18 -18 -18 -18 -18
-15 -15 -15 -15 -14 -14 -14 -14 -14 -14 -14 -15 -15 -15 -15 -15 -15 -16 -16 -16 -16 -16 -17 -17 -17 -17 -17 -17 -17 -17 -18 -18 -18 -18 -18 -18 -18 -18 -18 -18 -18 -18 -18
-15 -15 -15 -14 -14 -14 -14 -14 -15 -15 -15 -15 -15 -15 -15 -15 -16 -16 -17 -17 -17 -18 -17 -17 -17 -18 -18 -18 -18 -18 -18 -18 -18 -19 -18 -18 -18 -19 -19 -19 -19 -19 -18
-15 -15 -14 -15 -15 -15 -15 -15 -15 -15 -15 -15 -16 -15 -15 -15 -16 -16 -17 -17 -18 -18 -18 -18 -18 -18 -18 -18 -19 -19 -19 -18 -18 -18 -18 -18 -18 -18 -18 -18 -19 -19 -19
-15 -15 -15 -15 -15 -15 -15 -15 -15 -16 -16 -15 -15 -15 -16 -16 -17 -17 -18 -18 -18 -18 -18 -18 -18 -18 -18 -18 -19 -19 -19 -19 -19 -19 -19 -19 -18 -18 -18 -18 -18 -18 -18
-15 -15 -15 -15 -15 -15 -15 -15 -16 -16 -15 -15 -16 -16 -17 -17 -18 -18 -18 -18 -19 -18 -19 -19 -19 -19 -19 -19 -19 -19 -19 -19 -19 -19 -19 -19 -19 -19 -19 -19 -19 -18 -18
-15 -15 -15 -15 -15 -15 -15 -16 -16 -16 -16 -16 -17 -17 -17 -18 -18 -18 -19 -19 -19 -19 -19 -19 -19 -19 -19 -19 -19 -20 -19 -19 -19 -19 -19 -20 -20 -20 -20 -20 -20 -20 -20
-15 -15 -15 -15 -15 -15 -16 -16 -16 -16 -16 -17 -17 -18 -18 -19 -20 -19 -19 -20 -20 -20 -20 -20 -20 -20 -20 -21 -21 -21 -21 -21 -21 -21 -21 -21 -21 -21 -21 -21 -21 -21 -21
-15 -15 -15 -16 -16 -16 -16 -17 -17 -17 -18 -18 -18 -19 -20 -20 -19 -19 -20 -20 -20 -20 -20 -21 -21 -21 -22 -22 -22 -21 -22 -22 -22 -22 -22 -22 -22 -22 -22 -22 -22 -22 -22
-16 -16 -16 -16 -17 -16 -16 -18 -18 -18 -18 -19 -19 -20 -20 -20 -20 -20 -20 -20 -20 -21 -21 -21 -22 -22 -22 -22 -22 -22 -22 -22 -23 -23 -23 -23 -24 -24 -24 -24 -24 -24 -24
-16 -16 -17 -17 -17 -17 -17 -18 -19 -18 -19 -19 -19 -19 -20 -20 -20 -20 -20 -21 -21 -21 -21 -22 -22 -22 -22 -23 -23 -23 -23 -24 -26 -26 -26 -26 -26 -26 -26 -25 -25 -25 -25
-16 -17 -17 -17 -17 -17 -18 -18 -18 -18 -19 -19 -20 -19 -20 -20 -20 -21 -21 -21 -21 -22 -22 -22 -23 -23 -23 -23 -24 -25 -27 -28 -28 -28 -27 -27 -27 -27 -27 -27 -26 -26 -26
-16 -17 -17 -17 -18 -18 -18 -18 -18 -19 -19 -19 -19 -20 -20 -20 -21 -21 -21 -22 -22 -22 -23 -23 -23 -24 -24 -26 -27 -28 -29 -29 -29 -29 -29 -29 -28 -28 -28 -28 -28 -28 -28
-17 -17 -17 -18 -18 -17 -17 -18 -18 -19 -19 -20 -20 -20 -20 -21 -21 -22 -22 -23 -23 -23 -23 -24 -25 -26 -27 -29 -29 -30 -30 -30 -30 -30 -30 -30 -30 -30 -30 -30 -30 -30 -30
-17 -17 -17 -18 -18 -18 -18 -18 -19 -19 -20 -20 -20 -20 -21 -21 -22 -22 -23 -23 -24 -24 -25 -26 -28 -29 -30 -30 -30 -31 -31 -31 -31 -31 -32 -31 -32 -31 -32 -31 -31 -31 -30
-17 -17 -18 -18 -18 -18 -19 -19 -20 -20 -20 -21 -21 -21 -22 -22 -23 -23 -23 -24 -25 -25 -27 -28 -30 -31 -31 -31 -32 -32 -32 -32 -32 -32 -32 -32 -32 -33 -32 -32 -31 -31 -30
-17 -18 -18 -19 -19 -19 -19 -20 -21 -21 -21 -21 -22 -22 -23 -23 -23 -23 -24 -25 -26 -27 -29 -30 -31 -31 -31 -32 -32 -32 -32 -33 -33 -33 -33 -33 -33 -33 -32 -32 -31 -31 -30
-18 -18 -19 -19 -19 -20 -20 -21 -21 -21 -21 -22 -22 -23 -23 -23 -24 -24 -25 -26 -27 -29 -30 -31 -31 -31 -32 -33 -33 -33 -33 -34 -34 -34 -34 -34 -33 -32 -32 -31 -31 -31 -30
-18 -19 -19 -19 -20 -21 -21 -21 -21 -21 -22 -23 -23 -23 -23 -24 -25 -25 -26 -28 -29 -31 -31 -31 -31 -32 -33 -33 -33 -33 -34 -35 -35 -35 -34 -34 -33 -32 -32 -32 -31 -32 -32
-18 -19 -19 -19 -20 -21 -21 -21 -21 -22 -23 -22 -23 -24 -24 -25 -25 -26 -28 -29 -31 -31 -31 -31 -31 -32 -33 -33 -33 -34 -34 -35 -36 -35 -34 -34 -33 -32 -32 -32 -32 -32 -32
-19 -19 -20 -20 -21 -21 -21 -22 -22 -22 -22 -23 -24 -25 -25 -26 -27 -28 -30 -31 -31 -31 -31 -31 -32 -33 -33 -34 -34 -34 -35 -35 -35 -35 -34 -34 -33 -33 -32 -32 -33 -33 -33
-19 -19 -20 -21 -22 -22 -22 -22 -22 -23 -23 -24 -25 -25 -26 -27 -28 -30 -31 -31 -31 -32 -32 -32 -33 -34 -34 -34 -34 -35 -35 -35 -35 -35 -34 -34 -33 -33 -33 -33 -33 -33 -33
-19 -20 -21 -21 -21 -22 -22 -23 -23 -24 -24 -25 -25 -26 -27 -28 -30 -31 -31 -32 -32 -32 -32 -32 -34 -34 -34 -34 -35 -35 -35 -35 -36 -35 -35 -34 -34 -34 -34 -33 -33 -33 -33
-20 -21 -21 -21 -22 -23 -23 -24 -24 -25 -25 -25 -26 -27 -28 -30 -31 -31 -32 -32 -32 -32 -32 -33 -34 -34 -34 -34 -35 -35 -35 -35 -35 -36 -35 -35 -34 -34 -34 -34 -34 -33 -33
-21 -21 -21 -22 -22 -23 -24 -25 -25 -25 -25 -26 -26 -28 -30 -31 -32 -32 -32 -32 -32 -33 -33 -34 -34 -34 -34 -35 -35 -35 -35 -35 -35 -35 -35 -35 -35 -34 -35 -34 -34 -33 -33

GFSMA_500_temp_054.txt.gz
Temp
-16 -16 -15 -15 -15 -14 -15 -14 -14 -14 -14 -15 -15 -14 -14 -14 -14 -14 -14 -14 -14 -14 -15 -15 -15 -16 -16 -16 -17 -16 -17 -17 -17 -17 -17 -17 -17 -17 -17 -18 -18 -18 -18
-16 -15 -15 -15 -15 -14 -14 -14 -14 -14 -14 -14 -15 -14 -14 -14 -14 -15 -15 -15 -15 -15 -15 -15 -16 -16 -16 -17 -17 -17 -17 -17 -17 -17 -17 -17 -17 -17 -18 -18 -18 -18 -18
-15 -15 -15 -15 -15 -15 -15 -14 -14 -14 -15 -15 -15 -15 -15 -15 -15 -15 -15 -15 -15 -15 -16 -16 -16 -16 -16 -16 -17 -17 -17 -17 -18 -18 -18 -18 -18 -18 -18 -18 -18 -18 -18
-15 -15 -15 -15 -15 -15 -14 -14 -15 -15 -15 -15 -15 -15 -15 -15 -15 -16 -16 -16 -16 -16 -17 -17 -17 -17 -17 -17 -17 -17 -18 -18 -18 -18 -18 -18 -18 -18 -18 -19 -19 -19 -18
-15 -15 -15 -15 -15 -15 -15 -15 -15 -15 -15 -15 -15 -15 -15 -15 -16 -16 -16 -17 -17 -17 -18 -17 -17 -17 -18 -18 -18 -18 -18 -18 -18 -18 -18 -18 -18 -18 -18 -19 -19 -19 -19
-16 -15 -15 -15 -15 -15 -15 -15 -15 -15 -15 -15 -15 -15 -15 -16 -16 -16 -17 -17 -17 -17 -18 -18 -18 -18 -18 -18 -18 -18 -18 -18 -18 -18 -18 -18 -18 -18 -18 -18 -18 -19 -19
-16 -15 -15 -15 -15 -15 -15 -15 -15 -15 -15 -15 -15 -15 -16 -16 -17 -17 -18 -18 -18 -18 -18 -19 -19 -19 -18 -18 -19 -19 -19 -19 -19 -19 -19 -19 -19 -19 -19 -19 -18 -18 -18
-16 -16 -15 -15 -15 -15 -16 -15 -15 -15 -15 -15 -15 -16 -17 -17 -17 -18 -18 -19 -19 -19 -19 -19 -19 -19 -20 -20 -19 -19 -19 -20 -20 -20 -20 -20 -20 -19 -19 -19 -19 -19 -19
-15 -16 -15 -16 -15 -16 -16 -15 -15 -16 -15 -16 -16 -17 -17 -18 -18 -18 -18 -19 -19 -19 -19 -20 -20 -20 -20 -21 -21 -21 -20 -21 -21 -21 -21 -21 -21 -21 -21 -21 -20 -20 -20
-15 -16 -16 -16 -16 -15 -16 -16 -15 -16 -16 -17 -17 -17 -18 -18 -19 -19 -19 -19 -19 -20 -20 -20 -21 -21 -20 -21 -21 -21 -21 -22 -22 -22 -22 -22 -22 -22 -22 -22 -21 -21 -21
-16 -16 -16 -16 -16 -16 -16 -16 -16 -16 -16 -17 -18 -18 -18 -18 -19 -19 -19 -20 -20 -19 -20 -20 -21 -21 -21 -21 -22 -22 -22 -22 -22 -22 -23 -23 -23 -24 -24 -24 -24 -24 -23
-15 -16 -16 -16 -16 -16 -16 -16 -16 -16 -17 -18 -18 -19 -19 -19 -20 -19 -19 -20 -20 -20 -21 -21 -22 -22 -22 -22 -22 -22 -22 -22 -23 -24 -25 -27 -28 -29 -29 -28 -27 -27 -27
-16 -16 -16 -16 -16 -16 -17 -16 -17 -18 -18 -18 -18 -18 -19 -19 -20 -20 -20 -20 -20 -21 -22 -22 -22 -22 -23 -23 -23 -23 -24 -25 -27 -28 -29 -30 -30 -30 -30 -29 -29 -28 -28
-15 -15 -16 -16 -16 -17 -17 -17 -17 -18 -18 -18 -18 -19 -19 -19 -20 -21 -21 -21 -21 -22 -23 -23 -23 -23 -23 -24 -24 -25 -27 -29 -30 -30 -30 -31 -31 -31 -31 -30 -30 -30 -29
-16 -16 -16 -16 -16 -17 -17 -17 -18 -18 -18 -19 -19 -19 -20 -20 -21 -21 -21 -22 -22 -22 -23 -23 -23 -24 -25 -25 -26 -28 -30 -31 -30 -31 -31 -31 -32 -32 -32 -32 -31 -31 -30
-16 -16 -17 -16 -17 -17 -17 -18 -18 -18 -19 -19 -20 -20 -21 -21 -21 -22 -22 -23 -23 -23 -23 -24 -25 -25 -26 -28 -29 -30 -31 -31 -31 -32 -32 -32 -32 -32 -33 -33 -32 -32 -31
-17 -17 -17 -16 -17 -17 -18 -18 -19 -19 -19 -20 -20 -21 -21 -21 -22 -22 -22 -23 -23 -24 -24 -25 -26 -27 -27 -29 -31 -31 -31 -31 -32 -32 -32 -32 -33 -33 -33 -33 -33 -33 -32
-17 -17 -17 -17 -17 -18 -18 -19 -19 -20 -20 -21 -21 -21 -21 -21 -22 -22 -23 -23 -24 -25 -25 -25 -27 -29 -30 -31 -31 -31 -31 -32 -32 -32 -32 -33 -33 -33 -33 -33 -33 -33 -32
-17 -17 -18 -17 -18 -19 -19 -19 -19 -20 -21 -21 -21 -21 -21 -22 -22 -22 -23 -24 -25 -25 -26 -27 -29 -30 -31 -31 -32 -32 -32 -33 -33 -33 -33 -33 -34 -33 -34 -33 -33 -32 -32
-17 -17 -18 -18 -19 -19 -19 -20 -20 -21 -21 -21 -22 -22 -22 -22 -23 -24 -24 -25 -25 -26 -28 -29 -30 -31 -32 -32 -32 -32 -33 -33 -33 -34 -34 -34 -34 -34 -34 -33 -33 -32 -32
-18 -17 -18 -18 -19 -19 -20 -20 -20 -21 -22 -22 -22 -22 -23 -23 -24 -25 -25 -26 -26 -28 -29 -30 -31 -32 -32 -32 -32 -32 -33 -33 -34 -34 -34 -35 -34 -34 -33 -33 -33 -32 -32
-17 -18 -18 -19 -19 -20 -20 -21 -21 -21 -22 -22 -22 -23 -24 -24 -25 -25 -26 -26 -27 -29 -30 -31 -32 -32 -32 -32 -32 -33 -34 -34 -34 -35 -35 -35 -34 -34 -34 -33 -33 -33 -33
-18 -18 -19 -19 -20 -20 -21 -21 -21 -21 -22 -22 -23 -24 -25 -25 -25 -26 -26 -27 -29 -30 -31 -32 -32 -32 -32 -33 -33 -34 -34 -34 -34 -35 -35 -35 -35 -35 -34 -34 -33 -33 -33
-18 -19 -19 -20 -20 -21 -21 -21 -22 -22 -22 -23 -24 -24 -25 -25 -26 -27 -27 -29 -30 -31 -32 -32 -32 -32 -33 -33 -33 -34 -34 -34 -35 -35 -35 -35 -35 -35 -35 -34 -33 -33 -33
-19 -19 -20 -20 -21 -21 -21 -22 -22 -22 -22 -23 -24 -25 -25 -26 -26 -27 -29 -30 -31 -32 -32 -32 -33 -33 -33 -34 -34 -34 -35 -35 -35 -35 -35 -35 -36 -35 -35 -34 -33 -33 -34
-19 -20 -21 -21 -21 -21 -21 -22 -22 -23 -23 -24 -24 -25 -25 -26 -27 -29 -30 -31 -31 -32 -33 -33 -33 -33 -34 -34 -35 -35 -35 -35 -35 -35 -35 -36 -36 -35 -35 -35 -34 -34 -34

GFSMA_500_temp_057.txt.gz
Temp
-14 -15 -16 -16 -15 -15 -14 -14 -14 -14 -14 -14 -14 -14 -14 -14 -14 -14 -14 -14 -14 -14 -14 -14 -14 -15 -15 -15 -16 -16 -16 -16 -16 -16 -16 -16 -16 -16 -16 -17 -17 -17 -17
-15 -16 -16 -15 -15 -15 -15 -14 -15 -14 -14 -14 -14 -14 -14 -14 -14 -14 -14 -14 -14 -14 -15 -15 -15 -15 -16 -17 -17 -17 -17 -17 -17 -17 -17 -17 -17 -17 -17 -17 -17 -17 -17
-15 -16 -15 -15 -15 -15 -15 -14 -15 -15 -15 -14 -14 -14 -14 -14 -14 -14 -14 -14 -15 -15 -15 -15 -16 -16 -16 -17 -17 -17 -17 -17 -17 -18 -18 -18 -18 -18 -18 -18 -17 -17 -18
-16 -15 -15 -15 -15 -15 -15 -15 -15 -15 -15 -15 -15 -14 -14 -14 -14 -15 -15 -15 -15 -15 -15 -17 -17 -17 -17 -17 -17 -17 -17 -17 -18 -18 -18 -18 -18 -18 -18 -18 -18 -18 -18
-15 -15 -15 -15 -15 -15 -15 -15 -15 -15 -15 -15 -14 -15 -15 -14 -15 -15 -15 -16 -16 -17 -17 -16 -17 -17 -17 -17 -17 -18 -18 -17 -17 -18 -17 -17 -18 -18 -18 -18 -18 -18 -18
-15 -15 -15 -15 -15 -15 -15 -15 -15 -15 -15 -15 -15 -15 -15 -15 -15 -15 -15 -16 -17 -17 -18 -18 -17 -17 -18 -18 -18 -18 -18 -18 -18 -18 -18 -18 -18 -18 -18 -18 -18 -18 -18
-15 -15 -15 -15 -15 -15 -15 -15 -15 -15 -15 -15 -15 -15 -15 -15 -16 -16 -17 -17 -17 -17 -17 -18 -18 -19 -18 -18 -18 -18 -18 -19 -19 -18 -18 -18 -18 -18 -18 -18 -18 -18 -18
-15 -15 -15 -15 -15 -15 -15 -15 -15 -15 -15 -15 -15 -15 -15 -16 -15 -16 -17 -18 -18 -18 -18 -19 -18 -19 -19 -20 -19 -18 -18 -19 -20 -19 -20 -20 -20 -20 -20 -20 -20 -19 -19
-15 -15 -15 -15 -15 -15 -15 -15 -15 -16 -15 -15 -15 -16 -16 -16 -17 -17 -16 -17 -18 -19 -19 -19 -19 -19 -19 -20 -20 -20 -20 -20 -20 -20 -21 -21 -21 -21 -21 -21 -20 -20 -20
-15 -15 -15 -15 -15 -15 -15 -16 -16 -16 -16 -15 -16 -16 -16 -17 -17 -17 -18 -18 -18 -18 -19 -19 -19 -20 -20 -20 -20 -20 -21 -21 -21 -21 -21 -21 -21 -21 -21 -21 -21 -22 -22
-16 -16 -16 -16 -16 -16 -16 -16 -16 -16 -16 -16 -15 -16 -17 -18 -18 -18 -18 -19 -19 -19 -19 -19 -19 -20 -20 -20 -21 -20 -21 -21 -21 -21 -22 -21 -21 -22 -22 -23 -25 -27 -28
-16 -16 -16 -16 -16 -16 -16 -16 -16 -16 -16 -16 -16 -17 -18 -18 -18 -18 -18 -19 -19 -20 -20 -20 -20 -20 -21 -21 -22 -22 -22 -22 -22 -23 -23 -23 -24 -24 -26 -28 -29 -30 -30
-16 -16 -16 -16 -16 -16 -16 -16 -16 -16 -17 -17 -17 -17 -18 -18 -18 -19 -19 -19 -20 -20 -21 -21 -21 -21 -21 -21 -22 -22 -23 -23 -24 -24 -25 -26 -27 -29 -30 -30 -30 -31 -31
-16 -16 -16 -16 -16 -16 -16 -16 -16 -16 -17 -17 -17 -18 -18 -18 -18 -19 -20 -20 -20 -20 -21 -21 -22 -22 -22 -22 -22 -23 -24 -24 -25 -26 -27 -29 -30 -30 -30 -31 -31 -31 -31
-16 -16 -16 -16 -16 -16 -15 -16 -16 -17 -17 -17 -17 -18 -18 -19 -19 -20 -20 -20 -21 -21 -21 -22 -23 -23 -23 -23 -23 -24 -25 -26 -27 -28 -30 -31 -31 -31 -31 -32 -32 -32 -32
-16 -16 -16 -16 -16 -16 -16 -16 -17 -17 -17 -17 -18 -18 -19 -19 -20 -21 -21 -21 -21 -22 -22 -22 -23 -23 -24 -24 -25 -25 -27 -28 -29 -30 -31 -31 -31 -32 -32 -32 -32 -33 -33
-17 -16 -16 -16 -16 -16 -17 -17 -17 -17 -17 -18 -18 -19 -19 -20 -21 -21 -21 -21 -22 -22 -22 -23 -23 -24 -25 -25 -26 -26 -28 -29 -30 -31 -31 -31 -32 -32 -33 -33 -33 -33 -33
-16 -16 -16 -17 -16 -17 -17 -17 -18 -18 -18 -18 -19 -20 -20 -21 -21 -22 -22 -22 -22 -23 -23 -24 -24 -25 -26 -27 -27 -28 -29 -31 -31 -32 -32 -32 -32 -33 -33 -33 -33 -34 -33
-16 -16 -16 -17 -17 -17 -17 -17 -18 -18 -19 -19 -20 -20 -21 -22 -22 -22 -22 -22 -23 -24 -24 -24 -25 -26 -27 -28 -29 -30 -31 -31 -32 -32 -32 -33 -33 -33 -33 -34 -34 -33 -33
-16 -16 -16 -16 -17 -17 -18 -18 -18 -19 -19 -20 -20 -21 -22 -22 -22 -22 -23 -23 -24 -24 -25 -25 -26 -27 -28 -29 -31 -32 -32 -32 -32 -32 -33 -33 -33 -33 -33 -34 -34 -34 -33
-16 -16 -17 -17 -17 -17 -18 -18 -19 -19 -20 -20 -21 -21 -21 -22 -22 -23 -24 -24 -25 -25 -26 -27 -28 -29 -30 -31 -32 -32 -32 -32 -32 -33 -33 -34 -34 -34 -34 -34 -34 -33 -33
-16 -17 -17 -17 -17 -18 -18 -19 -19 -20 -21 -21 -21 -22 -22 -22 -23 -23 -23 -24 -25 -26 -27 -28 -29 -31 -32 -32 -33 -33 -33 -33 -33 -34 -34 -34 -34 -34 -34 -34 -34 -34 -33
-17 -17 -17 -18 -18 -18 -19 -19 -20 -21 -21 -22 -22 -22 -22 -23 -23 -24 -25 -25 -26 -26 -27 -28 -29 -30 -31 -32 -33 -33 -33 -34 -34 -34 -34 -34 -34 -35 -35 -35 -34 -34 -34
-17 -17 -18 -18 -19 -19 -20 -20 -21 -21 -22 -22 -22 -22 -22 -23 -24 -25 -25 -26 -26 -27 -29 -30 -31 -31 -32 -32 -33 -33 -34 -34 -34 -35 -35 -34 -35 -35 -35 -35 -35 -34 -34
-18 -18 -18 -19 -19 -20 -20 -21 -21 -21 -22 -22 -22 -23 -23 -23 -24 -25 -26 -27 -27 -28 -30 -31 -32 -32 -32 -33 -34 -34 -34 -34 -35 -35 -35 -35 -35 -35 -35 -35 -35 -34 -34
-18 -18 -19 -19 -20 -20 -20 -21 -22 -22 -22 -22 -22 -23 -23 -24 -25 -26 -26 -27 -28 -29 -30 -31 -32 -32 -33 -34 -34 -35 -36 -35 -35 -35 -35 -35 -36 -36 -35 -35 -35 -35 -34

GFSMA_500_temp_060.txt.gz
Temp
-13 -13 -12 -14 -15 -16 -16 -15 -15 -15 -14 -14 -14 -14 -14 -13 -13 -14 -14 -14 -13 -14 -14 -14 -15 -14 -15 -15 -15 -15 -16 -16 -16 -16 -16 -16 -16 -16 -16 -17 -17 -17 -17
-13 -13 -14 -15 -16 -16 -16 -15 -15 -15 -14 -14 -14 -14 -14 -14 -14 -14 -14 -14 -14 -14 -14 -14 -15 -15 -15 -15 -16 -16 -16 -16 -17 -17 -17 -17 -17 -17 -17 -17 -17 -18 -18
-14 -15 -15 -15 -16 -16 -15 -15 -15 -15 -14 -14 -14 -14 -14 -14 -14 -14 -14 -15 -15 -14 -15 -15 -15 -15 -15 -16 -16 -16 -16 -17 -17 -17 -18 -18 -18 -18 -18 -18 -18 -18 -18
-15 -15 -15 -16 -16 -15 -15 -15 -15 -14 -14 -14 -14 -15 -15 -15 -14 -14 -14 -14 -14 -15 -15 -16 -16 -16 -16 -17 -16 -17 -17 -17 -18 -18 -18 -18 -18 -18 -18 -18 -18 -18 -18
-15 -15 -16 -15 -15 -15 -15 -15 -15 -15 -14 -15 -15 -15 -15 -15 -15 -15 -15 -15 -15 -15 -14 -15 -16 -16 -17 -17 -17 -18 -18 -18 -18 -18 -18 -18 -18 -18 -17 -17 -17 -17 -17
-15 -15 -15 -15 -15 -15 -15 -15 -15 -15 -15 -15 -15 -15 -15 -15 -15 -15 -15 -16 -16 -17 -16 -16 -16 -17 -17 -18 -18 -18 -18 -19 -19 -18 -18 -18 -18 -18 -18 -18 -18 -18 -18
-16 -15 -15 -15 -15 -15 -15 -15 -15 -15 -15 -15 -15 -15 -15 -15 -16 -15 -16 -16 -17 -16 -17 -18 -18 -18 -18 -18 -18 -18 -18 -20 -19 -19 -19 -19 -19 -18 -18 -18 -18 -18 -18
-16 -15 -15 -15 -15 -15 -15 -15 -15 -15 -15 -15 -16 -15 -15 -15 -14 -15 -15 -16 -16 -17 -17 -17 -17 -18 -19 -19 -19 -19 -19 -20 -19 -19 -19 -19 -19 -19 -19 -19 -19 -19 -19
-16 -16 -16 -16 -15 -15 -16 -16 -15 -15 -15 -15 -16 -16 -15 -15 -15 -15 -15 -16 -16 -17 -18 -18 -18 -18 -19 -19 -19 -19 -20 -20 -20 -20 -20 -20 -20 -20 -20 -20 -19 -19 -19
-15 -15 -16 -15 -15 -15 -16 -15 -16 -15 -16 -16 -16 -17 -16 -16 -15 -16 -17 -17 -16 -17 -17 -18 -18 -19 -20 -20 -20 -20 -20 -20 -20 -20 -20 -21 -21 -21 -21 -20 -20 -20 -20
-15 -15 -16 -16 -16 -16 -16 -16 -15 -16 -15 -15 -15 -16 -16 -16 -17 -17 -17 -19 -18 -18 -17 -18 -18 -19 -20 -20 -20 -20 -20 -21 -21 -21 -21 -21 -21 -21 -21 -21 -22 -22 -22
-16 -16 -16 -16 -16 -16 -16 -16 -15 -16 -16 -16 -16 -16 -16 -16 -17 -17 -17 -17 -17 -19 -19 -20 -20 -20 -20 -20 -20 -21 -21 -21 -21 -22 -22 -22 -23 -23 -23 -23 -24 -24 -25
-17 -16 -16 -16 -16 -16 -16 -16 -16 -16 -16 -15 -16 -17 -17 -17 -17 -17 -17 -18 -18 -19 -20 -21 -21 -21 -21 -21 -20 -21 -21 -22 -22 -23 -23 -24 -25 -25 -25 -26 -27 -28 -29
-16 -16 -16 -16 -16 -16 -16 -16 -16 -16 -16 -16 -17 -17 -17 -17 -17 -17 -18 -18 -19 -20 -20 -21 -21 -21 -22 -21 -21 -21 -21 -22 -23 -24 -25 -25 -26 -27 -27 -28 -29 -30 -30
-16 -16 -16 -16 -16 -16 -16 -16 -16 -16 -17 -17 -17 -17 -17 -17 -18 -18 -18 -19 -20 -20 -21 -22 -22 -22 -22 -22 -22 -22 -23 -23 -24 -25 -26 -26 -27 -30 -30 -31 -31 -31 -31
-16 -16 -16 -16 -16 -16 -16 -16 -16 -16 -17 -17 -17 -17 -18 -18 -18 -19 -19 -20 -21 -21 -21 -22 -22 -22 -22 -23 -23 -24 -24 -25 -26 -27 -28 -29 -31 -31 -32 -32 -31 -32 -32
-17 -16 -16 -16 -16 -16 -16 -16 -17 -16 -16 -17 -17 -17 -18 -19 -19 -20 -20 -21 -21 -22 -22 -21 -22 -22 -23 -23 -24 -25 -26 -26 -26 -28 -29 -30 -31 -32 -32 -32 -32 -33 -33
-16 -16 -16 -16 -16 -16 -16 -16 -17 -17 -17 -17 -17 -18 -19 -19 -20 -20 -21 -21 -22 -22 -22 -22 -22 -23 -24 -24 -25 -26 -26 -27 -28 -28 -30 -31 -32 -32 -32 -33 -33 -33 -33
-17 -17 -16 -16 -16 -16 -16 -16 -16 -17 -17 -17 -18 -18 -19 -20 -20 -21 -22 -22 -22 -22 -22 -22 -22 -23 -24 -25 -26 -27 -28 -28 -29 -30 -31 -32 -32 -33 -33 -34 -34 -34 -34
-17 -17 -17 -17 -16 -16 -17 -17 -17 -17 -18 -18 -19 -19 -20 -20 -21 -22 -22 -22 -22 -22 -23 -23 -24 -24 -25 -26 -27 -29 -30 -31 -31 -32 -32 -33 -33 -33 -33 -34 -34 -34 -35
-17 -17 -17 -17 -17 -17 -17 -17 -17 -18 -18 -19 -19 -20 -20 -21 -22 -22 -22 -22 -23 -23 -23 -24 -25 -26 -27 -28 -29 -30 -31 -32 -32 -33 -33 -33 -34 -34 -34 -34 -34 -34 -35
-17 -17 -16 -17 -17 -17 -17 -18 -18 -18 -18 -19 -20 -20 -21 -22 -22 -22 -22 -22 -23 -23 -23 -24 -25 -26 -27 -28 -30 -31 -32 -33 -34 -33 -34 -34 -34 -34 -35 -35 -35 -35 -35
-17 -17 -17 -17 -17 -17 -17 -18 -18 -19 -19 -20 -20 -21 -22 -22 -22 -22 -22 -23 -23 -24 -25 -26 -26 -27 -28 -29 -31 -31 -32 -33 -34 -35 -35 -34 -35 -35 -35 -35 -35 -35 -35
-17 -17 -17 -17 -17 -17 -18 -19 -19 -19 -20 -20 -21 -22 -22 -22 -22 -22 -23 -23 -23 -24 -25 -26 -26 -27 -29 -30 -31 -32 -33 -33 -34 -35 -36 -35 -35 -35 -35 -35 -35 -35 -35
-17 -17 -17 -18 -18 -18 -19 -20 -20 -20 -20 -20 -21 -22 -22 -22 -22 -23 -23 -24 -24 -24 -25 -26 -28 -29 -30 -31 -31 -33 -33 -34 -35 -35 -36 -35 -35 -35 -35 -36 -36 -36 -35
-17 -18 -18 -18 -19 -19 -19 -20 -20 -20 -20 -21 -21 -22 -22 -22 -23 -23 -24 -24 -24 -26 -26 -27 -28 -30 -30 -31 -33 -34 -35 -35 -36 -35 -37 -35 -36 -35 -35 -36 -36 -36 -36

GFSMA_500_temp_063.txt.gz
Temp
-12 -12 -13 -14 -14 -14 -15 -16 -16 -16 -15 -15 -14 -14 -14 -14 -13 -13 -13 -13 -14 -14 -14 -14 -14 -14 -14 -14 -14 -14 -15 -15 -15 -15 -15 -15 -16 -16 -16 -17 -17 -17 -17
-12 -13 -13 -14 -15 -15 -16 -16 -16 -15 -15 -15 -14 -14 -14 -13 -14 -13 -14 -14 -14 -14 -14 -14 -14 -14 -15 -15 -15 -15 -15 -15 -16 -16 -16 -17 -17 -17 -17 -18 -18 -18 -18
-12 -13 -15 -15 -15 -16 -16 -16 -16 -15 -15 -15 -14 -14 -14 -14 -14 -14 -14 -14 -14 -14 -15 -15 -15 -15 -15 -15 -15 -15 -16 -16 -16 -17 -17 -17 -17 -17 -18 -18 -18 -18 -18
-13 -14 -15 -16 -16 -16 -16 -16 -15 -15 -15 -14 -14 -15 -14 -14 -14 -14 -14 -14 -15 -15 -15 -15 -15 -15 -15 -15 -15 -16 -16 -16 -17 -17 -17 -18 -18 -18 -18 -18 -18 -18 -18
-15 -15 -15 -15 -15 -16 -15 -15 -15 -15 -15 -15 -15 -15 -15 -15 -15 -15 -14 -14 -15 -15 -16 -16 -15 -16 -16 -16 -17 -17 -17 -18 -18 -18 -18 -18 -19 -18 -18 -18 -18 -18 -18
-15 -15 -15 -15 -15 -16 -16 -15 -15 -15 -15 -15 -15 -15 -15 -15 -15 -15 -15 -15 -14 -14 -14 -15 -16 -16 -17 -17 -17 -17 -18 -19 -19 -19 -19 -19 -19 -19 -19 -19 -19 -19 -18
-16 -15 -15 -16 -16 -16 -16 -15 -15 -15 -15 -15 -15 -15 -15 -15 -16 -16 -15 -16 -16 -16 -16 -16 -16 -16 -17 -17 -17 -18 -18 -18 -19 -20 -20 -20 -19 -19 -19 -19 -19 -19 -19
-15 -16 -16 -16 -16 -16 -15 -15 -15 -15 -15 -15 -15 -15 -15 -15 -15 -16 -15 -16 -16 -17 -17 -17 -17 -17 -17 -17 -17 -18 -18 -19 -20 -20 -20 -20 -20 -20 -20 -20 -19 -19 -19
-15 -16 -16 -16 -16 -16 -15 -16 -16 -16 -15 -16 -16 -16 -15 -15 -15 -15 -16 -15 -15 -15 -17 -17 -17 -17 -17 -17 -18 -19 -19 -20 -21 -21 -20 -21 -20 -20 -20 -20 -20 -20 -20
-15 -16 -16 -16 -15 -16 -16 -16 -16 -16 -16 -16 -16 -16 -15 -16 -16 -16 -16 -16 -16 -16 -17 -17 -17 -17 -17 -18 -19 -19 -21 -21 -21 -21 -21 -21 -21 -21 -21 -21 -21 -20 -20
-15 -15 -16 -16 -16 -16 -16 -16 -16 -16 -15 -16 -16 -16 -16 -16 -16 -16 -17 -17 -17 -17 -17 -17 -17 -17 -18 -19 -19 -20 -21 -21 -21 -21 -21 -21 -21 -21 -21 -21 -21 -21 -22
-15 -16 -16 -16 -16 -16 -16 -16 -16 -16 -16 -16 -16 -16 -16 -16 -16 -17 -17 -17 -18 -18 -17 -18 -18 -18 -19 -19 -20 -20 -21 -21 -21 -21 -22 -22 -22 -22 -22 -22 -23 -23 -24
-16 -16 -16 -16 -16 -16 -16 -16 -16 -16 -16 -16 -16 -16 -16 -17 -17 -17 -18 -18 -17 -18 -18 -19 -19 -19 -20 -21 -21 -21 -21 -21 -21 -22 -22 -23 -23 -24 -24 -25 -25 -26 -26
-16 -16 -15 -16 -16 -16 -16 -16 -16 -16 -16 -16 -16 -17 -17 -17 -18 -18 -18 -17 -18 -18 -19 -19 -21 -21 -21 -21 -22 -22 -22 -22 -22 -22 -22 -23 -25 -25 -26 -26 -27 -27 -29
-16 -16 -16 -16 -16 -16 -16 -16 -16 -16 -16 -16 -16 -17 -17 -18 -17 -18 -18 -18 -18 -18 -19 -20 -21 -22 -22 -22 -22 -22 -22 -22 -22 -23 -23 -24 -25 -26 -27 -28 -29 -30 -31
-16 -16 -16 -16 -16 -16 -16 -16 -16 -16 -16 -16 -17 -17 -17 -17 -17 -17 -18 -18 -19 -19 -19 -20 -21 -22 -22 -22 -23 -23 -23 -23 -23 -24 -24 -25 -26 -27 -29 -31 -31 -31 -32
-16 -16 -17 -17 -16 -16 -16 -16 -16 -16 -16 -17 -17 -17 -17 -17 -17 -18 -18 -19 -19 -20 -20 -20 -21 -22 -22 -22 -23 -23 -24 -24 -24 -24 -25 -26 -27 -28 -30 -32 -32 -32 -32
-16 -16 -17 -17 -16 -16 -16 -16 -16 -16 -17 -17 -17 -17 -17 -17 -18 -18 -19 -19 -20 -21 -21 -21 -22 -22 -22 -23 -23 -23 -24 -24 -25 -26 -27 -28 -30 -30 -31 -32 -32 -33 -33
-16 -16 -17 -17 -17 -16 -16 -16 -16 -16 -17 -17 -17 -17 -18 -18 -19 -19 -19 -20 -20 -21 -21 -22 -22 -22 -22 -23 -23 -23 -24 -26 -27 -27 -28 -30 -31 -31 -32 -33 -33 -34 -34
-17 -17 -17 -17 -16 -16 -16 -17 -17 -17 -17 -17 -17 -18 -18 -18 -19 -19 -19 -20 -20 -21 -22 -22 -22 -22 -22 -23 -24 -25 -25 -26 -28 -29 -30 -31 -32 -32 -33 -34 -34 -34 -34
-17 -17 -17 -17 -17 -17 -17 -17 -17 -17 -17 -17 -18 -18 -19 -19 -19 -19 -20 -20 -21 -21 -22 -22 -22 -22 -23 -23 -24 -25 -26 -28 -29 -31 -32 -33 -33 -33 -34 -35 -35 -35 -35
-17 -17 -17 -17 -17 -17 -17 -17 -17 -17 -18 -18 -19 -19 -19 -19 -20 -20 -20 -21 -21 -22 -22 -22 -23 -23 -23 -24 -25 -26 -27 -29 -30 -31 -33 -34 -35 -34 -35 -35 -35 -35 -35
-17 -17 -17 -17 -17 -17 -17 -17 -18 -18 -18 -19 -19 -19 -20 -20 -20 -20 -21 -21 -22 -23 -23 -23 -23 -24 -24 -25 -26 -27 -29 -30 -31 -32 -33 -34 -35 -36 -36 -35 -35 -36 -35
-17 -17 -17 -17 -17 -17 -17 -18 -18 -18 -19 -19 -19 -20 -20 -20 -20 -21 -21 -22 -22 -23 -23 -24 -24 -25 -26 -27 -28 -29 -30 -31 -31 -32 -34 -35 -36 -36 -36 -36 -36 -36 -35
-17 -17 -17 -17 -17 -17 -18 -18 -18 -19 -19 -19 -20 -20 -20 -20 -21 -21 -21 -22 -22 -23 -24 -24 -25 -25 -27 -28 -29 -30 -30 -31 -32 -33 -35 -35 -36 -36 -36 -36 -36 -36 -36
-18 -17 -17 -17 -17 -18 -18 -19 -19 -19 -19 -20 -20 -20 -21 -21 -21 -22 -22 -22 -23 -23 -23 -24 -25 -26 -27 -29 -30 -31 -31 -32 -32 -34 -36 -36 -36 -36 -36 -36 -36 -36 -36

GFSMA_500_temp_066.txt.gz
Temp
-12 -12 -13 -12 -13 -13 -13 -14 -14 -14 -15 -15 -15 -15 -14 -14 -14 -14 -14 -14 -14 -14 -13 -14 -14 -14 -14 -14 -14 -14 -14 -14 -14 -14 -14 -14 -14 -15 -15 -16 -16 -16 -16
-12 -13 -13 -12 -13 -14 -15 -15 -15 -16 -15 -15 -15 -15 -15 -15 -14 -14 -14 -14 -14 -14 -15 -15 -14 -14 -14 -15 -15 -14 -14 -14 -14 -15 -15 -15 -15 -15 -16 -16 -16 -17 -17
-13 -13 -12 -13 -14 -14 -15 -16 -16 -15 -15 -15 -15 -15 -15 -15 -15 -14 -14 -14 -14 -15 -15 -15 -15 -15 -15 -15 -15 -15 -15 -15 -16 -16 -15 -15 -15 -16 -17 -17 -18 -18 -18
-13 -13 -13 -14 -14 -16 -16 -16 -16 -15 -15 -15 -15 -15 -15 -15 -15 -14 -14 -15 -15 -15 -15 -15 -15 -15 -15 -16 -16 -16 -16 -16 -15 -15 -15 -16 -16 -17 -17 -18 -18 -19 -19
-14 -13 -14 -15 -16 -16 -16 -16 -15 -15 -15 -15 -15 -15 -15 -14 -15 -15 -15 -15 -15 -15 -16 -15 -16 -16 -16 -16 -16 -17 -17 -17 -16 -16 -16 -17 -17 -17 -18 -18 -19 -19 -19
-15 -15 -16 -16 -16 -16 -15 -15 -16 -16 -16 -16 -15 -15 -15 -15 -15 -15 -15 -15 -15 -16 -16 -16 -16 -17 -16 -16 -17 -17 -17 -17 -17 -17 -17 -17 -17 -18 -18 -18 -19 -19 -19
-15 -16 -15 -15 -16 -16 -15 -15 -16 -16 -16 -16 -15 -15 -16 -16 -16 -16 -15 -15 -15 -16 -16 -16 -16 -17 -16 -17 -17 -18 -17 -17 -17 -18 -18 -18 -18 -18 -19 -19 -19 -20 -20
-15 -15 -15 -16 -16 -16 -15 -15 -16 -16 -15 -15 -15 -15 -15 -15 -16 -16 -16 -16 -16 -16 -16 -16 -16 -16 -17 -17 -18 -17 -17 -18 -18 -18 -19 -19 -19 -20 -20 -20 -20 -20 -20
-14 -15 -15 -15 -16 -16 -16 -16 -15 -15 -15 -15 -15 -15 -14 -15 -15 -15 -16 -16 -16 -16 -16 -16 -16 -16 -17 -17 -17 -17 -17 -18 -19 -19 -20 -20 -20 -20 -20 -20 -20 -20 -20
-15 -15 -15 -16 -16 -16 -16 -16 -16 -16 -16 -15 -15 -15 -15 -15 -15 -15 -16 -16 -16 -16 -16 -16 -16 -17 -17 -17 -17 -17 -18 -19 -20 -20 -20 -21 -21 -21 -21 -21 -21 -21 -21
-15 -15 -16 -16 -16 -16 -16 -16 -16 -16 -16 -15 -15 -16 -15 -15 -16 -15 -16 -16 -16 -17 -16 -16 -17 -17 -17 -17 -17 -18 -19 -20 -20 -21 -21 -21 -21 -21 -21 -22 -22 -21 -21
-15 -15 -15 -15 -16 -16 -16 -16 -16 -16 -15 -16 -16 -16 -16 -16 -16 -16 -16 -16 -16 -16 -16 -17 -17 -17 -17 -18 -18 -19 -19 -20 -21 -21 -21 -22 -22 -22 -22 -22 -22 -22 -22
-15 -15 -16 -16 -16 -16 -16 -16 -16 -16 -16 -16 -16 -16 -16 -16 -16 -16 -17 -17 -17 -17 -17 -17 -18 -18 -18 -18 -19 -20 -20 -21 -21 -21 -22 -22 -22 -22 -23 -23 -23 -24 -24
-16 -15 -15 -16 -15 -16 -16 -16 -16 -16 -16 -16 -16 -16 -15 -16 -16 -16 -17 -17 -17 -17 -17 -18 -18 -19 -19 -19 -20 -20 -21 -21 -22 -22 -22 -22 -23 -23 -23 -24 -24 -25 -26
-16 -16 -16 -16 -16 -15 -17 -16 -16 -16 -16 -16 -16 -16 -16 -16 -17 -17 -17 -17 -17 -17 -17 -18 -19 -20 -20 -20 -21 -21 -22 -22 -22 -22 -23 -23 -23 -23 -24 -25 -25 -26 -28
-15 -15 -16 -16 -16 -16 -16 -16 -16 -16 -16 -16 -16 -16 -16 -17 -17 -17 -17 -17 -17 -18 -18 -19 -19 -20 -20 -21 -21 -22 -22 -22 -22 -23 -23 -23 -24 -24 -25 -26 -27 -28 -29
-15 -16 -16 -16 -17 -16 -16 -16 -16 -16 -16 -16 -16 -17 -17 -17 -17 -17 -17 -18 -18 -18 -18 -18 -19 -20 -20 -21 -21 -22 -22 -23 -23 -23 -24 -24 -24 -25 -25 -27 -29 -31 -31
-16 -16 -16 -16 -17 -17 -17 -17 -16 -16 -17 -17 -17 -17 -17 -17 -17 -17 -18 -18 -18 -18 -18 -18 -19 -20 -20 -21 -22 -22 -22 -23 -23 -24 -24 -25 -26 -27 -30 -31 -31 -32 -33
-17 -17 -17 -16 -16 -16 -17 -17 -17 -17 -17 -17 -17 -17 -17 -17 -17 -18 -18 -18 -19 -19 -19 -19 -19 -20 -21 -21 -22 -22 -23 -23 -23 -24 -25 -27 -28 -29 -31 -32 -32 -33 -33
-16 -16 -16 -16 -17 -17 -17 -17 -17 -17 -17 -17 -17 -17 -17 -17 -18 -18 -18 -19 -19 -19 -20 -20 -20 -20 -21 -22 -22 -23 -23 -23 -24 -25 -26 -28 -29 -31 -32 -34 -34 -35 -35
-17 -17 -17 -17 -17 -17 -17 -17 -17 -17 -17 -17 -17 -17 -17 -18 -18 -18 -19 -19 -19 -20 -20 -20 -21 -21 -21 -22 -22 -23 -23 -23 -24 -26 -28 -29 -31 -32 -33 -34 -36 -35 -35
-16 -17 -17 -17 -17 -17 -17 -18 -17 -17 -17 -17 -17 -17 -18 -18 -18 -19 -19 -19 -19 -20 -20 -21 -21 -21 -22 -22 -23 -23 -24 -25 -25 -27 -29 -30 -31 -32 -33 -34 -36 -36 -36
-17 -17 -17 -17 -18 -18 -17 -17 -17 -17 -17 -17 -18 -18 -18 -18 -19 -19 -19 -19 -20 -21 -21 -21 -21 -22 -22 -23 -23 -24 -25 -26 -27 -29 -31 -31 -31 -32 -33 -36 -36 -36 -36
-17 -17 -18 -18 -18 -18 -17 -17 -17 -17 -18 -18 -18 -19 -19 -19 -19 -19 -20 -20 -21 -21 -21 -22 -22 -23 -24 -24 -25 -25 -26 -27 -29 -31 -31 -31 -32 -33 -35 -36 -36 -36 -36
-17 -17 -17 -17 -17 -17 -17 -17 -18 -18 -18 -18 -19 -19 -19 -19 -20 -20 -20 -20 -21 -22 -22 -22 -23 -24 -24 -25 -26 -26 -27 -29 -30 -31 -32 -32 -33 -35 -36 -37 -37 -36 -36
-17 -17 -17 -17 -17 -17 -18 -18 -18 -18 -19 -19 -19 -19 -20 -20 -20 -20 -21 -21 -21 -22 -22 -23 -24 -24 -25 -25 -26 -28 -29 -31 -31 -32 -32 -33 -35 -36 -36 -37 -37 -37 -36

GFSMA_500_temp_069.txt.gz
Temp
-12 -12 -12 -12 -12 -12 -12 -12 -13 -13 -14 -15 -15 -15 -15 -14 -14 -14 -15 -14 -14 -14 -14 -14 -14 -14 -14 -14 -14 -14 -14 -14 -14 -14 -14 -14 -14 -14 -14 -14 -14 -14 -15
-12 -12 -12 -12 -12 -13 -12 -13 -14 -14 -16 -16 -15 -15 -15 -15 -15 -15 -15 -14 -14 -14 -14 -14 -14 -14 -14 -14 -14 -14 -14 -14 -14 -14 -15 -14 -15 -15 -15 -15 -15 -15 -15
-12 -13 -13 -13 -13 -13 -14 -14 -14 -15 -16 -16 -15 -15 -15 -15 -15 -15 -15 -15 -15 -14 -14 -14 -14 -14 -14 -14 -14 -14 -14 -15 -15 -15 -15 -15 -15 -16 -16 -16 -16 -16 -16
-13 -13 -13 -13 -14 -14 -14 -15 -16 -16 -16 -16 -15 -15 -15 -15 -15 -15 -15 -15 -15 -15 -15 -15 -15 -15 -15 -15 -15 -15 -15 -15 -15 -15 -16 -16 -16 -16 -16 -16 -16 -17 -17
-13 -13 -13 -14 -14 -14 -15 -16 -16 -16 -16 -16 -15 -16 -16 -16 -16 -16 -15 -15 -15 -15 -15 -15 -15 -15 -15 -15 -15 -15 -16 -15 -16 -16 -17 -16 -16 -16 -16 -16 -17 -17 -18
-14 -14 -14 -14 -15 -15 -16 -16 -16 -16 -16 -16 -16 -16 -16 -15 -15 -15 -15 -15 -15 -15 -15 -15 -15 -16 -16 -16 -16 -16 -16 -16 -16 -17 -17 -16 -16 -17 -17 -17 -18 -18 -18
-14 -13 -14 -15 -16 -17 -16 -16 -16 -16 -16 -16 -16 -15 -15 -15 -15 -15 -15 -15 -15 -15 -15 -16 -16 -16 -16 -16 -16 -16 -16 -17 -17 -17 -17 -17 -17 -18 -18 -18 -18 -19 -19
-14 -15 -15 -16 -16 -16 -16 -17 -17 -16 -16 -16 -16 -16 -15 -15 -15 -15 -15 -15 -14 -15 -15 -16 -16 -16 -16 -17 -17 -17 -17 -17 -17 -17 -18 -18 -18 -18 -19 -19 -19 -20 -20
-16 -16 -16 -16 -16 -16 -16 -16 -16 -16 -16 -16 -16 -15 -15 -15 -15 -15 -15 -15 -15 -15 -15 -16 -16 -16 -17 -17 -17 -17 -17 -17 -18 -18 -18 -19 -19 -19 -19 -20 -20 -20 -21
-15 -16 -16 -16 -16 -16 -16 -16 -16 -17 -16 -15 -15 -14 -14 -14 -14 -14 -15 -15 -15 -15 -15 -16 -16 -16 -17 -17 -17 -17 -17 -18 -18 -19 -19 -19 -19 -20 -20 -21 -21 -21 -21
-15 -16 -16 -15 -15 -16 -16 -16 -16 -16 -16 -15 -15 -15 -15 -15 -15 -15 -15 -15 -16 -16 -16 -16 -16 -16 -16 -16 -16 -17 -18 -18 -18 -18 -19 -19 -20 -20 -21 -21 -21 -21 -22
-15 -16 -15 -15 -15 -16 -16 -16 -16 -16 -16 -16 -15 -15 -15 -15 -15 -16 -16 -16 -16 -16 -16 -16 -17 -17 -17 -17 -17 -18 -18 -18 -18 -18 -19 -19 -20 -20 -21 -22 -22 -22 -23
-15 -16 -15 -15 -16 -16 -16 -16 -16 -16 -16 -16 -16 -16 -15 -16 -15 -16 -16 -16 -16 -16 -16 -17 -17 -17 -17 -17 -18 -18 -18 -18 -19 -19 -20 -20 -21 -21 -22 -22 -22 -23 -23
-15 -16 -16 -16 -16 -16 -16 -16 -16 -16 -16 -16 -16 -16 -16 -16 -16 -15 -16 -16 -16 -16 -17 -17 -18 -18 -18 -18 -18 -18 -19 -19 -20 -20 -21 -21 -21 -22 -22 -23 -23 -23 -24
-16 -16 -16 -16 -17 -16 -16 -15 -16 -16 -16 -16 -16 -16 -16 -16 -16 -16 -16 -16 -16 -17 -17 -18 -18 -18 -18 -18 -19 -19 -19 -20 -20 -21 -21 -22 -22 -23 -23 -23 -24 -24 -25
-16 -16 -16 -15 -16 -16 -16 -16 -16 -16 -16 -16 -16 -16 -16 -16 -16 -16 -16 -17 -17 -17 -17 -18 -18 -19 -19 -19 -19 -20 -20 -20 -21 -21 -22 -22 -23 -23 -23 -24 -24 -26 -27
-16 -15 -15 -15 -16 -16 -16 -16 -17 -17 -16 -16 -16 -16 -16 -16 -17 -17 -17 -17 -17 -17 -18 -18 -18 -18 -19 -19 -20 -20 -20 -21 -21 -21 -22 -23 -23 -24 -24 -25 -26 -28 -29
-16 -16 -15 -15 -16 -16 -17 -17 -16 -16 -16 -16 -17 -17 -16 -17 -17 -17 -17 -17 -18 -18 -18 -18 -18 -19 -19 -19 -20 -20 -21 -21 -21 -22 -22 -23 -23 -24 -25 -26 -28 -29 -30
-15 -16 -16 -16 -17 -17 -17 -16 -16 -16 -17 -17 -17 -17 -17 -17 -17 -17 -17 -18 -18 -18 -18 -18 -18 -19 -19 -20 -20 -21 -21 -21 -22 -22 -23 -23 -24 -25 -26 -27 -29 -31 -32
-16 -16 -16 -17 -17 -17 -17 -17 -17 -17 -17 -17 -17 -17 -17 -17 -18 -18 -18 -18 -18 -18 -19 -19 -19 -19 -20 -20 -21 -21 -21 -22 -22 -23 -24 -24 -25 -25 -27 -29 -30 -31 -32
-16 -17 -17 -16 -17 -17 -17 -17 -17 -17 -17 -17 -17 -17 -18 -18 -18 -18 -19 -18 -19 -19 -19 -19 -20 -20 -20 -21 -21 -21 -22 -22 -23 -23 -23 -24 -25 -26 -28 -30 -31 -32 -32
-17 -17 -17 -17 -17 -17 -18 -18 -18 -18 -18 -18 -18 -18 -18 -18 -18 -19 -19 -19 -19 -19 -20 -20 -20 -21 -21 -21 -21 -22 -22 -23 -22 -23 -24 -24 -26 -27 -30 -31 -32 -32 -33
-17 -17 -17 -17 -17 -18 -18 -18 -18 -18 -18 -18 -18 -18 -18 -19 -19 -19 -20 -20 -20 -20 -20 -20 -20 -21 -21 -22 -22 -22 -23 -23 -23 -24 -25 -25 -27 -29 -31 -32 -32 -33 -34
-17 -17 -17 -17 -18 -18 -18 -18 -18 -18 -18 -19 -19 -19 -19 -19 -19 -20 -20 -20 -20 -20 -20 -20 -21 -21 -22 -22 -22 -23 -23 -23 -24 -25 -26 -26 -29 -30 -31 -32 -33 -34 -35
-16 -17 -17 -18 -18 -18 -18 -18 -18 -19 -18 -19 -19 -19 -19 -19 -19 -20 -20 -20 -20 -20 -21 -21 -21 -22 -22 -23 -23 -24 -24 -24 -24 -25 -27 -28 -30 -31 -33 -33 -34 -35 -36
-17 -17 -18 -18 -18 -18 -19 -19 -19 -19 -19 -19 -19 -19 -20 -20 -20 -20 -20 -20 -20 -21 -21 -22 -22 -23 -23 -24 -24 -25 -25 -25 -26 -25 -29 -30 -31 -33 -33 -34 -36 -36 -37

GFSMA_500_temp_072.txt.gz
Temp
-12 -12 -12 -11 -12 -12 -13 -13 -14 -13 -13 -13 -13 -14 -15 -16 -15 -15 -15 -15 -15 -15 -15 -14 -14 -14 -14 -14 -14 -14 -14 -14 -14 -14 -14 -14 -14 -14 -14 -14 -14 -14 -15
-12 -12 -12 -12 -12 -13 -13 -14 -14 -13 -14 -14 -14 -14 -16 -16 -15 -15 -15 -15 -15 -15 -15 -14 -14 -14 -14 -14 -14 -14 -14 -14 -14 -14 -14 -14 -14 -14 -14 -15 -15 -15 -15
-13 -13 -13 -13 -13 -13 -13 -14 -14 -14 -14 -15 -15 -16 -16 -16 -15 -15 -15 -15 -15 -15 -15 -15 -14 -14 -14 -14 -14 -14 -14 -14 -14 -15 -15 -14 -15 -15 -15 -15 -16 -16 -16
-13 -13 -13 -13 -13 -13 -14 -15 -15 -15 -15 -16 -16 -16 -16 -15 -15 -16 -15 -15 -15 -15 -15 -15 -15 -15 -15 -15 -15 -15 -16 -15 -15 -15 -15 -15 -15 -15 -15 -16 -16 -16 -17
-13 -13 -13 -13 -13 -14 -14 -15 -15 -16 -16 -17 -16 -16 -16 -16 -16 -16 -15 -15 -15 -15 -15 -15 -15 -15 -15 -15 -15 -16 -16 -16 -16 -16 -15 -15 -15 -16 -16 -16 -17 -17 -18
-13 -13 -13 -14 -14 -15 -15 -15 -15 -16 -17 -17 -16 -16 -16 -16 -16 -16 -15 -15 -15 -14 -15 -15 -15 -15 -15 -15 -16 -16 -16 -16 -16 -15 -16 -16 -16 -16 -17 -17 -17 -18 -18
-14 -14 -14 -14 -15 -15 -15 -15 -16 -16 -16 -17 -17 -17 -16 -16 -16 -16 -15 -15 -15 -15 -15 -15 -15 -15 -16 -16 -16 -16 -16 -16 -16 -16 -16 -16 -17 -17 -18 -18 -18 -18 -18
-14 -14 -14 -14 -16 -16 -15 -16 -16 -16 -16 -16 -16 -16 -16 -16 -15 -15 -15 -15 -15 -14 -15 -15 -15 -15 -16 -17 -16 -16 -17 -16 -16 -16 -17 -17 -18 -18 -18 -18 -18 -18 -19
-14 -14 -15 -15 -16 -15 -16 -16 -16 -16 -16 -16 -16 -16 -16 -15 -15 -15 -15 -15 -15 -15 -16 -16 -16 -16 -16 -17 -16 -16 -16 -17 -17 -17 -18 -18 -18 -18 -18 -19 -19 -19 -19
-14 -15 -15 -16 -16 -16 -16 -16 -16 -16 -16 -16 -16 -16 -16 -15 -15 -15 -15 -15 -15 -15 -15 -15 -16 -16 -16 -16 -16 -16 -17 -18 -18 -18 -18 -18 -18 -18 -19 -19 -20 -20 -20
-16 -15 -15 -16 -16 -16 -16 -16 -16 -16 -16 -16 -16 -16 -16 -15 -15 -15 -15 -15 -15 -15 -16 -16 -16 -16 -16 -16 -17 -17 -17 -18 -18 -18 -18 -18 -19 -19 -19 -20 -20 -20 -21
-16 -15 -15 -15 -15 -16 -16 -16 -16 -16 -17 -16 -16 -16 -16 -15 -15 -15 -15 -15 -16 -16 -16 -16 -16 -17 -17 -17 -17 -17 -18 -18 -18 -18 -18 -19 -19 -19 -20 -20 -21 -21 -21
-16 -16 -16 -15 -15 -15 -15 -15 -16 -16 -16 -17 -16 -16 -16 -16 -16 -15 -16 -16 -16 -16 -16 -16 -17 -17 -17 -17 -18 -18 -18 -18 -18 -18 -19 -19 -19 -20 -20 -21 -21 -22 -22
-15 -16 -16 -16 -15 -15 -15 -15 -16 -16 -16 -16 -16 -16 -16 -16 -16 -15 -16 -16 -16 -16 -17 -17 -17 -17 -17 -18 -18 -18 -18 -18 -19 -19 -19 -20 -20 -21 -21 -21 -22 -23 -23
-16 -16 -16 -16 -16 -15 -16 -16 -16 -16 -16 -17 -16 -16 -16 -16 -16 -16 -16 -16 -16 -17 -17 -17 -17 -18 -18 -18 -18 -18 -18 -19 -19 -19 -20 -20 -20 -21 -21 -22 -22 -23 -24
-15 -15 -16 -16 -16 -16 -16 -16 -16 -16 -16 -16 -16 -16 -17 -16 -16 -16 -17 -17 -17 -17 -17 -17 -18 -18 -18 -19 -19 -19 -19 -19 -19 -20 -20 -21 -21 -21 -22 -22 -23 -24 -24
-16 -16 -16 -15 -16 -15 -16 -15 -16 -16 -16 -16 -16 -17 -17 -16 -17 -17 -17 -17 -17 -17 -17 -18 -18 -18 -18 -19 -19 -19 -19 -20 -20 -21 -21 -21 -22 -22 -22 -23 -24 -24 -25
-17 -16 -16 -15 -15 -15 -15 -15 -16 -16 -16 -17 -17 -17 -17 -17 -17 -17 -18 -18 -18 -18 -17 -18 -18 -18 -19 -19 -19 -19 -20 -20 -21 -21 -21 -22 -22 -22 -23 -23 -24 -25 -25
-16 -17 -16 -15 -16 -16 -15 -16 -16 -16 -17 -17 -17 -17 -17 -17 -17 -17 -17 -18 -18 -18 -18 -18 -18 -19 -19 -19 -20 -20 -20 -21 -21 -21 -22 -22 -22 -23 -23 -24 -24 -24 -25
-15 -15 -16 -16 -16 -16 -16 -16 -17 -17 -17 -17 -17 -17 -17 -17 -18 -18 -18 -18 -18 -18 -19 -18 -19 -19 -19 -20 -20 -20 -20 -21 -21 -21 -22 -22 -23 -23 -24 -24 -24 -24 -24
-16 -16 -16 -16 -16 -17 -17 -17 -17 -17 -17 -17 -17 -17 -18 -18 -18 -18 -18 -18 -19 -19 -19 -19 -20 -20 -20 -20 -20 -20 -20 -20 -21 -22 -22 -23 -23 -23 -24 -24 -24 -24 -25
-16 -16 -16 -17 -17 -17 -17 -18 -18 -17 -17 -17 -18 -18 -18 -18 -18 -18 -19 -19 -19 -19 -19 -20 -20 -20 -21 -21 -21 -21 -21 -21 -21 -22 -22 -23 -23 -23 -24 -24 -24 -24 -27
-16 -16 -17 -17 -17 -17 -18 -18 -18 -18 -18 -18 -18 -18 -18 -18 -19 -19 -19 -19 -19 -20 -20 -20 -21 -21 -21 -21 -21 -21 -21 -21 -22 -23 -23 -22 -23 -23 -24 -25 -25 -26 -29
-16 -16 -16 -16 -17 -17 -18 -18 -18 -18 -18 -18 -18 -18 -18 -19 -19 -19 -19 -19 -20 -20 -20 -21 -21 -21 -21 -21 -21 -21 -21 -21 -22 -23 -24 -23 -24 -24 -25 -26 -27 -29 -30
-16 -16 -16 -17 -17 -17 -17 -18 -17 -17 -17 -18 -18 -19 -19 -19 -19 -19 -20 -20 -20 -21 -21 -21 -21 -21 -21 -21 -22 -22 -22 -22 -22 -24 -25 -24 -25 -25 -26 -27 -29 -30 -31
-16 -16 -16 -16 -17 -17 -18 -17 -17 -18 -18 -18 -19 -19 -19 -19 -19 -20 -20 -21 -21 -21 -21 -21 -21 -21 -21 -22 -22 -23 -23 -24 -24 -24 -26 -25 -26 -27 -26 -29 -31 -31 -32

GFSMA_500_temp_075.txt.gz
Temp
-12 -11 -12 -12 -12 -12 -12 -12 -12 -13 -13 -13 -13 -13 -13 -14 -15 -16 -16 -15 -15 -15 -15 -15 -15 -14 -14 -14 -14 -14 -14 -14 -14 -14 -14 -14 -14 -14 -14 -14 -14 -14 -14
-12 -12 -12 -12 -12 -12 -12 -13 -12 -13 -13 -14 -14 -14 -14 -15 -15 -16 -16 -16 -15 -15 -15 -15 -15 -14 -14 -14 -14 -14 -14 -14 -14 -14 -15 -15 -15 -15 -15 -15 -15 -15 -15
-12 -12 -12 -12 -12 -12 -12 -13 -13 -13 -14 -14 -14 -14 -15 -16 -16 -16 -16 -16 -15 -15 -15 -15 -15 -15 -14 -14 -14 -14 -14 -14 -15 -15 -15 -15 -15 -15 -15 -15 -15 -16 -16
-12 -13 -13 -13 -12 -12 -13 -14 -13 -14 -15 -14 -15 -15 -16 -17 -16 -16 -16 -16 -16 -15 -15 -15 -15 -15 -14 -14 -14 -14 -14 -15 -15 -15 -15 -15 -15 -15 -15 -15 -16 -17 -17
-13 -13 -13 -13 -13 -13 -13 -14 -14 -15 -15 -15 -16 -16 -17 -17 -16 -16 -16 -16 -16 -15 -15 -15 -15 -15 -15 -15 -15 -15 -15 -16 -16 -16 -16 -15 -16 -16 -16 -17 -17 -17 -17
-13 -13 -13 -13 -13 -14 -14 -14 -15 -14 -14 -15 -15 -16 -17 -17 -17 -16 -16 -16 -15 -16 -15 -15 -15 -15 -15 -15 -15 -15 -16 -15 -16 -16 -16 -16 -16 -16 -16 -17 -17 -17 -17
-14 -14 -14 -14 -14 -14 -15 -15 -14 -15 -15 -16 -16 -17 -18 -18 -17 -17 -16 -16 -16 -16 -15 -15 -15 -15 -15 -15 -15 -15 -16 -16 -16 -16 -16 -16 -16 -17 -17 -17 -17 -18 -18
-14 -14 -14 -14 -14 -14 -15 -15 -15 -15 -16 -16 -17 -17 -17 -17 -17 -16 -16 -16 -15 -16 -15 -15 -15 -16 -15 -15 -15 -15 -16 -16 -16 -16 -16 -16 -17 -17 -17 -18 -18 -18 -18
-14 -14 -14 -14 -14 -15 -15 -16 -16 -16 -16 -16 -16 -16 -16 -16 -16 -16 -16 -16 -16 -16 -16 -16 -16 -16 -16 -16 -16 -16 -17 -17 -16 -16 -17 -17 -17 -17 -18 -18 -18 -18 -19
-14 -14 -15 -14 -15 -15 -16 -16 -16 -16 -16 -16 -16 -16 -16 -16 -16 -16 -16 -16 -16 -16 -15 -16 -16 -16 -16 -16 -16 -16 -16 -17 -17 -17 -17 -18 -18 -18 -18 -18 -18 -19 -19
-14 -14 -14 -15 -15 -15 -16 -16 -16 -16 -16 -16 -17 -16 -16 -16 -16 -16 -16 -16 -16 -16 -16 -16 -16 -16 -16 -16 -16 -16 -16 -17 -17 -17 -18 -18 -18 -18 -19 -19 -19 -19 -20
-14 -14 -14 -14 -15 -15 -15 -15 -15 -15 -16 -16 -16 -16 -16 -16 -16 -16 -16 -15 -15 -15 -15 -16 -16 -16 -17 -17 -17 -16 -17 -17 -17 -17 -18 -18 -18 -18 -19 -19 -20 -20 -20
-14 -15 -15 -15 -15 -15 -15 -15 -15 -15 -15 -15 -16 -16 -15 -16 -16 -16 -15 -15 -15 -16 -16 -17 -17 -17 -17 -17 -17 -17 -17 -17 -17 -18 -18 -18 -18 -19 -19 -20 -20 -20 -21
-15 -15 -15 -15 -15 -16 -15 -15 -15 -15 -15 -16 -16 -16 -16 -16 -17 -16 -16 -16 -16 -16 -17 -17 -17 -17 -17 -17 -17 -17 -17 -17 -18 -18 -18 -18 -19 -19 -20 -20 -21 -21 -21
-15 -15 -15 -15 -16 -16 -16 -16 -16 -16 -16 -16 -16 -16 -17 -16 -17 -16 -16 -17 -17 -17 -17 -17 -17 -17 -17 -18 -18 -18 -18 -18 -18 -18 -19 -19 -19 -20 -20 -20 -21 -21 -21
-16 -15 -15 -16 -16 -16 -16 -15 -15 -16 -16 -16 -16 -16 -16 -16 -16 -16 -17 -17 -17 -17 -17 -18 -18 -18 -18 -18 -18 -18 -18 -18 -18 -19 -20 -20 -20 -20 -21 -21 -21 -21 -22
-16 -16 -16 -16 -16 -16 -16 -16 -16 -16 -16 -16 -16 -16 -16 -16 -16 -17 -18 -18 -17 -17 -17 -17 -18 -18 -18 -18 -19 -18 -18 -19 -19 -20 -20 -21 -21 -21 -21 -21 -21 -22 -23
-16 -16 -16 -16 -16 -16 -16 -16 -16 -16 -15 -15 -16 -16 -16 -16 -16 -17 -18 -18 -17 -17 -17 -18 -18 -18 -19 -18 -18 -19 -19 -20 -20 -20 -21 -21 -21 -21 -21 -22 -22 -23 -23
-15 -17 -16 -16 -17 -16 -17 -16 -16 -15 -15 -16 -16 -16 -16 -17 -17 -17 -17 -17 -17 -17 -18 -18 -18 -18 -18 -18 -19 -19 -20 -20 -21 -21 -21 -21 -21 -21 -22 -22 -23 -23 -24
-15 -16 -16 -16 -16 -16 -17 -17 -16 -16 -16 -16 -16 -17 -17 -17 -17 -17 -17 -17 -17 -18 -18 -18 -18 -18 -19 -19 -19 -19 -20 -20 -21 -21 -21 -21 -21 -22 -22 -22 -23 -23 -24
-16 -16 -16 -16 -16 -15 -16 -16 -16 -17 -16 -16 -16 -17 -17 -17 -17 -17 -17 -18 -18 -18 -18 -18 -18 -18 -19 -19 -19 -20 -20 -21 -21 -21 -21 -22 -21 -22 -23 -23 -24 -24 -24
-16 -16 -16 -16 -16 -16 -16 -16 -16 -17 -17 -17 -17 -17 -17 -17 -17 -18 -18 -18 -19 -19 -19 -19 -19 -19 -20 -20 -20 -21 -21 -21 -21 -21 -21 -22 -22 -22 -23 -24 -24 -23 -24
-16 -16 -16 -16 -16 -16 -16 -16 -16 -16 -16 -17 -17 -17 -17 -18 -18 -18 -18 -19 -19 -19 -19 -19 -20 -20 -20 -21 -21 -21 -21 -21 -21 -21 -22 -22 -22 -23 -23 -23 -24 -24 -24
-16 -16 -16 -16 -16 -17 -17 -17 -16 -16 -17 -17 -17 -17 -17 -18 -18 -18 -19 -19 -19 -19 -20 -20 -20 -20 -21 -21 -21 -21 -21 -21 -22 -22 -23 -22 -23 -23 -23 -24 -25 -25 -25
-16 -16 -16 -16 -16 -17 -16 -17 -17 -17 -17 -17 -17 -18 -18 -18 -18 -19 -19 -19 -20 -20 -20 -20 -21 -21 -21 -21 -21 -21 -21 -21 -22 -23 -23 -22 -23 -24 -24 -25 -26 -26 -26
-16 -16 -16 -16 -16 -16 -16 -17 -17 -17 -17 -17 -18 -17 -18 -18 -19 -19 -20 -20 -20 -21 -21 -21 -21 -21 -21 -21 -21 -21 -22 -22 -23 -23 -24 -23 -25 -25 -24 -26 -27 -27 -28

GFSMA_500_temp_081.txt.gz
Temp
-12 -12 -12 -12 -12 -12 -12 -12 -12 -13 -13 -12 -12 -12 -12 -12 -12 -12 -12 -12 -12 -13 -14 -15 -15 -15 -15 -16 -15 -14 -14 -14 -14 -14 -14 -14 -14 -14 -14 -14 -14 -14 -15
-12 -12 -12 -12 -12 -11 -12 -12 -12 -12 -12 -12 -12 -12 -12 -12 -12 -12 -13 -13 -13 -14 -15 -16 -16 -16 -16 -15 -15 -15 -14 -14 -14 -14 -14 -15 -15 -15 -15 -15 -15 -15 -15
-12 -11 -12 -11 -12 -12 -12 -12 -12 -11 -12 -12 -12 -12 -12 -13 -13 -13 -13 -13 -14 -14 -15 -16 -16 -16 -16 -15 -15 -15 -15 -15 -15 -15 -15 -15 -15 -15 -15 -15 -15 -16 -16
-12 -12 -12 -12 -12 -12 -12 -12 -12 -11 -12 -13 -13 -13 -13 -13 -13 -12 -12 -13 -14 -15 -16 -16 -16 -16 -17 -16 -15 -15 -15 -15 -15 -15 -15 -15 -15 -15 -15 -15 -16 -16 -16
-12 -12 -12 -12 -12 -12 -12 -12 -12 -12 -12 -12 -13 -13 -13 -13 -13 -13 -13 -14 -15 -16 -16 -17 -17 -17 -16 -15 -15 -15 -16 -15 -15 -15 -15 -15 -15 -15 -15 -16 -16 -16 -16
-12 -12 -12 -12 -12 -12 -12 -12 -12 -12 -12 -13 -13 -13 -13 -13 -14 -13 -14 -15 -16 -17 -17 -17 -17 -17 -16 -15 -16 -16 -15 -15 -15 -15 -15 -15 -15 -16 -15 -16 -16 -16 -16
-13 -12 -12 -12 -12 -12 -13 -13 -13 -13 -14 -14 -13 -14 -14 -14 -14 -14 -15 -16 -17 -16 -17 -17 -17 -16 -16 -16 -16 -15 -15 -15 -15 -15 -15 -15 -15 -15 -15 -16 -16 -16 -16
-13 -13 -13 -13 -13 -13 -14 -14 -14 -14 -14 -14 -14 -14 -14 -14 -14 -14 -15 -16 -16 -16 -16 -16 -16 -16 -16 -16 -15 -15 -15 -15 -15 -15 -16 -16 -15 -16 -16 -16 -16 -16 -16
-13 -13 -13 -14 -13 -14 -14 -14 -14 -14 -14 -14 -14 -14 -15 -15 -15 -15 -16 -16 -16 -16 -16 -16 -16 -16 -15 -15 -15 -15 -15 -15 -15 -15 -15 -16 -16 -16 -16 -16 -16 -17 -17
-14 -14 -14 -14 -14 -14 -14 -14 -14 -14 -14 -14 -14 -15 -15 -16 -16 -16 -16 -16 -16 -16 -16 -15 -16 -16 -16 -16 -15 -15 -15 -15 -15 -15 -16 -16 -16 -16 -16 -16 -16 -16 -16
-14 -14 -14 -14 -14 -14 -14 -14 -14 -14 -14 -14 -15 -15 -16 -16 -16 -16 -16 -16 -16 -16 -16 -16 -16 -15 -15 -15 -16 -15 -15 -15 -15 -16 -16 -16 -16 -17 -16 -16 -17 -17 -17
-14 -14 -14 -14 -14 -14 -15 -14 -14 -15 -15 -15 -16 -16 -16 -16 -16 -16 -16 -16 -16 -16 -16 -16 -16 -15 -15 -15 -15 -15 -16 -16 -16 -16 -16 -16 -17 -17 -17 -17 -17 -17 -17
-14 -14 -14 -15 -15 -15 -15 -15 -15 -15 -15 -16 -16 -16 -16 -16 -16 -16 -16 -16 -16 -16 -16 -15 -16 -16 -15 -15 -15 -16 -16 -16 -16 -17 -17 -17 -17 -17 -17 -17 -18 -18 -18
-14 -14 -14 -14 -14 -14 -14 -14 -15 -15 -15 -15 -15 -16 -16 -16 -16 -16 -16 -16 -16 -16 -16 -15 -15 -16 -15 -15 -16 -16 -16 -16 -16 -16 -17 -17 -17 -17 -17 -18 -18 -18 -18
-13 -13 -14 -14 -14 -15 -15 -15 -15 -15 -15 -15 -16 -16 -16 -17 -16 -16 -16 -16 -16 -15 -16 -16 -15 -16 -16 -15 -16 -16 -16 -16 -16 -17 -17 -17 -17 -18 -18 -18 -18 -18 -18
-14 -14 -14 -14 -14 -14 -15 -15 -15 -16 -16 -17 -16 -16 -16 -16 -16 -16 -16 -16 -16 -15 -15 -16 -16 -16 -16 -16 -16 -17 -16 -17 -17 -17 -18 -18 -18 -18 -18 -19 -19 -19 -19
-14 -14 -14 -14 -14 -14 -14 -14 -15 -15 -15 -16 -16 -16 -16 -16 -16 -16 -16 -16 -16 -16 -16 -16 -16 -16 -16 -16 -15 -16 -17 -18 -17 -17 -18 -18 -18 -18 -19 -19 -19 -19 -19
-14 -14 -14 -14 -15 -15 -15 -15 -15 -15 -15 -15 -16 -16 -16 -16 -16 -16 -16 -16 -15 -16 -16 -16 -16 -16 -17 -16 -16 -17 -17 -17 -17 -17 -18 -18 -18 -18 -19 -19 -19 -19 -20
-14 -14 -14 -14 -15 -15 -15 -15 -15 -16 -15 -16 -15 -15 -16 -16 -15 -16 -16 -15 -15 -16 -16 -16 -17 -17 -17 -17 -18 -18 -18 -17 -17 -18 -18 -18 -18 -19 -19 -19 -20 -20 -20
-14 -15 -15 -14 -15 -15 -15 -15 -15 -16 -16 -16 -16 -15 -16 -15 -16 -16 -16 -16 -16 -16 -16 -16 -16 -17 -17 -18 -18 -18 -17 -18 -18 -18 -18 -19 -19 -19 -20 -20 -20 -20 -20
-15 -15 -15 -15 -15 -15 -15 -15 -15 -16 -15 -16 -16 -16 -16 -16 -16 -16 -16 -16 -16 -16 -17 -17 -17 -17 -17 -17 -18 -18 -18 -18 -18 -19 -19 -19 -19 -20 -20 -20 -20 -20 -21
-16 -16 -16 -16 -15 -15 -15 -16 -16 -16 -15 -15 -15 -16 -16 -16 -16 -16 -16 -16 -16 -17 -17 -17 -17 -17 -18 -18 -18 -19 -19 -19 -19 -19 -19 -20 -20 -20 -20 -20 -21 -21 -21
-16 -16 -16 -16 -16 -16 -15 -16 -16 -16 -16 -15 -16 -16 -16 -16 -16 -16 -16 -17 -17 -17 -17 -17 -18 -17 -18 -18 -19 -18 -19 -19 -19 -20 -20 -20 -20 -20 -21 -20 -21 -21 -21
-16 -16 -17 -17 -16 -16 -16 -16 -16 -16 -16 -16 -16 -16 -16 -16 -16 -17 -17 -17 -17 -17 -17 -17 -17 -18 -18 -18 -18 -18 -19 -19 -19 -20 -20 -20 -20 -20 -20 -20 -21 -21 -21
-16 -16 -16 -17 -17 -16 -16 -16 -16 -16 -16 -16 -16 -16 -16 -16 -16 -17 -17 -17 -17 -17 -18 -17 -17 -17 -17 -18 -18 -19 -19 -19 -19 -20 -20 -20 -20 -20 -21 -21 -21 -22 -22
-17 -17 -17 -17 -17 -17 -16 -16 -16 -16 -16 -16 -16 -16 -16 -17 -17 -17 -17 -17 -17 -18 -18 -18 -18 -18 -18 -18 -19 -19 -19 -20 -20 -20 -20 -20 -21 -21 -21 -21 -22 -22 -23

GFSMA_500_temp_087.txt.gz
Temp
-12 -12 -12 -12 -12 -12 -12 -12 -12 -12 -12 -13 -12 -12 -12 -12 -12 -13 -13 -13 -13 -13 -13 -12 -12 -13 -13 -14 -15 -15 -15 -15 -15 -15 -14 -14 -14 -14 -14 -14 -14 -14 -14
-13 -12 -12 -12 -12 -12 -12 -12 -12 -12 -13 -13 -12 -12 -12 -12 -12 -13 -13 -13 -12 -12 -12 -12 -13 -13 -14 -15 -15 -15 -15 -15 -15 -15 -15 -15 -15 -15 -15 -14 -14 -14 -14
-12 -12 -12 -12 -12 -11 -12 -12 -12 -12 -12 -12 -12 -12 -12 -12 -12 -13 -12 -12 -13 -12 -13 -13 -13 -14 -14 -15 -15 -16 -16 -16 -15 -16 -15 -15 -15 -15 -14 -14 -14 -14 -15
-12 -11 -11 -12 -12 -12 -12 -12 -12 -12 -12 -12 -12 -12 -12 -12 -12 -13 -13 -13 -13 -13 -13 -14 -14 -14 -15 -16 -16 -16 -16 -16 -16 -15 -15 -15 -15 -14 -14 -15 -14 -14 -15
-13 -12 -11 -11 -11 -12 -12 -12 -12 -12 -12 -12 -12 -12 -12 -12 -12 -13 -12 -13 -13 -13 -14 -14 -14 -15 -16 -16 -17 -16 -16 -16 -16 -16 -15 -15 -15 -15 -15 -15 -15 -15 -15
-13 -12 -12 -12 -11 -12 -12 -12 -12 -12 -12 -12 -12 -12 -12 -12 -12 -13 -13 -13 -13 -13 -14 -14 -15 -15 -16 -17 -17 -17 -17 -17 -16 -16 -15 -15 -15 -15 -15 -15 -15 -15 -15
-13 -13 -12 -12 -12 -12 -12 -12 -12 -12 -12 -12 -12 -12 -12 -12 -12 -13 -13 -13 -13 -14 -14 -15 -15 -15 -17 -17 -17 -17 -17 -17 -16 -16 -15 -15 -15 -15 -15 -15 -15 -15 -15
-13 -13 -12 -12 -12 -13 -13 -13 -12 -13 -13 -13 -13 -13 -13 -14 -14 -14 -14 -13 -13 -14 -14 -15 -16 -16 -17 -17 -17 -17 -17 -16 -16 -15 -15 -15 -15 -15 -15 -15 -15 -16 -16
-13 -12 -13 -12 -13 -13 -13 -13 -13 -13 -12 -12 -13 -14 -13 -14 -14 -14 -14 -14 -14 -15 -15 -16 -16 -16 -17 -17 -17 -17 -16 -16 -16 -16 -16 -16 -16 -16 -15 -15 -16 -16 -16
-13 -13 -13 -13 -13 -13 -13 -13 -13 -13 -13 -13 -14 -14 -14 -14 -15 -15 -14 -14 -14 -15 -15 -16 -17 -17 -17 -17 -17 -17 -16 -16 -16 -16 -16 -16 -16 -16 -15 -16 -16 -16 -16
-13 -13 -13 -13 -13 -13 -13 -14 -14 -14 -14 -14 -14 -14 -14 -15 -15 -15 -15 -15 -16 -16 -16 -16 -16 -16 -16 -17 -17 -17 -17 -16 -16 -16 -16 -16 -16 -16 -16 -16 -16 -16 -17
-13 -13 -13 -14 -14 -13 -13 -14 -14 -14 -14 -14 -14 -14 -14 -14 -15 -15 -16 -15 -16 -16 -16 -16 -16 -16 -16 -16 -16 -16 -16 -16 -16 -16 -16 -16 -16 -16 -16 -16 -16 -17 -16
-14 -14 -14 -14 -14 -14 -14 -14 -13 -14 -13 -14 -15 -15 -15 -15 -16 -16 -16 -16 -16 -16 -16 -16 -16 -16 -16 -16 -16 -16 -16 -16 -16 -16 -16 -15 -15 -15 -16 -16 -17 -17 -16
-14 -14 -14 -14 -14 -14 -14 -14 -14 -15 -15 -15 -16 -16 -16 -16 -16 -16 -16 -16 -16 -16 -16 -17 -17 -16 -16 -16 -16 -16 -16 -16 -16 -16 -16 -16 -16 -16 -17 -17 -17 -17 -16
-13 -14 -14 -14 -14 -14 -14 -14 -14 -15 -15 -15 -16 -16 -16 -16 -16 -16 -16 -16 -16 -16 -16 -17 -16 -16 -16 -16 -16 -16 -16 -16 -16 -16 -16 -16 -16 -16 -17 -17 -17 -17 -17
-14 -14 -13 -14 -14 -14 -14 -14 -14 -14 -14 -15 -15 -15 -15 -15 -16 -16 -16 -16 -16 -16 -16 -16 -16 -16 -16 -16 -16 -16 -15 -16 -17 -16 -17 -17 -16 -17 -17 -17 -17 -17 -17
-14 -14 -14 -14 -14 -14 -14 -14 -14 -14 -14 -15 -14 -15 -15 -15 -16 -16 -16 -16 -16 -16 -16 -16 -16 -16 -16 -16 -16 -16 -16 -16 -17 -17 -17 -17 -17 -17 -18 -18 -18 -18 -18
-14 -14 -15 -14 -14 -14 -14 -14 -14 -14 -15 -15 -15 -15 -15 -15 -15 -16 -16 -16 -16 -16 -16 -16 -16 -16 -16 -16 -16 -17 -16 -16 -17 -17 -17 -17 -17 -18 -18 -18 -18 -18 -18
-15 -15 -15 -15 -15 -15 -15 -15 -15 -15 -15 -15 -15 -16 -16 -16 -16 -16 -16 -16 -16 -16 -16 -16 -16 -16 -16 -16 -17 -16 -17 -17 -18 -17 -17 -18 -18 -18 -18 -18 -18 -18 -18
-15 -15 -15 -15 -15 -15 -15 -15 -16 -16 -16 -16 -16 -16 -16 -16 -16 -16 -16 -17 -17 -17 -17 -17 -17 -16 -17 -17 -16 -17 -17 -17 -17 -18 -18 -18 -18 -18 -18 -19 -19 -19 -18
-15 -15 -15 -15 -15 -15 -16 -16 -16 -16 -16 -16 -16 -16 -16 -16 -17 -16 -17 -17 -17 -17 -17 -17 -17 -16 -17 -16 -17 -17 -17 -17 -17 -17 -17 -17 -18 -18 -18 -18 -18 -19 -19
-15 -16 -16 -16 -16 -16 -16 -16 -16 -16 -16 -16 -16 -16 -16 -16 -16 -17 -17 -17 -17 -17 -17 -17 -17 -17 -17 -17 -17 -17 -17 -17 -17 -18 -17 -17 -18 -18 -18 -18 -18 -19 -19
-16 -16 -16 -16 -16 -16 -16 -16 -17 -17 -16 -16 -16 -17 -17 -17 -17 -17 -18 -18 -17 -17 -17 -17 -17 -17 -17 -17 -17 -17 -17 -16 -17 -17 -17 -17 -18 -18 -19 -18 -18 -19 -19
-16 -16 -16 -16 -16 -16 -16 -16 -17 -16 -16 -16 -17 -17 -16 -17 -17 -17 -17 -17 -17 -17 -16 -17 -17 -17 -17 -16 -16 -17 -17 -17 -18 -17 -17 -18 -19 -18 -18 -19 -19 -19 -19
-16 -16 -16 -16 -16 -16 -16 -17 -17 -16 -16 -17 -17 -17 -17 -17 -17 -16 -16 -17 -17 -16 -16 -16 -16 -16 -16 -17 -17 -17 -18 -17 -18 -17 -18 -18 -18 -19 -19 -19 -19 -19 -20
-16 -16 -17 -16 -16 -16 -16 -16 -17 -17 -16 -17 -16 -17 -17 -17 -17 -17 -17 -16 -16 -16 -16 -16 -16 -16 -16 -16 -17 -17 -18 -17 -18 -19 -18 -18 -19 -19 -19 -19 -19 -20 -20

GFSMA_500_temp_090.txt.gz
Temp
-12 -12 -12 -12 -12 -12 -12 -13 -12 -12 -11 -12 -12 -13 -13 -12 -13 -13 -13 -12 -13 -13 -13 -13 -13 -13 -13 -13 -14 -14 -15 -15 -15 -15 -15 -15 -15 -14 -14 -14 -14 -14 -14
-12 -12 -12 -12 -12 -12 -12 -13 -13 -13 -12 -12 -12 -12 -13 -12 -13 -13 -12 -12 -13 -13 -13 -12 -13 -13 -13 -13 -14 -14 -15 -15 -15 -15 -15 -15 -15 -15 -14 -14 -14 -14 -14
-12 -12 -12 -12 -12 -12 -12 -12 -12 -12 -12 -12 -12 -12 -12 -12 -13 -12 -12 -12 -13 -13 -13 -13 -13 -13 -13 -13 -14 -15 -15 -15 -15 -15 -15 -15 -15 -15 -15 -15 -14 -14 -14
-13 -12 -12 -12 -12 -12 -12 -12 -12 -12 -11 -12 -12 -12 -13 -12 -13 -13 -13 -13 -12 -13 -13 -13 -13 -13 -14 -14 -14 -15 -16 -16 -16 -16 -16 -16 -15 -15 -15 -14 -15 -14 -14
-13 -13 -12 -11 -11 -12 -12 -12 -12 -12 -12 -12 -12 -12 -13 -12 -12 -13 -13 -13 -13 -13 -13 -13 -13 -14 -14 -14 -15 -16 -16 -17 -17 -17 -16 -16 -16 -15 -15 -15 -15 -15 -14
-12 -12 -13 -12 -11 -11 -11 -11 -12 -13 -13 -12 -13 -12 -13 -12 -12 -12 -13 -13 -13 -13 -13 -13 -13 -14 -14 -15 -16 -16 -17 -17 -17 -16 -17 -16 -16 -15 -15 -15 -15 -15 -15
-12 -12 -12 -13 -13 -11 -12 -12 -12 -13 -13 -12 -13 -12 -12 -12 -12 -13 -12 -13 -13 -13 -13 -13 -13 -14 -14 -15 -16 -17 -17 -17 -17 -17 -17 -16 -16 -15 -15 -15 -15 -15 -16
-11 -12 -12 -13 -13 -13 -12 -12 -12 -13 -13 -13 -13 -13 -12 -13 -13 -13 -13 -13 -14 -14 -14 -13 -14 -15 -15 -16 -17 -17 -17 -17 -17 -17 -17 -16 -16 -15 -15 -16 -15 -16 -16
-13 -13 -13 -13 -13 -13 -13 -13 -12 -13 -13 -13 -12 -13 -13 -13 -13 -13 -13 -14 -14 -14 -14 -14 -14 -15 -16 -17 -17 -17 -17 -18 -17 -17 -17 -16 -15 -16 -15 -15 -16 -16 -16
-14 -14 -14 -13 -13 -13 -13 -13 -13 -13 -13 -13 -13 -13 -13 -13 -13 -14 -14 -14 -15 -15 -14 -14 -15 -16 -17 -17 -17 -18 -18 -17 -17 -16 -16 -16 -16 -16 -16 -16 -16 -16 -16
-14 -13 -13 -13 -13 -13 -13 -13 -13 -13 -13 -14 -13 -13 -13 -13 -14 -15 -15 -15 -15 -15 -15 -15 -15 -16 -17 -17 -17 -17 -17 -17 -16 -16 -16 -16 -16 -16 -16 -16 -16 -16 -16
-13 -13 -13 -14 -14 -14 -13 -14 -14 -14 -14 -14 -14 -14 -14 -14 -14 -15 -15 -15 -15 -16 -16 -16 -17 -17 -17 -17 -17 -17 -17 -17 -17 -17 -16 -16 -16 -16 -16 -16 -16 -16 -16
-13 -13 -14 -14 -14 -14 -14 -14 -14 -14 -14 -14 -14 -14 -14 -14 -15 -15 -16 -16 -16 -16 -16 -16 -17 -16 -16 -16 -16 -16 -17 -17 -17 -17 -16 -16 -15 -16 -16 -16 -16 -16 -16
-14 -14 -14 -14 -14 -14 -14 -14 -14 -14 -14 -14 -14 -15 -14 -15 -15 -15 -16 -16 -17 -17 -17 -16 -16 -16 -16 -16 -16 -16 -16 -16 -16 -16 -16 -15 -16 -16 -16 -17 -16 -16 -16
-14 -14 -14 -14 -14 -14 -14 -14 -14 -14 -14 -14 -15 -14 -15 -15 -15 -16 -16 -16 -17 -17 -16 -17 -16 -17 -17 -16 -16 -16 -16 -16 -16 -16 -16 -16 -16 -17 -16 -17 -17 -17 -17
-14 -14 -14 -14 -14 -14 -14 -14 -14 -14 -14 -14 -14 -14 -15 -15 -15 -16 -16 -16 -16 -16 -16 -17 -16 -17 -17 -16 -16 -16 -16 -16 -16 -16 -16 -16 -16 -16 -17 -17 -17 -17 -18
-14 -14 -14 -14 -14 -14 -14 -14 -14 -14 -14 -14 -14 -14 -15 -16 -16 -16 -16 -16 -15 -15 -15 -17 -16 -17 -16 -16 -16 -16 -16 -16 -17 -17 -16 -16 -16 -17 -17 -17 -17 -17 -17
-15 -14 -15 -15 -14 -14 -14 -14 -14 -15 -15 -15 -15 -15 -15 -15 -15 -16 -16 -16 -16 -16 -16 -16 -16 -16 -16 -16 -16 -16 -16 -17 -17 -16 -16 -17 -17 -17 -17 -18 -18 -18 -18
-15 -15 -15 -15 -15 -15 -15 -15 -15 -15 -15 -15 -15 -15 -16 -16 -16 -16 -16 -16 -16 -16 -16 -16 -16 -16 -16 -16 -16 -16 -16 -16 -17 -17 -17 -17 -17 -17 -18 -18 -18 -18 -18
-15 -15 -15 -15 -15 -15 -15 -15 -15 -16 -16 -16 -16 -16 -16 -16 -16 -16 -16 -16 -16 -16 -16 -16 -16 -16 -16 -16 -16 -16 -16 -17 -17 -17 -17 -17 -17 -17 -17 -18 -17 -18 -18
-15 -15 -15 -16 -16 -15 -16 -16 -16 -16 -16 -16 -16 -16 -16 -16 -16 -17 -17 -17 -17 -17 -17 -17 -16 -17 -16 -17 -18 -17 -17 -17 -17 -17 -17 -17 -17 -18 -18 -18 -18 -18 -19
-16 -16 -16 -16 -16 -16 -16 -16 -16 -16 -17 -16 -16 -16 -16 -17 -17 -17 -17 -17 -17 -17 -17 -17 -17 -17 -17 -17 -17 -17 -17 -17 -17 -17 -17 -17 -18 -17 -17 -18 -18 -18 -18
-15 -16 -16 -16 -16 -16 -16 -16 -17 -16 -16 -17 -17 -17 -16 -17 -17 -17 -17 -17 -17 -17 -17 -17 -17 -17 -17 -17 -17 -17 -17 -17 -17 -16 -16 -17 -17 -18 -18 -18 -18 -18 -18
-15 -16 -16 -16 -16 -16 -17 -17 -16 -16 -16 -16 -16 -17 -17 -16 -17 -17 -17 -17 -17 -17 -17 -17 -17 -17 -17 -17 -17 -15 -17 -17 -17 -17 -17 -17 -17 -18 -18 -18 -18 -18 -18
-15 -15 -16 -16 -16 -16 -17 -17 -17 -16 -16 -16 -16 -16 -17 -17 -17 -18 -17 -17 -17 -17 -17 -17 -17 -17 -17 -16 -16 -17 -17 -17 -17 -17 -17 -18 -18 -18 -18 -18 -18 -18 -18
-15 -15 -15 -15 -16 -16 -17 -17 -17 -17 -16 -16 -16 -16 -17 -16 -17 -17 -17 -17 -17 -17 -17 -17 -17 -17 -17 -17 -17 -17 -17 -17 -17 -18 -17 -17 -18 -18 -18 -18 -18 -18 -19

GFSMA_500_temp_093.txt.gz
Temp
-11 -11 -11 -11 -12 -12 -12 -12 -12 -12 -13 -12 -12 -12 -12 -13 -13 -13 -13 -13 -13 -13 -13 -13 -13 -12 -12 -12 -12 -13 -13 -14 -14 -14 -14 -14 -14 -15 -14 -14 -14 -14 -14
-12 -11 -12 -12 -12 -12 -12 -12 -12 -13 -13 -12 -12 -13 -13 -13 -13 -13 -13 -13 -13 -13 -13 -12 -13 -13 -13 -12 -13 -13 -14 -14 -14 -15 -15 -15 -15 -15 -15 -15 -14 -14 -14
-12 -12 -12 -12 -12 -12 -12 -12 -12 -11 -12 -13 -13 -12 -13 -13 -13 -13 -13 -13 -13 -13 -13 -13 -13 -13 -13 -13 -13 -13 -14 -14 -15 -15 -15 -15 -15 -15 -15 -15 -15 -14 -14
-13 -13 -12 -12 -12 -12 -12 -12 -11 -12 -12 -13 -13 -13 -13 -13 -13 -13 -12 -13 -13 -13 -13 -13 -13 -13 -13 -13 -13 -13 -14 -14 -15 -15 -16 -16 -16 -16 -16 -15 -15 -15 -15
-13 -13 -13 -13 -13 -13 -13 -12 -12 -12 -12 -13 -13 -13 -13 -13 -13 -13 -13 -13 -13 -14 -13 -14 -14 -13 -13 -13 -13 -14 -15 -15 -16 -16 -16 -16 -17 -16 -16 -15 -15 -15 -15
-13 -13 -13 -13 -13 -13 -13 -12 -12 -12 -12 -13 -13 -13 -13 -13 -13 -13 -13 -13 -13 -13 -13 -13 -13 -13 -13 -14 -14 -14 -15 -16 -16 -16 -17 -17 -17 -16 -16 -16 -15 -15 -15
-13 -13 -13 -13 -12 -12 -13 -13 -12 -12 -12 -12 -12 -13 -12 -12 -13 -13 -13 -13 -13 -13 -13 -13 -13 -13 -13 -13 -14 -14 -15 -17 -17 -17 -17 -17 -17 -17 -17 -16 -15 -15 -15
-12 -13 -12 -12 -13 -13 -13 -13 -13 -12 -11 -12 -13 -13 -13 -13 -13 -13 -13 -13 -13 -13 -14 -14 -14 -14 -14 -14 -14 -15 -16 -17 -17 -17 -18 -18 -17 -17 -17 -16 -16 -15 -16
-12 -13 -13 -13 -13 -13 -13 -13 -13 -13 -13 -13 -13 -13 -13 -13 -13 -13 -13 -13 -13 -13 -13 -14 -14 -14 -14 -14 -15 -15 -16 -17 -18 -18 -18 -18 -17 -17 -17 -16 -16 -16 -16
-13 -13 -13 -14 -13 -13 -13 -13 -13 -13 -13 -13 -13 -13 -13 -13 -13 -13 -13 -13 -13 -14 -14 -15 -15 -15 -15 -15 -15 -16 -17 -18 -18 -18 -18 -18 -17 -17 -16 -16 -16 -16 -16
-12 -13 -13 -14 -13 -14 -14 -13 -13 -13 -13 -13 -13 -13 -14 -14 -13 -13 -13 -14 -14 -15 -15 -15 -15 -15 -15 -15 -16 -17 -17 -18 -17 -17 -17 -17 -17 -17 -16 -16 -16 -16 -16
-12 -13 -13 -13 -13 -13 -13 -13 -13 -14 -13 -14 -13 -13 -14 -14 -14 -14 -14 -15 -15 -15 -15 -15 -15 -15 -16 -16 -17 -17 -17 -17 -17 -17 -17 -17 -17 -17 -16 -16 -16 -16 -16
-12 -13 -14 -13 -13 -14 -13 -14 -13 -13 -14 -14 -14 -14 -14 -14 -14 -14 -15 -15 -16 -16 -16 -16 -16 -16 -16 -16 -17 -16 -16 -17 -17 -17 -17 -17 -17 -16 -16 -16 -16 -16 -16
-13 -14 -14 -14 -14 -14 -14 -14 -14 -14 -14 -14 -14 -14 -14 -14 -14 -15 -15 -15 -16 -16 -16 -16 -16 -17 -17 -17 -17 -17 -17 -17 -17 -17 -17 -17 -16 -16 -16 -16 -16 -16 -16
-13 -13 -13 -13 -13 -14 -13 -13 -14 -14 -14 -14 -14 -14 -14 -14 -14 -15 -15 -15 -16 -16 -16 -16 -16 -17 -17 -17 -17 -17 -17 -17 -17 -17 -17 -16 -16 -16 -16 -16 -16 -16 -16
-13 -13 -14 -14 -14 -13 -13 -13 -14 -14 -14 -14 -14 -14 -15 -15 -15 -15 -15 -15 -16 -16 -16 -17 -17 -17 -17 -17 -17 -17 -17 -17 -16 -17 -17 -16 -16 -16 -16 -16 -16 -16 -16
-13 -14 -14 -14 -14 -14 -14 -14 -14 -14 -14 -14 -14 -14 -15 -15 -16 -16 -16 -15 -16 -16 -16 -16 -16 -17 -16 -16 -17 -17 -17 -16 -16 -17 -16 -16 -16 -16 -16 -17 -16 -17 -17
-14 -14 -14 -14 -14 -14 -14 -14 -14 -14 -14 -14 -14 -14 -15 -15 -15 -15 -16 -16 -16 -16 -16 -16 -16 -16 -16 -16 -17 -16 -17 -17 -17 -17 -17 -17 -17 -17 -17 -17 -17 -17 -17
-15 -14 -14 -14 -14 -14 -14 -15 -14 -14 -15 -15 -15 -15 -15 -15 -15 -16 -16 -16 -16 -16 -16 -16 -16 -16 -17 -17 -17 -17 -17 -17 -17 -17 -17 -17 -17 -17 -17 -17 -17 -17 -17
-15 -15 -15 -15 -15 -15 -15 -15 -15 -15 -15 -15 -15 -15 -15 -16 -16 -16 -16 -16 -16 -16 -16 -16 -15 -16 -17 -17 -17 -17 -17 -18 -17 -17 -17 -17 -17 -17 -17 -17 -17 -18 -17
-15 -15 -15 -15 -15 -15 -15 -15 -15 -15 -15 -15 -15 -15 -15 -15 -16 -16 -16 -16 -16 -16 -16 -16 -15 -16 -16 -16 -17 -17 -17 -17 -17 -17 -17 -17 -17 -17 -17 -17 -18 -18 -18
-15 -15 -15 -15 -15 -16 -16 -16 -16 -16 -16 -16 -16 -16 -16 -16 -16 -16 -16 -16 -16 -16 -16 -16 -16 -16 -16 -16 -17 -17 -17 -17 -17 -17 -17 -17 -17 -17 -17 -18 -18 -18 -18
-15 -16 -16 -16 -16 -16 -16 -16 -16 -16 -16 -16 -16 -16 -16 -16 -17 -16 -17 -17 -16 -16 -16 -16 -16 -16 -16 -17 -17 -17 -17 -18 -17 -17 -17 -17 -17 -17 -18 -18 -18 -18 -18
-15 -15 -15 -15 -16 -16 -16 -16 -16 -16 -15 -16 -16 -17 -17 -17 -17 -17 -17 -17 -16 -16 -16 -16 -16 -16 -17 -17 -17 -17 -17 -17 -17 -17 -17 -17 -17 -17 -17 -17 -18 -17 -18
-15 -15 -15 -15 -15 -15 -15 -16 -16 -16 -16 -16 -16 -16 -16 -17 -17 -17 -17 -17 -16 -16 -16 -16 -16 -16 -16 -16 -17 -17 -17 -17 -17 -17 -16 -17 -17 -17 -17 -17 -18 -18 -18
-15 -15 -15 -15 -15 -15 -15 -15 -16 -16 -15 -15 -16 -16 -16 -16 -17 -17 -17 -17 -16 -16 -16 -16 -16 -16 -16 -16 -17 -17 -17 -17 -17 -17 -16 -17 -16 -17 -17 -17 -18 -18 -18

GFSMA_500_temp_099.txt.gz
Temp
-13 -13 -13 -13 -12 -13 -12 -12 -12 -13 -13 -12 -13 -13 -13 -13 -13 -14 -14 -14 -14 -13 -13 -13 -13 -13 -13 -13 -13 -13 -13 -13 -12 -12 -12 -13 -13 -14 -14 -14 -14 -14 -14
-13 -13 -13 -14 -12 -12 -13 -12 -12 -12 -12 -12 -12 -13 -13 -13 -13 -13 -13 -14 -14 -13 -13 -13 -13 -13 -13 -13 -13 -13 -13 -13 -13 -13 -13 -13 -13 -14 -14 -14 -14 -15 -15
-13 -13 -13 -13 -13 -12 -13 -12 -12 -12 -12 -12 -12 -12 -13 -13 -13 -13 -13 -13 -13 -13 -13 -13 -13 -13 -13 -13 -13 -13 -13 -13 -13 -13 -13 -13 -14 -14 -15 -15 -15 -15 -15
-13 -13 -13 -13 -13 -12 -13 -12 -12 -13 -12 -13 -13 -12 -12 -13 -13 -13 -13 -13 -13 -13 -13 -13 -13 -14 -14 -13 -13 -13 -13 -13 -13 -13 -13 -13 -14 -15 -15 -15 -15 -15 -16
-13 -13 -13 -14 -12 -13 -12 -13 -12 -13 -12 -13 -12 -13 -13 -13 -13 -12 -13 -12 -13 -13 -13 -13 -13 -14 -14 -14 -13 -13 -13 -13 -13 -13 -13 -13 -14 -15 -16 -16 -16 -16 -16
-13 -12 -13 -13 -14 -13 -13 -12 -12 -13 -13 -13 -12 -12 -13 -13 -13 -12 -12 -13 -13 -12 -13 -13 -13 -13 -14 -13 -14 -14 -13 -13 -13 -13 -13 -14 -14 -15 -16 -16 -16 -16 -16
-13 -12 -12 -13 -14 -13 -12 -13 -12 -12 -12 -12 -12 -12 -12 -12 -13 -13 -13 -13 -13 -13 -13 -13 -13 -14 -13 -13 -13 -14 -14 -14 -13 -14 -13 -14 -14 -15 -17 -17 -17 -17 -17
-13 -12 -12 -12 -13 -14 -13 -13 -13 -13 -13 -13 -13 -13 -12 -12 -13 -13 -13 -13 -13 -13 -13 -13 -13 -14 -14 -14 -13 -14 -14 -14 -14 -14 -14 -14 -15 -16 -17 -18 -17 -17 -17
-12 -12 -13 -12 -13 -13 -13 -13 -13 -13 -14 -14 -13 -13 -13 -13 -13 -13 -13 -13 -13 -13 -13 -13 -14 -13 -13 -13 -14 -15 -15 -15 -14 -14 -14 -14 -15 -16 -17 -19 -18 -18 -18
-12 -12 -12 -13 -12 -13 -13 -13 -13 -14 -14 -14 -14 -13 -13 -14 -13 -13 -13 -13 -13 -13 -13 -13 -14 -13 -13 -14 -14 -14 -15 -15 -15 -15 -15 -15 -15 -16 -17 -18 -18 -18 -18
-13 -12 -12 -12 -13 -14 -14 -13 -13 -13 -14 -14 -14 -14 -14 -13 -13 -13 -13 -14 -13 -13 -14 -13 -13 -13 -14 -14 -14 -14 -15 -15 -15 -15 -16 -16 -16 -16 -16 -17 -17 -18 -18
-13 -12 -12 -12 -13 -13 -13 -14 -14 -14 -14 -14 -14 -14 -14 -14 -14 -14 -14 -14 -14 -14 -13 -13 -13 -14 -14 -14 -15 -15 -15 -16 -16 -15 -16 -16 -16 -16 -17 -17 -17 -17 -17
-13 -13 -12 -13 -13 -13 -13 -14 -13 -13 -13 -14 -14 -13 -14 -14 -14 -14 -14 -14 -13 -14 -14 -14 -14 -14 -15 -15 -15 -15 -16 -16 -15 -15 -16 -16 -16 -17 -17 -17 -18 -17 -17
-13 -13 -13 -13 -13 -14 -13 -13 -14 -13 -13 -14 -13 -14 -14 -14 -14 -14 -14 -13 -14 -14 -14 -14 -15 -15 -16 -16 -16 -16 -16 -16 -16 -16 -17 -17 -17 -17 -17 -17 -17 -17 -17
-13 -13 -13 -14 -14 -13 -14 -13 -14 -14 -14 -13 -13 -14 -14 -14 -14 -14 -14 -14 -15 -15 -14 -15 -15 -15 -15 -16 -16 -16 -16 -16 -16 -17 -17 -17 -17 -17 -17 -17 -17 -17 -17
-14 -13 -13 -13 -13 -14 -14 -14 -14 -14 -13 -14 -14 -14 -14 -14 -14 -14 -14 -14 -14 -14 -15 -15 -15 -16 -16 -16 -16 -16 -17 -17 -17 -17 -17 -17 -17 -17 -17 -17 -17 -17 -17
-13 -14 -13 -13 -13 -13 -14 -14 -14 -14 -14 -13 -13 -13 -13 -13 -14 -14 -14 -14 -14 -15 -15 -16 -16 -16 -16 -16 -16 -17 -17 -17 -17 -17 -17 -17 -17 -17 -17 -17 -17 -17 -17
-14 -13 -14 -14 -14 -13 -14 -14 -14 -13 -13 -14 -14 -14 -14 -14 -14 -14 -14 -14 -14 -14 -14 -15 -15 -16 -16 -17 -17 -17 -17 -17 -17 -17 -17 -17 -17 -17 -17 -17 -17 -17 -17
-14 -14 -14 -14 -14 -14 -14 -14 -14 -14 -14 -14 -14 -14 -14 -14 -14 -14 -14 -14 -14 -14 -14 -14 -15 -15 -15 -15 -15 -16 -16 -16 -17 -17 -17 -17 -17 -17 -17 -17 -17 -17 -17
-14 -14 -14 -14 -14 -14 -14 -14 -14 -14 -14 -13 -14 -14 -14 -14 -14 -14 -14 -14 -15 -15 -15 -15 -15 -15 -16 -16 -16 -16 -16 -16 -16 -16 -17 -17 -17 -17 -17 -17 -17 -17 -17
-14 -14 -14 -14 -14 -14 -14 -14 -14 -14 -14 -14 -15 -15 -15 -15 -15 -15 -15 -15 -15 -15 -15 -15 -15 -15 -16 -16 -16 -17 -16 -17 -17 -17 -17 -17 -18 -17 -17 -17 -17 -17 -17
-15 -15 -14 -14 -14 -14 -14 -14 -14 -14 -14 -14 -15 -15 -15 -15 -15 -15 -15 -16 -16 -16 -16 -16 -16 -15 -16 -16 -16 -16 -16 -15 -16 -18 -17 -17 -18 -18 -18 -18 -18 -18 -18
-15 -15 -15 -15 -15 -15 -15 -15 -15 -15 -15 -15 -15 -15 -15 -15 -15 -15 -15 -15 -15 -16 -16 -16 -15 -16 -16 -16 -16 -16 -16 -16 -16 -16 -16 -16 -17 -17 -17 -18 -18 -18 -18
-16 -15 -15 -15 -15 -14 -15 -15 -15 -15 -15 -15 -15 -15 -15 -16 -16 -15 -15 -15 -15 -16 -16 -16 -16 -15 -16 -16 -16 -17 -17 -17 -17 -17 -17 -17 -17 -17 -16 -16 -17 -17 -18
-15 -15 -15 -15 -15 -15 -15 -15 -15 -15 -15 -15 -15 -15 -15 -15 -16 -16 -16 -16 -16 -16 -16 -17 -16 -16 -16 -16 -16 -17 -16 -17 -16 -16 -16 -17 -17 -17 -17 -17 -17 -17 -17
-16 -16 -16 -16 -16 -15 -15 -15 -15 -15 -15 -15 -16 -16 -16 -16 -16 -16 -16 -16 -16 -16 -16 -16 -16 -16 -16 -16 -16 -16 -17 -16 -17 -16 -16 -16 -16 -17 -16 -16 -16 -17 -17

GFSMA_500_temp_102.txt.gz
Temp
-12 -12 -12 -12 -12 -13 -12 -12 -12 -12 -12 -12 -13 -13 -13 -13 -13 -13 -13 -13 -13 -13 -14 -14 -13 -13 -13 -13 -13 -13 -13 -13 -13 -13 -13 -13 -13 -13 -13 -14 -14 -14 -14
-12 -12 -12 -12 -13 -13 -12 -12 -12 -12 -12 -12 -13 -13 -13 -13 -13 -13 -13 -13 -13 -14 -14 -13 -13 -13 -13 -13 -13 -13 -13 -13 -13 -13 -13 -13 -13 -13 -13 -14 -14 -14 -15
-12 -12 -12 -13 -13 -13 -12 -12 -12 -12 -12 -12 -12 -12 -12 -13 -13 -13 -13 -13 -13 -14 -13 -13 -13 -13 -13 -13 -13 -13 -13 -13 -12 -12 -12 -13 -13 -13 -13 -14 -14 -15 -15
-12 -12 -13 -13 -12 -13 -13 -12 -12 -12 -12 -12 -12 -12 -12 -12 -13 -13 -13 -13 -13 -13 -13 -13 -13 -13 -13 -13 -13 -13 -13 -13 -13 -13 -13 -13 -13 -13 -14 -14 -15 -15 -16
-12 -13 -13 -12 -12 -14 -12 -12 -12 -12 -12 -12 -12 -12 -12 -12 -13 -13 -13 -13 -12 -12 -13 -13 -13 -13 -13 -13 -13 -13 -13 -13 -13 -13 -13 -13 -13 -13 -13 -14 -15 -16 -16
-13 -13 -13 -13 -12 -14 -12 -12 -12 -13 -12 -12 -12 -12 -13 -13 -13 -13 -13 -13 -13 -13 -13 -13 -13 -13 -13 -13 -13 -13 -13 -13 -13 -13 -13 -13 -13 -13 -14 -14 -15 -16 -17
-13 -13 -12 -13 -12 -14 -12 -13 -12 -12 -12 -12 -12 -12 -12 -12 -13 -13 -13 -13 -13 -12 -13 -13 -13 -13 -13 -13 -13 -13 -13 -13 -13 -13 -13 -13 -13 -13 -13 -14 -15 -16 -18
-13 -12 -12 -12 -12 -13 -13 -13 -13 -12 -12 -12 -12 -13 -12 -13 -13 -13 -13 -13 -13 -13 -13 -13 -13 -13 -13 -13 -14 -14 -14 -13 -13 -13 -14 -14 -14 -14 -14 -14 -14 -16 -18
-12 -12 -12 -12 -12 -13 -14 -13 -13 -13 -13 -12 -13 -13 -13 -13 -13 -13 -13 -13 -13 -13 -13 -13 -13 -13 -13 -13 -13 -13 -13 -13 -13 -14 -15 -15 -14 -14 -14 -14 -14 -15 -17
-13 -12 -12 -12 -12 -13 -13 -14 -13 -13 -13 -13 -13 -13 -13 -13 -13 -13 -13 -13 -13 -13 -13 -13 -13 -13 -13 -13 -13 -13 -13 -13 -13 -14 -14 -15 -15 -15 -15 -15 -15 -16 -17
-13 -13 -12 -12 -12 -12 -13 -13 -13 -13 -13 -13 -13 -13 -13 -14 -13 -13 -14 -14 -13 -13 -13 -13 -13 -13 -13 -13 -13 -13 -13 -13 -14 -14 -15 -15 -15 -15 -15 -15 -16 -16 -16
-13 -13 -12 -12 -12 -12 -12 -13 -13 -13 -13 -13 -13 -13 -13 -13 -14 -14 -14 -14 -14 -14 -13 -13 -13 -14 -13 -13 -14 -14 -14 -14 -15 -15 -15 -15 -16 -15 -15 -16 -16 -16 -17
-13 -13 -13 -12 -12 -12 -12 -13 -13 -14 -13 -14 -14 -14 -13 -14 -14 -13 -14 -14 -14 -14 -13 -14 -14 -13 -13 -14 -14 -14 -14 -15 -15 -15 -15 -15 -15 -16 -16 -16 -17 -17 -17
-13 -13 -13 -12 -12 -13 -13 -13 -13 -13 -13 -13 -13 -13 -14 -14 -14 -14 -14 -14 -13 -13 -13 -13 -14 -14 -14 -14 -15 -15 -15 -15 -15 -15 -16 -16 -16 -16 -16 -17 -17 -17 -17
-13 -13 -13 -13 -13 -13 -13 -13 -13 -13 -13 -14 -14 -14 -14 -14 -14 -14 -14 -14 -14 -13 -14 -14 -14 -14 -14 -14 -15 -15 -15 -16 -16 -16 -16 -16 -16 -16 -17 -17 -17 -17 -17
-14 -13 -13 -13 -13 -13 -13 -13 -13 -13 -14 -14 -14 -14 -14 -14 -13 -14 -14 -14 -14 -14 -14 -14 -14 -14 -14 -14 -15 -15 -15 -16 -16 -16 -16 -16 -17 -17 -17 -16 -16 -17 -17
-14 -14 -14 -14 -14 -14 -13 -13 -13 -13 -13 -14 -13 -14 -14 -14 -14 -14 -14 -14 -14 -14 -14 -15 -14 -14 -14 -15 -15 -15 -15 -16 -16 -16 -16 -16 -16 -17 -17 -17 -17 -17 -17
-14 -14 -14 -14 -14 -14 -14 -14 -14 -13 -13 -13 -13 -13 -14 -14 -14 -14 -14 -14 -14 -14 -14 -14 -14 -14 -14 -15 -15 -15 -16 -16 -16 -16 -16 -16 -16 -17 -16 -16 -16 -17 -17
-14 -14 -14 -14 -14 -14 -14 -14 -14 -14 -14 -14 -14 -14 -14 -14 -14 -14 -14 -14 -14 -14 -14 -14 -15 -15 -15 -15 -15 -15 -15 -16 -16 -16 -17 -17 -17 -17 -17 -17 -17 -17 -16
-14 -14 -14 -14 -14 -14 -15 -15 -15 -15 -14 -14 -15 -15 -14 -14 -14 -14 -14 -14 -14 -14 -15 -14 -15 -15 -15 -15 -15 -15 -15 -16 -16 -16 -16 -16 -16 -17 -16 -16 -17 -16 -17
-14 -14 -14 -14 -14 -14 -14 -14 -14 -14 -15 -15 -15 -15 -15 -15 -14 -14 -14 -14 -14 -14 -15 -15 -15 -15 -15 -16 -16 -16 -16 -16 -16 -17 -17 -17 -17 -17 -17 -17 -16 -17 -17
-14 -14 -14 -14 -14 -14 -14 -14 -15 -15 -15 -15 -15 -15 -15 -15 -15 -15 -15 -15 -15 -15 -15 -15 -15 -15 -16 -16 -16 -15 -15 -15 -16 -17 -16 -16 -17 -17 -16 -16 -16 -17 -17
-14 -14 -14 -14 -14 -14 -15 -15 -15 -15 -15 -15 -15 -15 -15 -15 -15 -15 -15 -15 -15 -15 -15 -15 -15 -15 -15 -16 -16 -16 -16 -16 -16 -16 -17 -17 -17 -16 -16 -16 -16 -17 -17
-15 -15 -15 -15 -14 -15 -15 -15 -15 -15 -15 -15 -15 -15 -15 -15 -15 -15 -15 -15 -15 -15 -15 -15 -15 -15 -15 -15 -15 -16 -16 -16 -16 -16 -16 -16 -16 -17 -17 -17 -16 -17 -17
-15 -15 -15 -15 -15 -15 -15 -15 -15 -14 -15 -14 -14 -14 -15 -15 -15 -15 -15 -15 -16 -15 -15 -15 -15 -15 -15 -16 -15 -16 -16 -16 -16 -16 -16 -16 -16 -16 -16 -16 -16 -17 -17
-15 -15 -15 -15 -15 -15 -16 -16 -16 -15 -15 -15 -15 -15 -16 -16 -15 -15 -15 -15 -16 -16 -16 -15 -15 -16 -16 -16 -16 -16 -16 -16 -16 -16 -16 -16 -16 -16 -16 -16 -17 -17 -17

GFSMA_500_temp_105.txt.gz
Temp
-12 -12 -12 -12 -12 -12 -12 -12 -12 -12 -12 -12 -12 -12 -12 -12 -12 -13 -13 -13 -13 -13 -13 -13 -13 -13 -14 -13 -13 -13 -13 -13 -13 -13 -13 -13 -13 -13 -13 -13 -14 -14 -14
-12 -12 -12 -12 -12 -12 -12 -12 -12 -12 -12 -12 -12 -12 -12 -12 -12 -13 -12 -13 -13 -13 -13 -13 -13 -14 -13 -13 -12 -13 -13 -13 -13 -13 -13 -13 -13 -13 -13 -13 -13 -14 -14
-12 -12 -12 -12 -12 -12 -12 -12 -12 -12 -12 -11 -12 -12 -12 -12 -12 -13 -12 -12 -12 -12 -13 -13 -13 -13 -12 -12 -13 -13 -13 -13 -13 -13 -13 -13 -13 -13 -13 -13 -13 -14 -14
-12 -12 -12 -12 -12 -12 -12 -12 -12 -12 -12 -12 -12 -12 -12 -12 -12 -12 -12 -12 -13 -12 -12 -13 -14 -13 -13 -13 -13 -13 -13 -13 -13 -13 -13 -13 -13 -13 -13 -13 -14 -14 -14
-12 -12 -12 -12 -12 -12 -12 -13 -12 -12 -12 -12 -12 -12 -12 -12 -13 -12 -12 -12 -12 -12 -12 -13 -13 -13 -12 -12 -13 -13 -13 -13 -13 -13 -13 -13 -13 -13 -13 -13 -13 -14 -14
-12 -12 -12 -13 -13 -12 -13 -13 -12 -13 -12 -12 -12 -12 -12 -12 -12 -12 -12 -12 -12 -12 -13 -13 -13 -13 -13 -13 -13 -13 -13 -13 -13 -13 -13 -13 -13 -13 -13 -13 -14 -14 -14
-13 -12 -12 -13 -12 -12 -13 -13 -12 -12 -12 -12 -12 -12 -12 -12 -12 -13 -12 -12 -13 -13 -13 -13 -13 -13 -13 -13 -13 -13 -13 -13 -13 -13 -13 -13 -13 -13 -13 -13 -14 -14 -13
-13 -12 -12 -12 -12 -12 -13 -14 -12 -12 -12 -12 -12 -12 -11 -12 -13 -13 -13 -13 -13 -13 -13 -13 -12 -12 -13 -13 -13 -13 -13 -13 -13 -13 -13 -14 -13 -14 -14 -14 -14 -14 -14
-13 -13 -13 -12 -13 -12 -13 -13 -13 -12 -12 -12 -12 -12 -12 -12 -13 -13 -13 -13 -13 -13 -13 -13 -13 -13 -13 -13 -13 -13 -13 -13 -13 -13 -13 -13 -13 -13 -13 -14 -15 -15 -15
-13 -13 -13 -12 -12 -13 -13 -12 -13 -13 -12 -12 -12 -12 -12 -12 -13 -13 -12 -12 -13 -13 -13 -13 -13 -13 -13 -13 -13 -13 -13 -13 -13 -13 -13 -13 -13 -14 -14 -14 -15 -16 -15
-13 -13 -13 -12 -12 -12 -12 -13 -13 -13 -13 -13 -13 -13 -13 -13 -13 -13 -13 -13 -13 -13 -13 -13 -13 -13 -13 -13 -13 -13 -13 -13 -14 -14 -13 -13 -14 -14 -14 -15 -15 -15 -15
-13 -13 -13 -13 -12 -12 -12 -13 -13 -13 -13 -14 -13 -13 -13 -13 -13 -13 -13 -14 -14 -14 -13 -13 -13 -13 -13 -13 -13 -13 -13 -13 -13 -14 -14 -14 -14 -15 -15 -15 -15 -15 -16
-13 -14 -13 -13 -13 -12 -12 -12 -13 -13 -13 -13 -13 -14 -13 -13 -14 -14 -14 -14 -14 -13 -13 -13 -13 -13 -13 -13 -13 -13 -13 -13 -14 -14 -14 -15 -15 -15 -15 -15 -15 -16 -16
-13 -14 -13 -13 -13 -12 -12 -12 -13 -13 -13 -14 -14 -13 -13 -14 -14 -14 -14 -13 -13 -14 -13 -13 -13 -13 -13 -13 -13 -14 -14 -14 -14 -15 -15 -15 -15 -15 -15 -15 -15 -16 -17
-13 -14 -13 -13 -13 -13 -13 -13 -14 -13 -13 -14 -14 -13 -14 -14 -14 -14 -13 -14 -14 -14 -14 -13 -13 -13 -13 -13 -14 -14 -14 -14 -14 -14 -14 -15 -15 -15 -16 -16 -16 -16 -16
-13 -14 -13 -13 -13 -13 -13 -13 -14 -13 -13 -13 -13 -13 -13 -13 -14 -14 -14 -14 -13 -14 -14 -14 -14 -14 -14 -14 -14 -14 -14 -14 -14 -15 -15 -15 -16 -16 -16 -16 -16 -16 -16
-14 -14 -14 -14 -13 -13 -13 -13 -13 -13 -13 -14 -14 -14 -14 -14 -14 -14 -14 -14 -13 -14 -14 -14 -14 -14 -14 -14 -14 -14 -14 -15 -15 -15 -15 -15 -16 -16 -17 -16 -16 -16 -17
-14 -14 -14 -14 -14 -14 -14 -14 -14 -13 -14 -14 -14 -14 -14 -14 -14 -14 -14 -14 -14 -14 -13 -14 -14 -14 -14 -14 -14 -14 -14 -14 -14 -15 -15 -15 -15 -15 -16 -16 -16 -17 -16
-14 -14 -14 -14 -14 -14 -14 -14 -14 -14 -14 -14 -14 -14 -14 -14 -14 -14 -14 -14 -14 -14 -14 -14 -14 -14 -14 -14 -14 -15 -15 -15 -15 -15 -15 -16 -16 -16 -16 -16 -16 -16 -16
-14 -14 -14 -14 -14 -14 -14 -14 -14 -14 -14 -14 -14 -14 -14 -14 -14 -14 -14 -15 -14 -14 -14 -14 -15 -14 -15 -15 -15 -15 -15 -15 -15 -15 -15 -16 -16 -16 -16 -16 -15 -15 -16
-14 -14 -14 -14 -14 -14 -14 -14 -14 -14 -14 -15 -15 -15 -15 -15 -15 -15 -15 -15 -15 -15 -15 -15 -15 -15 -15 -15 -15 -15 -15 -15 -15 -16 -16 -16 -17 -17 -16 -15 -15 -15 -16
-14 -14 -14 -14 -14 -14 -14 -14 -14 -15 -15 -15 -15 -15 -15 -15 -15 -15 -15 -15 -15 -15 -15 -15 -15 -15 -16 -16 -16 -15 -15 -16 -16 -17 -16 -16 -16 -16 -16 -15 -15 -16 -16
-14 -14 -14 -13 -13 -14 -14 -15 -15 -15 -15 -15 -15 -15 -15 -15 -15 -15 -15 -15 -15 -15 -15 -15 -15 -15 -15 -15 -15 -15 -16 -16 -15 -16 -16 -16 -16 -16 -16 -16 -16 -16 -16
-14 -14 -15 -15 -15 -15 -15 -15 -15 -15 -15 -14 -15 -15 -15 -15 -14 -15 -15 -15 -15 -15 -15 -15 -15 -15 -15 -15 -15 -15 -15 -16 -16 -16 -16 -16 -16 -16 -16 -16 -16 -16 -16
-14 -14 -15 -15 -15 -15 -15 -15 -15 -15 -15 -15 -15 -15 -15 -15 -15 -15 -15 -15 -15 -15 -15 -15 -15 -15 -15 -15 -16 -15 -16 -16 -16 -16 -16 -16 -16 -16 -16 -16 -16 -16 -16
-14 -15 -15 -15 -15 -15 -16 -16 -16 -15 -15 -15 -15 -15 -15 -15 -16 -16 -16 -16 -16 -16 -15 -15 -16 -16 -16 -16 -16 -16 -16 -16 -16 -16 -16 -16 -17 -17 -17 -17 -17 -17 -17

GFSMA_500_temp_108.txt.gz
Temp
-11 -11 -12 -12 -12 -12 -12 -12 -12 -12 -12 -13 -12 -12 -12 -12 -12 -12 -13 -13 -13 -12 -13 -12 -12 -13 -13 -13 -13 -13 -13 -13 -13 -13 -13 -14 -14 -14 -13 -13 -13 -13 -13
-11 -11 -12 -12 -12 -12 -12 -12 -12 -12 -12 -13 -12 -12 -12 -12 -12 -13 -13 -13 -12 -12 -12 -12 -13 -13 -13 -14 -14 -13 -13 -13 -13 -13 -13 -13 -13 -13 -13 -13 -13 -13 -13
-11 -12 -12 -12 -12 -12 -12 -12 -12 -12 -12 -13 -12 -12 -12 -12 -12 -13 -13 -13 -13 -12 -12 -12 -13 -13 -13 -14 -14 -13 -13 -13 -13 -13 -13 -13 -13 -13 -13 -13 -13 -13 -13
-12 -12 -12 -12 -12 -12 -12 -12 -12 -12 -12 -13 -12 -12 -12 -12 -12 -13 -13 -13 -13 -13 -13 -12 -13 -13 -13 -14 -13 -13 -13 -13 -13 -13 -13 -13 -13 -13 -13 -13 -13 -13 -13
-12 -12 -12 -12 -12 -12 -12 -13 -13 -13 -13 -13 -12 -12 -12 -12 -12 -13 -12 -13 -13 -12 -12 -13 -13 -13 -13 -13 -13 -13 -13 -13 -13 -13 -13 -13 -13 -13 -13 -13 -13 -13 -13
-12 -12 -12 -13 -13 -12 -12 -13 -13 -13 -13 -13 -12 -12 -12 -13 -12 -13 -13 -13 -13 -12 -12 -13 -13 -13 -13 -13 -13 -13 -13 -13 -13 -13 -13 -13 -13 -13 -13 -13 -13 -13 -14
-13 -13 -13 -13 -13 -12 -12 -13 -13 -12 -14 -13 -12 -12 -12 -12 -12 -12 -13 -13 -13 -13 -13 -13 -13 -13 -13 -13 -13 -13 -13 -13 -13 -13 -13 -13 -13 -13 -13 -14 -14 -14 -14
-13 -13 -13 -13 -13 -12 -12 -12 -13 -13 -13 -13 -12 -12 -12 -12 -12 -12 -12 -13 -13 -13 -13 -13 -13 -13 -13 -13 -13 -13 -13 -13 -13 -13 -13 -13 -13 -13 -13 -13 -13 -13 -13
-13 -13 -13 -13 -13 -12 -12 -12 -13 -13 -13 -12 -12 -12 -12 -12 -12 -12 -12 -12 -13 -13 -13 -13 -13 -13 -13 -13 -13 -13 -13 -13 -13 -13 -13 -13 -13 -13 -13 -13 -13 -13 -14
-13 -13 -13 -13 -13 -13 -12 -12 -13 -13 -13 -12 -12 -12 -12 -12 -12 -12 -12 -12 -13 -13 -12 -13 -13 -13 -13 -13 -13 -13 -13 -13 -13 -13 -13 -13 -13 -13 -13 -13 -14 -14 -14
-13 -13 -13 -14 -14 -13 -13 -13 -13 -14 -13 -13 -13 -12 -12 -13 -12 -12 -12 -12 -13 -13 -13 -13 -13 -13 -13 -13 -13 -13 -13 -13 -13 -13 -13 -13 -13 -13 -14 -14 -14 -14 -15
-13 -14 -13 -14 -14 -13 -13 -13 -13 -13 -14 -13 -13 -13 -13 -13 -13 -13 -13 -13 -13 -13 -12 -13 -13 -13 -13 -13 -13 -13 -13 -13 -13 -13 -14 -14 -13 -14 -14 -14 -15 -15 -15
-13 -14 -13 -14 -14 -13 -13 -13 -13 -13 -13 -13 -13 -13 -13 -13 -13 -13 -13 -13 -13 -13 -13 -13 -14 -13 -13 -13 -13 -13 -13 -13 -13 -14 -14 -14 -14 -14 -15 -15 -15 -15 -15
-13 -14 -13 -14 -14 -13 -13 -12 -12 -13 -13 -14 -14 -13 -13 -14 -13 -13 -14 -14 -14 -14 -14 -14 -13 -14 -13 -13 -14 -14 -13 -13 -14 -14 -14 -14 -14 -15 -15 -15 -15 -15 -15
-14 -14 -14 -14 -13 -13 -13 -13 -13 -13 -13 -14 -14 -14 -13 -14 -14 -14 -14 -14 -14 -13 -14 -14 -14 -13 -14 -14 -14 -14 -14 -14 -14 -14 -14 -14 -15 -15 -15 -16 -16 -16 -16
-14 -14 -14 -14 -14 -13 -13 -13 -13 -13 -14 -13 -13 -14 -14 -14 -14 -14 -14 -14 -14 -14 -14 -14 -14 -14 -14 -14 -14 -14 -14 -14 -14 -14 -14 -15 -15 -15 -15 -16 -16 -17 -17
-14 -14 -14 -14 -14 -14 -13 -13 -13 -13 -13 -13 -13 -13 -14 -14 -14 -13 -14 -14 -14 -14 -14 -14 -14 -14 -14 -14 -14 -14 -14 -14 -14 -15 -15 -15 -15 -15 -15 -15 -16 -16 -16
-15 -14 -14 -14 -14 -14 -14 -14 -13 -13 -13 -14 -13 -13 -14 -14 -14 -14 -14 -14 -14 -14 -14 -15 -14 -14 -14 -14 -14 -14 -14 -14 -14 -15 -15 -15 -15 -15 -15 -15 -15 -16 -15
-15 -15 -15 -14 -14 -14 -14 -14 -14 -14 -14 -14 -14 -14 -14 -14 -14 -13 -14 -14 -14 -14 -14 -14 -14 -14 -14 -14 -14 -14 -15 -15 -15 -15 -15 -15 -15 -15 -15 -15 -15 -15 -15
-15 -15 -15 -15 -14 -14 -14 -14 -14 -14 -14 -14 -14 -14 -14 -14 -14 -14 -14 -14 -14 -14 -14 -14 -14 -14 -14 -14 -14 -15 -15 -15 -15 -15 -15 -15 -15 -15 -15 -15 -15 -15 -15
-15 -15 -15 -15 -14 -14 -14 -14 -14 -14 -14 -14 -14 -14 -14 -14 -14 -14 -14 -14 -14 -14 -14 -14 -15 -15 -15 -15 -15 -15 -15 -15 -16 -16 -16 -16 -16 -16 -15 -15 -16 -16 -16
-15 -15 -15 -15 -14 -14 -14 -14 -14 -14 -14 -14 -14 -14 -14 -14 -14 -14 -14 -14 -14 -14 -14 -14 -14 -15 -15 -15 -15 -15 -16 -16 -16 -16 -16 -16 -16 -16 -15 -15 -15 -16 -16
-15 -15 -15 -15 -15 -15 -15 -15 -15 -14 -14 -14 -14 -14 -14 -14 -15 -15 -15 -15 -15 -15 -15 -15 -15 -15 -15 -15 -15 -15 -16 -16 -16 -16 -16 -16 -16 -16 -16 -16 -16 -16 -17
-15 -15 -15 -14 -14 -14 -15 -16 -15 -15 -15 -14 -15 -15 -15 -15 -15 -15 -15 -15 -15 -15 -15 -15 -15 -15 -15 -15 -16 -16 -15 -16 -16 -16 -16 -16 -16 -16 -16 -16 -16 -17 -17
-14 -15 -14 -14 -14 -14 -15 -16 -16 -15 -15 -15 -15 -15 -15 -15 -15 -15 -15 -15 -15 -15 -15 -15 -15 -16 -16 -16 -16 -16 -16 -16 -16 -16 -16 -16 -16 -16 -16 -17 -17 -17 -17
-15 -15 -14 -14 -14 -15 -14 -16 -16 -15 -15 -15 -16 -15 -15 -15 -15 -16 -15 -15 -15 -15 -15 -16 -16 -16 -16 -16 -16 -16 -16 -16 -16 -17 -17 -17 -17 -17 -17 -17 -18 -18 -18

GFSMA_500_temp_114.txt.gz
Temp
-10 -10 -11 -11 -11 -11 -12 -12 -12 -12 -12 -12 -12 -12 -12 -12 -12 -12 -12 -12 -12 -12 -13 -13 -14 -13 -13 -13 -13 -13 -13 -14 -14 -14 -14 -14 -14 -14 -14 -13 -15 -15 -15
-10 -11 -11 -11 -11 -11 -12 -12 -12 -12 -12 -12 -13 -12 -12 -12 -13 -13 -12 -12 -12 -12 -13 -13 -14 -13 -13 -14 -13 -13 -13 -14 -14 -14 -14 -14 -14 -14 -14 -14 -14 -14 -14
-11 -11 -11 -11 -12 -12 -12 -13 -13 -12 -12 -13 -13 -13 -12 -12 -12 -13 -12 -12 -12 -13 -13 -13 -14 -13 -14 -14 -13 -13 -13 -14 -14 -14 -14 -14 -14 -14 -14 -14 -14 -14 -14
-11 -11 -11 -12 -12 -12 -12 -13 -13 -13 -12 -13 -13 -13 -12 -12 -13 -13 -12 -12 -13 -13 -13 -14 -14 -14 -14 -14 -13 -13 -14 -14 -14 -14 -14 -14 -14 -14 -14 -14 -14 -14 -14
-11 -12 -12 -12 -13 -13 -12 -13 -13 -13 -13 -13 -13 -13 -12 -12 -12 -13 -12 -13 -13 -13 -13 -14 -14 -14 -14 -13 -13 -14 -14 -15 -14 -14 -14 -14 -14 -14 -14 -14 -14 -14 -14
-12 -12 -12 -12 -13 -13 -13 -13 -13 -13 -13 -13 -13 -13 -12 -13 -13 -13 -13 -13 -13 -13 -14 -14 -14 -14 -14 -14 -13 -14 -15 -15 -15 -14 -14 -14 -14 -14 -14 -14 -14 -14 -14
-12 -12 -12 -13 -13 -13 -13 -13 -13 -13 -13 -13 -13 -13 -12 -12 -14 -13 -12 -13 -13 -13 -14 -13 -14 -14 -14 -14 -14 -14 -15 -14 -14 -14 -14 -14 -14 -14 -14 -14 -14 -14 -14
-13 -12 -13 -13 -13 -13 -13 -13 -13 -13 -13 -13 -13 -12 -12 -12 -12 -13 -13 -13 -13 -13 -14 -14 -14 -14 -14 -14 -13 -14 -14 -14 -14 -14 -13 -13 -14 -14 -14 -14 -14 -14 -14
-12 -13 -13 -13 -13 -14 -13 -13 -13 -13 -13 -13 -13 -12 -13 -13 -13 -13 -13 -13 -13 -13 -13 -13 -13 -13 -13 -13 -13 -14 -14 -14 -14 -14 -13 -13 -14 -14 -14 -14 -14 -14 -14
-12 -13 -14 -13 -14 -14 -14 -14 -14 -14 -14 -13 -13 -13 -13 -14 -13 -13 -13 -12 -13 -13 -13 -13 -13 -13 -13 -14 -14 -14 -14 -14 -14 -14 -13 -13 -14 -14 -14 -14 -14 -14 -14
-13 -13 -14 -14 -14 -14 -14 -14 -14 -14 -14 -13 -13 -13 -13 -13 -13 -13 -13 -12 -13 -13 -13 -13 -13 -13 -13 -13 -13 -13 -14 -14 -14 -14 -14 -14 -14 -14 -14 -14 -14 -14 -14
-13 -13 -14 -14 -14 -14 -14 -14 -14 -14 -14 -13 -13 -13 -13 -13 -13 -13 -13 -13 -13 -13 -13 -13 -13 -13 -13 -13 -13 -13 -13 -13 -13 -14 -14 -14 -14 -14 -14 -14 -14 -14 -15
-13 -14 -15 -14 -14 -14 -14 -14 -14 -14 -14 -13 -13 -13 -13 -12 -13 -13 -13 -13 -13 -13 -13 -13 -13 -13 -13 -13 -13 -13 -13 -13 -13 -14 -14 -14 -14 -14 -14 -15 -15 -15 -15
-13 -14 -15 -15 -15 -14 -14 -14 -14 -14 -13 -13 -13 -13 -13 -14 -13 -13 -13 -13 -13 -13 -13 -13 -13 -13 -13 -13 -13 -13 -13 -14 -14 -14 -14 -14 -14 -14 -14 -15 -15 -15 -15
-13 -13 -14 -15 -15 -14 -14 -14 -14 -14 -13 -13 -13 -13 -14 -13 -14 -13 -13 -13 -13 -13 -14 -14 -13 -13 -13 -14 -14 -14 -14 -14 -14 -14 -14 -14 -14 -14 -15 -15 -15 -15 -15
-13 -13 -14 -15 -15 -15 -14 -14 -14 -14 -14 -14 -14 -13 -14 -14 -14 -14 -13 -14 -14 -14 -14 -14 -14 -14 -14 -14 -14 -14 -14 -14 -14 -14 -14 -15 -15 -15 -15 -15 -15 -15 -15
-13 -14 -14 -15 -15 -15 -15 -14 -14 -14 -14 -14 -14 -14 -13 -13 -14 -14 -14 -14 -14 -14 -14 -14 -14 -14 -14 -14 -14 -14 -14 -14 -14 -15 -15 -15 -15 -14 -14 -15 -14 -14 -14
-14 -14 -15 -15 -15 -15 -15 -14 -14 -14 -14 -14 -14 -14 -14 -14 -13 -14 -14 -14 -14 -14 -14 -14 -14 -14 -14 -14 -14 -14 -15 -15 -14 -15 -15 -14 -14 -14 -14 -14 -15 -15 -15
-15 -16 -15 -15 -16 -15 -15 -15 -14 -14 -14 -14 -14 -14 -14 -14 -14 -14 -14 -14 -14 -14 -14 -14 -14 -14 -14 -14 -14 -14 -15 -15 -15 -14 -14 -14 -14 -14 -15 -15 -15 -15 -15
-14 -16 -15 -16 -16 -16 -15 -15 -15 -14 -14 -14 -14 -14 -14 -14 -14 -14 -14 -14 -14 -14 -14 -14 -14 -14 -14 -14 -15 -15 -16 -15 -15 -14 -14 -15 -15 -14 -15 -15 -15 -15 -15
-14 -16 -15 -16 -16 -16 -16 -15 -15 -15 -14 -15 -15 -15 -14 -14 -14 -14 -14 -14 -14 -14 -14 -14 -14 -14 -14 -14 -14 -14 -14 -15 -15 -15 -15 -15 -15 -15 -15 -15 -15 -16 -16
-15 -16 -16 -16 -16 -16 -16 -15 -15 -15 -15 -15 -15 -15 -15 -14 -14 -14 -14 -14 -14 -14 -14 -14 -14 -14 -14 -14 -14 -15 -15 -15 -15 -15 -15 -15 -15 -15 -15 -15 -15 -16 -16
-15 -16 -16 -16 -15 -15 -15 -15 -15 -15 -15 -15 -15 -15 -15 -15 -15 -14 -15 -15 -15 -14 -14 -15 -15 -15 -15 -15 -15 -15 -15 -15 -15 -15 -15 -15 -15 -15 -15 -15 -16 -16 -16
-16 -16 -16 -16 -16 -15 -15 -15 -15 -15 -15 -15 -15 -15 -15 -15 -15 -15 -15 -15 -15 -15 -15 -15 -15 -15 -15 -15 -15 -16 -16 -16 -16 -16 -16 -15 -15 -16 -16 -15 -16 -16 -16
-15 -15 -15 -15 -16 -15 -15 -15 -15 -15 -14 -14 -15 -15 -15 -15 -15 -15 -15 -15 -15 -15 -15 -15 -15 -15 -16 -16 -16 -16 -16 -16 -16 -16 -17 -17 -16 -16 -16 -16 -16 -17 -17
-15 -15 -15 -16 -15 -15 -15 -15 -15 -15 -15 -15 -15 -15 -15 -15 -15 -15 -16 -16 -15 -16 -16 -16 -16 -16 -16 -16 -16 -16 -16 -16 -16 -16 -17 -17 -17 -17 -17 -17 -17 -17 -17

GFSMA_500_temp_117.txt.gz
Temp
-11 -11 -11 -11 -11 -11 -11 -11 -11 -12 -12 -12 -12 -12 -12 -13 -13 -12 -12 -12 -12 -13 -12 -12 -13 -13 -13 -13 -13 -13 -13 -13 -13 -14 -14 -14 -14 -14 -14 -14 -14 -13 -14
-11 -11 -11 -11 -11 -11 -11 -12 -12 -12 -12 -12 -12 -12 -12 -13 -13 -13 -13 -13 -13 -12 -12 -13 -12 -13 -13 -13 -13 -13 -14 -13 -13 -14 -14 -14 -14 -14 -14 -14 -14 -14 -14
-11 -12 -12 -12 -11 -11 -12 -12 -12 -12 -13 -13 -12 -12 -13 -13 -13 -13 -13 -13 -13 -12 -12 -12 -12 -13 -13 -14 -13 -13 -14 -14 -14 -14 -14 -14 -14 -14 -14 -14 -14 -14 -14
-11 -12 -12 -12 -12 -12 -12 -12 -13 -13 -13 -13 -13 -13 -12 -13 -13 -13 -13 -13 -12 -12 -12 -12 -12 -13 -13 -13 -14 -14 -14 -14 -14 -14 -14 -14 -14 -14 -14 -14 -14 -14 -14
-11 -12 -12 -12 -12 -12 -12 -12 -13 -13 -13 -13 -13 -13 -13 -13 -13 -13 -13 -13 -13 -13 -13 -13 -13 -13 -13 -14 -14 -14 -14 -14 -14 -14 -14 -14 -14 -14 -14 -14 -14 -14 -14
-11 -12 -13 -13 -12 -12 -12 -13 -13 -13 -13 -13 -13 -13 -13 -12 -13 -13 -13 -13 -13 -13 -13 -13 -13 -13 -14 -14 -14 -14 -14 -14 -14 -14 -14 -14 -14 -14 -14 -14 -14 -14 -14
-11 -12 -13 -13 -13 -13 -13 -13 -13 -13 -13 -13 -13 -13 -13 -12 -12 -13 -13 -13 -13 -13 -13 -13 -13 -13 -14 -14 -14 -14 -14 -14 -14 -14 -14 -14 -13 -13 -13 -14 -14 -14 -14
-12 -13 -13 -13 -13 -13 -13 -13 -13 -13 -13 -13 -13 -13 -13 -13 -12 -13 -13 -13 -13 -13 -13 -13 -14 -14 -14 -14 -14 -15 -14 -14 -14 -14 -14 -14 -14 -14 -13 -14 -14 -14 -14
-13 -13 -13 -13 -14 -14 -13 -13 -13 -13 -13 -13 -13 -14 -13 -12 -13 -13 -14 -14 -13 -13 -13 -13 -14 -14 -14 -14 -14 -14 -14 -14 -14 -14 -14 -14 -14 -14 -14 -14 -14 -14 -14
-13 -13 -13 -13 -14 -14 -13 -13 -13 -13 -13 -13 -13 -14 -13 -13 -13 -13 -13 -13 -13 -13 -13 -13 -14 -14 -14 -13 -13 -14 -14 -14 -14 -14 -14 -14 -14 -14 -14 -14 -14 -14 -14
-13 -13 -13 -13 -14 -15 -14 -13 -13 -13 -13 -13 -13 -14 -13 -13 -13 -13 -14 -13 -13 -13 -13 -13 -13 -13 -13 -13 -14 -14 -14 -14 -14 -14 -14 -14 -14 -14 -14 -14 -14 -14 -14
-13 -13 -13 -13 -14 -15 -14 -14 -14 -14 -13 -13 -14 -14 -13 -13 -13 -13 -14 -14 -14 -13 -13 -13 -13 -13 -14 -14 -14 -14 -13 -13 -14 -13 -14 -14 -14 -14 -14 -14 -14 -14 -14
-13 -13 -13 -14 -14 -14 -14 -14 -14 -14 -13 -13 -14 -14 -13 -13 -13 -13 -14 -13 -13 -13 -13 -13 -13 -13 -13 -13 -13 -13 -13 -13 -13 -13 -13 -13 -13 -13 -14 -14 -14 -14 -14
-13 -14 -14 -13 -13 -14 -14 -14 -14 -14 -14 -14 -14 -14 -13 -13 -13 -14 -13 -13 -13 -13 -13 -13 -13 -13 -13 -13 -13 -13 -13 -13 -13 -13 -13 -13 -14 -14 -14 -14 -14 -14 -14
-13 -13 -14 -14 -14 -13 -14 -14 -14 -14 -14 -14 -14 -14 -13 -13 -13 -14 -13 -13 -13 -13 -13 -13 -13 -13 -13 -13 -13 -13 -13 -13 -13 -13 -14 -14 -14 -14 -14 -14 -14 -14 -15
-13 -13 -14 -14 -14 -14 -15 -14 -15 -14 -14 -14 -14 -14 -13 -13 -14 -14 -14 -14 -14 -13 -13 -14 -14 -13 -13 -13 -13 -13 -13 -14 -14 -14 -14 -14 -14 -14 -14 -14 -14 -15 -15
-13 -13 -14 -14 -14 -14 -15 -15 -15 -15 -14 -14 -14 -14 -14 -14 -14 -14 -14 -14 -14 -14 -14 -14 -14 -14 -14 -14 -14 -14 -14 -14 -14 -14 -14 -14 -14 -14 -14 -15 -15 -15 -15
-13 -13 -14 -14 -14 -14 -15 -15 -15 -15 -14 -14 -14 -14 -14 -14 -14 -14 -14 -14 -14 -14 -14 -14 -14 -14 -14 -14 -14 -14 -14 -14 -14 -14 -14 -14 -14 -15 -15 -15 -14 -15 -15
-13 -13 -14 -14 -15 -15 -15 -15 -15 -15 -14 -14 -14 -14 -14 -14 -14 -14 -14 -14 -14 -14 -14 -14 -14 -14 -14 -14 -14 -15 -15 -15 -15 -15 -15 -15 -15 -15 -15 -15 -14 -15 -15
-13 -13 -14 -14 -14 -15 -16 -16 -16 -15 -15 -15 -15 -14 -14 -14 -14 -14 -14 -14 -14 -14 -14 -14 -14 -14 -14 -14 -14 -14 -15 -15 -15 -15 -15 -15 -15 -15 -15 -15 -15 -15 -15
-14 -14 -14 -14 -14 -14 -16 -16 -16 -16 -15 -15 -15 -15 -15 -15 -14 -14 -14 -14 -14 -14 -14 -14 -14 -14 -14 -14 -15 -15 -14 -15 -15 -15 -15 -15 -15 -15 -15 -15 -15 -15 -15
-14 -14 -13 -14 -14 -14 -15 -15 -16 -16 -15 -15 -15 -15 -15 -15 -15 -15 -15 -15 -14 -14 -14 -14 -14 -14 -14 -15 -14 -15 -15 -15 -15 -15 -15 -15 -15 -15 -15 -15 -15 -15 -15
-14 -14 -13 -14 -14 -15 -15 -16 -15 -16 -15 -15 -15 -15 -15 -15 -15 -15 -14 -15 -15 -15 -15 -15 -14 -15 -15 -15 -15 -15 -15 -15 -15 -15 -15 -15 -15 -16 -16 -16 -16 -16 -16
-14 -14 -15 -15 -15 -15 -16 -16 -16 -16 -16 -15 -15 -15 -15 -15 -15 -15 -15 -15 -15 -15 -15 -15 -15 -15 -15 -15 -15 -15 -15 -15 -16 -16 -16 -15 -16 -16 -16 -16 -16 -16 -16
-15 -14 -15 -15 -15 -16 -16 -16 -16 -16 -16 -16 -15 -15 -15 -15 -15 -15 -15 -15 -15 -15 -15 -15 -15 -15 -15 -15 -15 -16 -16 -16 -16 -16 -16 -16 -16 -16 -16 -16 -16 -16 -17
-16 -16 -16 -16 -15 -15 -16 -16 -16 -16 -16 -15 -15 -16 -15 -16 -16 -15 -15 -15 -15 -15 -15 -16 -16 -16 -16 -16 -16 -16 -16 -16 -16 -16 -16 -16 -16 -16 -17 -17 -17 -17 -17

GFSMA_500_temp_120.txt.gz
Temp
-11 -11 -11 -11 -11 -11 -11 -11 -10 -10 -11 -11 -12 -12 -12 -12 -12 -13 -13 -12 -13 -13 -12 -12 -12 -13 -13 -13 -13 -13 -13 -13 -13 -13 -13 -13 -13 -14 -14 -14 -14 -14 -14
-11 -11 -11 -11 -12 -12 -11 -11 -11 -11 -11 -11 -12 -12 -12 -12 -12 -13 -13 -13 -13 -13 -13 -12 -12 -12 -12 -13 -13 -13 -13 -13 -13 -13 -13 -13 -13 -14 -14 -14 -14 -14 -14
-11 -11 -11 -12 -12 -12 -12 -12 -11 -11 -11 -11 -12 -12 -12 -12 -13 -13 -13 -13 -13 -13 -13 -13 -13 -12 -12 -12 -13 -13 -13 -13 -14 -14 -14 -14 -14 -14 -14 -14 -14 -14 -14
-12 -11 -12 -12 -12 -12 -12 -12 -12 -12 -11 -12 -12 -12 -12 -12 -13 -13 -13 -13 -13 -13 -13 -13 -13 -12 -12 -13 -13 -14 -14 -13 -13 -14 -14 -14 -14 -14 -14 -14 -14 -14 -14
-12 -12 -12 -12 -12 -12 -13 -13 -12 -12 -12 -12 -12 -12 -12 -12 -13 -13 -13 -13 -12 -13 -13 -13 -13 -13 -12 -12 -13 -14 -14 -14 -14 -14 -14 -13 -14 -14 -13 -14 -14 -14 -13
-13 -12 -12 -13 -12 -12 -13 -13 -13 -13 -12 -12 -12 -12 -12 -12 -13 -13 -13 -13 -12 -13 -13 -13 -13 -13 -12 -13 -14 -14 -14 -14 -14 -13 -13 -14 -14 -14 -14 -14 -14 -13 -13
-13 -12 -12 -13 -13 -12 -13 -13 -13 -13 -13 -12 -12 -12 -12 -12 -13 -13 -13 -13 -12 -12 -12 -13 -13 -13 -13 -13 -13 -14 -14 -14 -14 -14 -14 -14 -14 -14 -13 -13 -13 -13 -13
-13 -12 -13 -13 -13 -13 -13 -13 -13 -13 -13 -13 -13 -12 -13 -13 -13 -13 -13 -13 -13 -12 -13 -12 -13 -13 -13 -13 -14 -14 -14 -14 -14 -14 -14 -14 -14 -14 -14 -13 -14 -14 -14
-14 -14 -14 -13 -14 -13 -13 -13 -13 -13 -13 -13 -13 -13 -13 -13 -13 -13 -13 -13 -13 -13 -13 -13 -13 -13 -13 -14 -14 -14 -14 -14 -14 -14 -14 -14 -14 -14 -14 -14 -13 -14 -14
-14 -13 -13 -13 -14 -13 -14 -14 -14 -14 -13 -14 -13 -13 -13 -13 -13 -13 -13 -13 -13 -13 -13 -13 -13 -13 -13 -14 -14 -14 -14 -14 -14 -14 -14 -14 -13 -13 -14 -14 -14 -14 -13
-13 -14 -13 -12 -12 -13 -13 -14 -14 -14 -13 -14 -14 -14 -13 -13 -13 -13 -13 -13 -12 -13 -13 -13 -13 -13 -13 -14 -14 -14 -14 -14 -14 -14 -14 -14 -14 -14 -14 -14 -14 -14 -14
-14 -14 -13 -13 -13 -13 -13 -14 -14 -14 -14 -13 -14 -14 -13 -13 -13 -13 -13 -13 -13 -13 -14 -12 -13 -13 -13 -13 -14 -14 -14 -14 -14 -14 -14 -14 -14 -14 -14 -14 -14 -14 -14
-13 -13 -13 -14 -14 -14 -13 -14 -13 -13 -14 -14 -14 -14 -14 -14 -13 -13 -13 -13 -13 -13 -14 -13 -13 -13 -13 -14 -14 -14 -14 -14 -14 -14 -14 -14 -14 -14 -13 -13 -13 -14 -14
-13 -13 -13 -13 -13 -13 -13 -13 -14 -14 -14 -14 -14 -14 -14 -14 -13 -13 -13 -13 -13 -13 -13 -13 -13 -13 -13 -13 -13 -14 -14 -13 -14 -14 -14 -14 -14 -14 -13 -13 -14 -14 -14
-13 -13 -13 -14 -13 -13 -13 -13 -13 -14 -14 -14 -14 -14 -14 -14 -14 -13 -13 -13 -13 -14 -13 -13 -13 -13 -13 -13 -13 -13 -13 -13 -13 -13 -13 -13 -13 -14 -14 -14 -14 -14 -14
-13 -13 -13 -13 -13 -13 -13 -13 -13 -14 -14 -14 -14 -15 -14 -14 -14 -14 -14 -13 -14 -14 -14 -13 -13 -13 -13 -13 -13 -13 -13 -13 -13 -13 -13 -13 -14 -14 -14 -14 -14 -14 -14
-13 -13 -13 -13 -14 -13 -13 -13 -13 -14 -14 -14 -15 -15 -15 -14 -14 -14 -14 -14 -14 -14 -14 -14 -13 -13 -13 -14 -14 -14 -14 -14 -14 -14 -14 -14 -14 -14 -15 -14 -14 -14 -14
-13 -13 -14 -13 -14 -14 -14 -14 -14 -14 -14 -14 -15 -15 -15 -15 -14 -14 -14 -14 -14 -14 -14 -14 -14 -14 -14 -14 -14 -14 -14 -14 -14 -14 -14 -15 -15 -15 -15 -14 -14 -15 -15
-13 -13 -13 -13 -14 -14 -13 -13 -14 -15 -14 -15 -15 -15 -15 -15 -15 -14 -14 -14 -14 -14 -14 -14 -14 -14 -14 -14 -14 -14 -14 -15 -15 -15 -15 -15 -15 -15 -15 -15 -15 -15 -15
-13 -13 -13 -13 -13 -13 -13 -14 -14 -14 -15 -15 -15 -16 -15 -15 -15 -15 -14 -14 -14 -14 -14 -14 -14 -14 -14 -14 -14 -14 -15 -15 -15 -15 -15 -15 -15 -15 -15 -15 -15 -15 -15
-14 -14 -13 -14 -14 -14 -14 -14 -14 -14 -15 -15 -16 -16 -15 -15 -15 -15 -15 -14 -14 -14 -14 -15 -15 -14 -14 -14 -14 -15 -15 -15 -15 -15 -15 -15 -15 -15 -15 -15 -15 -15 -15
-14 -14 -14 -13 -13 -14 -14 -14 -13 -14 -14 -15 -16 -16 -15 -15 -15 -15 -15 -15 -14 -15 -14 -14 -14 -14 -14 -14 -14 -15 -15 -15 -15 -15 -15 -15 -15 -15 -15 -15 -15 -15 -15
-14 -14 -15 -14 -14 -14 -13 -13 -14 -14 -15 -15 -16 -16 -15 -15 -15 -15 -15 -15 -15 -15 -15 -15 -14 -14 -14 -14 -14 -14 -15 -15 -15 -15 -15 -15 -15 -15 -15 -16 -16 -16 -16
-15 -15 -15 -15 -14 -14 -14 -14 -14 -15 -15 -15 -16 -16 -16 -16 -16 -16 -16 -15 -15 -15 -15 -15 -15 -15 -15 -15 -15 -15 -15 -15 -15 -15 -15 -15 -16 -16 -16 -16 -16 -16 -16
-15 -15 -15 -15 -15 -15 -14 -15 -14 -15 -15 -16 -16 -16 -16 -16 -16 -16 -16 -16 -15 -15 -15 -15 -15 -15 -15 -15 -15 -15 -15 -15 -15 -15 -15 -15 -16 -16 -16 -16 -16 -17 -16
-16 -16 -15 -16 -15 -15 -15 -15 -15 -16 -16 -16 -17 -17 -16 -16 -16 -16 -16 -16 -16 -16 -16 -15 -15 -16 -16 -16 -16 -15 -16 -16 -16 -16 -16 -16 -16 -16 -17 -17 -17 -17 -17

GFSMA_500_temp_123.txt.gz
Temp
-11 -11 -11 -11 -10 -10 -10 -10 -10 -10 -10 -10 -10 -10 -11 -12 -12 -12 -12 -12 -12 -12 -12 -12 -12 -12 -12 -12 -12 -13 -13 -13 -13 -13 -13 -13 -13 -13 -13 -14 -14 -14 -14
-11 -12 -11 -11 -11 -11 -10 -10 -10 -10 -10 -10 -10 -11 -11 -12 -12 -12 -12 -12 -12 -12 -12 -12 -12 -12 -13 -12 -12 -13 -13 -13 -13 -13 -13 -13 -13 -13 -13 -14 -14 -14 -13
-12 -12 -12 -11 -11 -11 -11 -11 -11 -11 -11 -11 -11 -11 -11 -11 -12 -12 -12 -13 -12 -12 -12 -13 -12 -13 -13 -13 -13 -13 -13 -13 -13 -13 -13 -13 -13 -13 -13 -14 -14 -14 -13
-12 -12 -12 -12 -12 -12 -11 -11 -11 -11 -11 -11 -11 -11 -11 -12 -12 -12 -12 -12 -12 -12 -12 -12 -13 -13 -13 -12 -13 -12 -13 -13 -13 -13 -13 -13 -13 -13 -13 -13 -14 -14 -13
-12 -12 -12 -12 -12 -12 -12 -11 -12 -12 -12 -12 -12 -12 -12 -12 -12 -12 -13 -13 -13 -13 -13 -13 -12 -12 -12 -13 -13 -13 -13 -13 -13 -14 -13 -13 -13 -13 -13 -14 -14 -13 -13
-13 -12 -12 -12 -12 -13 -12 -12 -12 -12 -12 -12 -12 -12 -12 -12 -13 -13 -12 -13 -13 -13 -12 -12 -12 -12 -13 -13 -13 -12 -12 -13 -14 -14 -14 -13 -13 -13 -13 -13 -14 -14 -13
-13 -13 -13 -13 -13 -13 -13 -12 -12 -12 -12 -12 -12 -12 -12 -13 -13 -13 -12 -13 -13 -13 -12 -12 -12 -12 -13 -13 -13 -13 -12 -13 -14 -14 -14 -14 -13 -14 -13 -14 -14 -14 -14
-13 -13 -13 -13 -13 -13 -13 -13 -12 -13 -12 -12 -12 -12 -13 -13 -13 -13 -13 -13 -13 -13 -12 -12 -12 -13 -12 -13 -13 -12 -13 -14 -14 -14 -14 -14 -14 -14 -14 -14 -14 -14 -13
-15 -14 -14 -13 -14 -13 -13 -13 -13 -13 -13 -12 -12 -12 -13 -13 -13 -13 -13 -13 -13 -13 -13 -13 -13 -13 -13 -13 -13 -13 -13 -14 -14 -14 -14 -14 -14 -14 -14 -14 -14 -14 -13
-14 -14 -14 -13 -13 -13 -12 -14 -13 -13 -13 -13 -12 -12 -13 -13 -13 -14 -14 -13 -13 -14 -13 -13 -13 -13 -13 -13 -13 -13 -13 -14 -14 -14 -14 -14 -14 -14 -14 -14 -14 -14 -14
-14 -14 -14 -14 -14 -13 -14 -14 -13 -13 -13 -13 -13 -13 -13 -13 -13 -14 -14 -14 -13 -14 -13 -13 -13 -13 -13 -13 -13 -13 -14 -14 -14 -14 -14 -14 -14 -14 -13 -13 -14 -14 -14
-14 -14 -14 -14 -14 -13 -13 -13 -14 -13 -14 -13 -13 -14 -13 -13 -13 -14 -14 -13 -14 -14 -13 -13 -13 -13 -13 -13 -13 -13 -14 -14 -14 -14 -14 -14 -15 -14 -14 -14 -14 -14 -14
-13 -14 -14 -13 -13 -13 -13 -13 -13 -13 -13 -13 -13 -14 -13 -13 -13 -14 -14 -13 -13 -14 -13 -13 -14 -13 -14 -13 -13 -13 -14 -14 -14 -14 -14 -14 -14 -14 -14 -14 -14 -14 -14
-14 -14 -13 -13 -14 -14 -14 -13 -13 -13 -13 -13 -13 -14 -14 -14 -14 -14 -14 -13 -13 -13 -13 -14 -14 -13 -13 -13 -13 -13 -14 -14 -14 -14 -14 -14 -14 -14 -14 -14 -14 -14 -14
-14 -14 -13 -13 -13 -13 -13 -13 -13 -13 -13 -13 -13 -14 -14 -14 -14 -14 -14 -14 -13 -13 -13 -14 -13 -14 -14 -13 -13 -13 -13 -14 -14 -14 -14 -14 -14 -14 -13 -14 -14 -14 -14
-14 -14 -13 -13 -13 -13 -13 -13 -14 -14 -14 -13 -13 -14 -14 -14 -14 -14 -14 -14 -14 -14 -13 -13 -13 -14 -13 -13 -13 -13 -13 -13 -14 -14 -13 -14 -13 -13 -14 -13 -14 -14 -14
-14 -14 -13 -13 -13 -13 -13 -13 -13 -13 -14 -14 -14 -14 -15 -14 -14 -15 -15 -14 -14 -14 -14 -14 -14 -14 -13 -13 -13 -13 -13 -13 -13 -14 -13 -13 -13 -13 -14 -14 -14 -14 -14
-14 -13 -13 -13 -13 -13 -13 -13 -14 -13 -13 -14 -14 -14 -15 -15 -14 -15 -15 -15 -15 -15 -14 -14 -14 -14 -13 -13 -14 -14 -14 -14 -14 -13 -13 -13 -14 -14 -14 -15 -14 -15 -14
-14 -13 -13 -14 -14 -14 -14 -14 -14 -14 -13 -14 -14 -14 -15 -15 -15 -15 -15 -15 -15 -15 -14 -14 -14 -14 -14 -14 -14 -14 -14 -14 -14 -14 -14 -14 -14 -14 -14 -14 -14 -14 -15
-14 -14 -14 -14 -14 -14 -14 -13 -13 -13 -13 -13 -14 -14 -14 -15 -15 -15 -15 -15 -15 -15 -15 -14 -14 -14 -14 -14 -14 -14 -14 -14 -14 -14 -14 -14 -14 -14 -15 -15 -15 -15 -15
-14 -14 -14 -14 -14 -14 -14 -14 -13 -13 -13 -14 -14 -14 -14 -15 -15 -15 -15 -15 -15 -15 -15 -14 -14 -14 -14 -14 -14 -14 -14 -14 -14 -15 -15 -15 -15 -15 -15 -15 -15 -15 -15
-15 -15 -14 -14 -14 -14 -14 -14 -14 -14 -14 -14 -14 -14 -14 -14 -16 -15 -15 -15 -15 -15 -15 -15 -15 -14 -15 -15 -14 -14 -14 -15 -14 -15 -15 -15 -15 -15 -15 -15 -15 -15 -15
-15 -15 -14 -14 -14 -13 -14 -14 -14 -14 -14 -15 -15 -15 -14 -14 -15 -15 -16 -16 -16 -15 -15 -15 -15 -15 -15 -15 -15 -15 -15 -15 -15 -15 -15 -15 -15 -15 -15 -15 -15 -16 -16
-15 -15 -14 -14 -14 -14 -14 -15 -15 -14 -15 -14 -14 -14 -15 -15 -15 -15 -15 -16 -16 -16 -15 -15 -15 -15 -15 -15 -15 -15 -15 -15 -15 -15 -15 -15 -15 -15 -15 -15 -15 -15 -15
-15 -15 -15 -15 -15 -14 -15 -15 -14 -15 -15 -14 -15 -15 -15 -15 -15 -15 -16 -16 -16 -16 -16 -16 -16 -15 -15 -15 -15 -16 -16 -15 -15 -15 -15 -15 -15 -15 -15 -15 -16 -16 -16
-17 -16 -16 -16 -16 -16 -16 -16 -16 -16 -15 -15 -15 -15 -15 -15 -15 -16 -16 -16 -16 -16 -16 -16 -16 -16 -16 -16 -15 -15 -15 -16 -16 -16 -16 -16 -16 -16 -16 -16 -16 -16 -16

GFSMA_500_temp_129.txt.gz
Temp
-11 -11 -11 -11 -10 -10 -11 -11 -11 -11 -11 -10 -10 -10 -10 -10 -10 -10 -11 -11 -12 -12 -12 -12 -12 -12 -12 -12 -12 -12 -12 -12 -12 -12 -12 -12 -13 -12 -13 -12 -12 -13 -13
-11 -11 -11 -11 -11 -11 -11 -11 -11 -11 -11 -11 -11 -11 -10 -10 -11 -11 -10 -12 -12 -12 -12 -12 -12 -12 -12 -12 -12 -12 -12 -12 -12 -12 -12 -13 -13 -13 -13 -13 -12 -13 -13
-11 -11 -11 -11 -11 -11 -11 -11 -11 -11 -11 -11 -11 -11 -11 -11 -11 -11 -11 -11 -12 -12 -12 -12 -12 -12 -12 -12 -12 -12 -12 -12 -12 -13 -12 -13 -13 -13 -13 -13 -13 -13 -13
-11 -11 -11 -11 -11 -11 -11 -12 -11 -11 -12 -12 -12 -11 -11 -11 -11 -11 -11 -11 -11 -12 -12 -12 -12 -12 -12 -13 -12 -12 -12 -12 -12 -13 -13 -13 -13 -13 -13 -13 -13 -13 -13
-12 -12 -11 -11 -11 -11 -12 -12 -12 -12 -12 -12 -12 -12 -12 -12 -11 -12 -12 -11 -11 -11 -12 -12 -12 -12 -12 -13 -13 -13 -12 -12 -13 -13 -13 -13 -13 -13 -13 -13 -13 -13 -13
-12 -12 -12 -12 -12 -12 -12 -12 -12 -12 -12 -12 -12 -12 -12 -12 -12 -12 -12 -11 -12 -12 -12 -12 -12 -12 -12 -12 -12 -13 -13 -13 -13 -12 -13 -13 -13 -13 -13 -14 -13 -13 -13
-12 -12 -12 -12 -12 -12 -12 -12 -12 -12 -13 -12 -12 -12 -12 -12 -12 -12 -12 -12 -12 -12 -12 -12 -12 -12 -13 -13 -12 -12 -13 -13 -13 -13 -13 -13 -14 -14 -14 -14 -14 -14 -14
-12 -12 -12 -12 -12 -12 -12 -12 -12 -12 -13 -13 -12 -12 -12 -12 -13 -12 -13 -13 -12 -12 -12 -12 -12 -13 -13 -13 -13 -13 -12 -13 -13 -13 -13 -12 -14 -16 -14 -14 -14 -14 -14
-13 -13 -13 -12 -13 -13 -13 -12 -13 -13 -13 -13 -12 -12 -12 -13 -12 -13 -13 -13 -13 -13 -13 -12 -13 -13 -13 -13 -13 -13 -13 -13 -13 -13 -13 -13 -13 -14 -15 -14 -14 -14 -14
-13 -13 -13 -13 -13 -13 -13 -13 -13 -13 -13 -14 -13 -12 -13 -13 -13 -13 -13 -13 -13 -13 -13 -13 -13 -13 -13 -13 -13 -13 -13 -12 -13 -13 -13 -13 -12 -13 -15 -14 -15 -14 -14
-14 -14 -14 -13 -13 -13 -13 -13 -13 -13 -13 -13 -14 -13 -13 -13 -13 -13 -13 -12 -13 -13 -13 -13 -13 -13 -13 -13 -13 -13 -13 -12 -13 -13 -14 -13 -12 -13 -14 -15 -15 -14 -14
-14 -14 -14 -14 -14 -13 -14 -14 -13 -13 -13 -12 -13 -13 -13 -13 -13 -14 -13 -14 -12 -12 -13 -14 -13 -13 -13 -13 -13 -13 -13 -13 -12 -13 -13 -13 -13 -13 -14 -15 -15 -15 -14
-15 -15 -15 -14 -14 -14 -14 -14 -14 -13 -13 -13 -13 -14 -14 -13 -13 -13 -14 -13 -13 -14 -12 -13 -13 -13 -13 -13 -13 -13 -13 -13 -13 -14 -13 -13 -13 -13 -14 -15 -15 -15 -15
-15 -15 -15 -14 -14 -14 -14 -14 -14 -13 -13 -13 -14 -14 -14 -13 -13 -13 -13 -14 -13 -13 -13 -14 -14 -14 -13 -13 -13 -13 -13 -13 -13 -14 -13 -13 -13 -14 -15 -15 -15 -15 -15
-15 -15 -15 -14 -15 -15 -15 -14 -14 -13 -13 -13 -14 -13 -14 -13 -13 -13 -13 -13 -13 -13 -13 -14 -14 -14 -13 -13 -13 -13 -13 -13 -13 -14 -13 -13 -13 -14 -14 -15 -15 -14 -14
-15 -15 -15 -15 -15 -15 -15 -14 -14 -14 -13 -13 -14 -13 -13 -14 -13 -13 -14 -13 -13 -13 -13 -14 -14 -14 -14 -13 -13 -14 -13 -14 -14 -14 -14 -13 -13 -13 -14 -15 -15 -14 -15
-15 -15 -16 -16 -15 -16 -15 -14 -14 -14 -13 -14 -14 -14 -13 -14 -14 -13 -14 -13 -13 -14 -13 -14 -14 -14 -14 -14 -14 -13 -13 -13 -14 -14 -14 -14 -13 -13 -14 -14 -15 -14 -14
-16 -16 -16 -15 -15 -15 -15 -15 -14 -13 -13 -13 -14 -14 -14 -14 -14 -14 -14 -14 -14 -14 -14 -14 -14 -14 -14 -14 -14 -14 -13 -13 -13 -13 -14 -13 -13 -13 -13 -13 -14 -14 -14
-16 -16 -16 -16 -15 -14 -14 -14 -15 -14 -14 -14 -14 -14 -14 -14 -14 -14 -14 -14 -14 -14 -14 -13 -14 -14 -14 -14 -14 -14 -14 -14 -14 -13 -14 -13 -13 -13 -13 -13 -13 -14 -14
-15 -15 -16 -16 -15 -15 -14 -15 -15 -14 -14 -14 -14 -14 -14 -14 -14 -14 -14 -14 -14 -14 -14 -13 -14 -14 -14 -14 -14 -14 -14 -14 -14 -14 -14 -14 -14 -14 -14 -14 -14 -13 -14
-16 -16 -15 -15 -15 -15 -15 -15 -14 -15 -15 -14 -14 -14 -14 -14 -14 -14 -14 -13 -14 -14 -14 -14 -14 -13 -14 -14 -14 -14 -14 -14 -14 -14 -14 -14 -14 -14 -14 -14 -14 -14 -14
-16 -16 -16 -16 -16 -16 -16 -15 -15 -16 -15 -14 -14 -14 -14 -14 -13 -13 -13 -13 -14 -14 -14 -14 -14 -13 -14 -15 -15 -14 -14 -14 -14 -14 -14 -14 -14 -14 -14 -14 -14 -14 -14
-17 -16 -16 -16 -16 -16 -16 -16 -16 -16 -15 -15 -15 -15 -15 -14 -14 -14 -14 -14 -14 -14 -14 -14 -13 -14 -14 -15 -15 -14 -14 -14 -14 -14 -15 -15 -14 -14 -14 -14 -14 -14 -14
-18 -17 -17 -17 -16 -16 -16 -16 -16 -16 -16 -16 -15 -15 -15 -15 -15 -14 -14 -14 -14 -15 -14 -14 -14 -14 -14 -14 -15 -15 -15 -15 -14 -14 -15 -14 -15 -14 -15 -14 -14 -15 -15
-18 -18 -18 -18 -18 -18 -17 -16 -16 -16 -16 -16 -16 -16 -16 -14 -14 -14 -15 -15 -15 -15 -14 -14 -14 -14 -14 -14 -15 -16 -15 -15 -15 -15 -15 -15 -15 -15 -15 -15 -15 -15 -15
-19 -19 -19 -19 -19 -18 -18 -18 -17 -17 -17 -17 -16 -16 -16 -15 -15 -15 -15 -14 -15 -15 -15 -15 -15 -15 -15 -14 -15 -16 -16 -16 -15 -15 -15 -15 -15 -15 -15 -15 -15 -15 -16

GFSMA_500_temp_132.txt.gz
Temp
-11 -11 -11 -11 -11 -10 -10 -10 -10 -10 -10 -11 -11 -10 -10 -10 -10 -10 -11 -11 -11 -11 -11 -11 -12 -12 -12 -12 -12 -12 -12 -12 -12 -12 -12 -13 -12 -12 -12 -12 -13 -12 -12
-11 -11 -11 -11 -11 -11 -11 -10 -11 -11 -11 -11 -11 -11 -10 -10 -10 -10 -11 -11 -11 -12 -11 -11 -11 -12 -12 -12 -12 -12 -12 -12 -12 -12 -12 -12 -13 -13 -12 -12 -13 -13 -13
-11 -11 -11 -11 -11 -11 -11 -11 -11 -11 -11 -11 -11 -11 -11 -11 -11 -11 -11 -11 -12 -12 -12 -11 -11 -12 -12 -12 -12 -12 -12 -12 -12 -12 -12 -12 -13 -13 -12 -13 -13 -13 -13
-11 -11 -11 -11 -11 -11 -11 -11 -11 -11 -10 -11 -11 -11 -11 -11 -11 -11 -11 -11 -11 -12 -12 -12 -12 -12 -12 -12 -13 -13 -12 -13 -12 -12 -12 -13 -13 -13 -13 -13 -13 -13 -13
-12 -11 -12 -11 -11 -11 -12 -12 -11 -11 -11 -11 -11 -11 -11 -11 -12 -12 -12 -11 -12 -12 -12 -12 -12 -12 -12 -12 -13 -13 -13 -13 -13 -13 -13 -13 -14 -13 -13 -13 -13 -13 -13
-12 -12 -12 -12 -12 -11 -11 -12 -12 -12 -11 -11 -11 -11 -11 -12 -11 -12 -12 -12 -12 -12 -12 -12 -13 -13 -13 -12 -12 -13 -13 -12 -12 -12 -13 -13 -13 -14 -13 -13 -13 -13 -14
-13 -12 -13 -12 -12 -12 -12 -12 -12 -12 -12 -12 -12 -12 -11 -12 -12 -12 -12 -12 -12 -12 -13 -12 -12 -13 -13 -13 -13 -12 -13 -13 -13 -13 -13 -13 -13 -14 -14 -14 -14 -13 -14
-13 -13 -13 -13 -13 -12 -12 -12 -12 -12 -12 -12 -12 -12 -12 -12 -12 -12 -12 -12 -13 -13 -13 -13 -13 -13 -13 -13 -13 -13 -12 -13 -13 -13 -13 -13 -13 -13 -14 -14 -14 -14 -14
-12 -13 -13 -13 -13 -13 -13 -13 -13 -13 -13 -12 -12 -12 -12 -12 -12 -13 -13 -13 -13 -13 -13 -13 -13 -13 -13 -13 -13 -13 -13 -13 -13 -13 -14 -14 -14 -14 -14 -14 -16 -16 -15
-12 -13 -13 -13 -13 -13 -13 -13 -13 -13 -13 -13 -13 -13 -13 -12 -12 -12 -12 -13 -14 -13 -13 -13 -13 -13 -13 -13 -13 -13 -13 -13 -13 -13 -13 -13 -13 -13 -14 -13 -14 -15 -16
-14 -13 -14 -14 -14 -14 -13 -13 -13 -14 -13 -13 -13 -14 -14 -14 -13 -12 -12 -12 -13 -14 -13 -13 -13 -13 -13 -13 -13 -13 -13 -13 -13 -13 -13 -13 -13 -13 -14 -14 -13 -14 -15
-13 -14 -15 -15 -15 -14 -14 -13 -13 -14 -13 -14 -13 -13 -14 -13 -14 -14 -13 -13 -13 -12 -13 -13 -13 -14 -13 -13 -13 -13 -13 -13 -13 -13 -13 -13 -13 -13 -13 -14 -13 -13 -15
-14 -14 -15 -15 -15 -14 -15 -14 -14 -14 -14 -14 -13 -13 -13 -14 -13 -14 -14 -13 -13 -13 -12 -12 -13 -14 -14 -14 -13 -13 -13 -13 -13 -13 -13 -13 -13 -14 -13 -13 -13 -13 -16
-14 -12 -10 -15 -15 -15 -15 -14 -14 -14 -14 -14 -14 -14 -14 -14 -13 -14 -14 -13 -13 -13 -13 -13 -13 -13 -13 -14 -13 -13 -13 -13 -13 -13 -13 -13 -14 -14 -14 -13 -13 -13 -14
-13 -13 -13 -14 -15 -15 -15 -14 -14 -14 -15 -15 -15 -14 -14 -14 -13 -13 -13 -13 -13 -13 -13 -13 -13 -13 -13 -14 -13 -13 -13 -13 -13 -14 -14 -14 -14 -14 -14 -13 -14 -14 -15
-13 -13 -13 -14 -15 -14 -14 -14 -15 -15 -15 -15 -15 -14 -14 -14 -13 -13 -13 -13 -13 -13 -13 -14 -13 -13 -13 -13 -14 -14 -13 -13 -14 -14 -14 -14 -14 -14 -14 -14 -13 -14 -15
-14 -14 -14 -15 -15 -15 -15 -15 -15 -15 -15 -15 -15 -14 -14 -15 -14 -13 -13 -13 -13 -13 -13 -13 -13 -13 -13 -14 -14 -15 -14 -13 -14 -14 -14 -14 -14 -14 -14 -14 -14 -13 -14
-15 -15 -15 -14 -15 -16 -16 -16 -16 -16 -16 -15 -15 -14 -14 -15 -14 -14 -13 -13 -12 -14 -13 -13 -14 -14 -14 -13 -13 -14 -14 -13 -14 -14 -14 -14 -14 -14 -14 -14 -14 -14 -14
-16 -16 -15 -16 -16 -16 -15 -16 -16 -16 -16 -15 -15 -15 -14 -15 -14 -14 -13 -13 -13 -13 -13 -13 -14 -14 -14 -14 -14 -14 -14 -14 -14 -14 -14 -14 -14 -14 -14 -14 -14 -14 -14
-16 -16 -16 -16 -16 -17 -16 -16 -16 -15 -15 -16 -15 -15 -15 -15 -14 -14 -13 -14 -14 -13 -13 -13 -13 -13 -14 -14 -14 -14 -14 -14 -14 -14 -14 -13 -14 -14 -14 -14 -14 -14 -14
-16 -16 -16 -16 -17 -16 -16 -16 -15 -15 -16 -15 -14 -15 -14 -15 -14 -14 -14 -14 -13 -13 -13 -13 -13 -13 -13 -14 -14 -14 -13 -14 -14 -14 -14 -14 -14 -14 -14 -14 -14 -14 -14
-16 -17 -17 -17 -16 -16 -15 -16 -16 -15 -16 -15 -15 -15 -15 -15 -14 -14 -14 -14 -14 -13 -13 -13 -14 -13 -13 -13 -14 -14 -13 -13 -13 -14 -14 -14 -14 -14 -14 -14 -14 -14 -14
-17 -17 -17 -17 -17 -17 -17 -17 -16 -15 -16 -16 -16 -15 -15 -15 -15 -15 -14 -14 -14 -14 -13 -13 -13 -13 -13 -13 -14 -14 -14 -13 -14 -14 -14 -14 -14 -14 -14 -14 -14 -14 -14
-18 -18 -17 -17 -17 -17 -17 -17 -17 -17 -17 -17 -16 -16 -16 -16 -16 -15 -15 -15 -15 -14 -15 -14 -14 -14 -14 -14 -14 -14 -14 -14 -13 -13 -14 -14 -14 -14 -15 -14 -14 -14 -14
-18 -18 -18 -18 -18 -18 -18 -18 -18 -17 -17 -17 -16 -16 -16 -16 -16 -16 -15 -16 -15 -15 -15 -15 -15 -14 -15 -14 -14 -15 -14 -14 -14 -14 -14 -15 -15 -15 -15 -15 -15 -15 -15
-19 -19 -19 -19 -19 -19 -19 -19 -19 -19 -18 -18 -18 -18 -17 -17 -17 -17 -16 -16 -16 -16 -16 -15 -15 -15 -15 -14 -14 -15 -14 -14 -15 -14 -14 -16 -16 -15 -15 -15 -15 -15 -15

GFSMA_500_temp_135.txt.gz
Temp
-11 -11 -11 -11 -11 -11 -11 -11 -11 -11 -11 -10 -10 -10 -10 -10 -11 -11 -10 -10 -10 -11 -11 -11 -11 -11 -12 -11 -11 -12 -12 -12 -12 -12 -12 -12 -12 -12 -12 -12 -12 -12 -12
-11 -11 -11 -11 -11 -11 -11 -11 -11 -11 -11 -11 -11 -10 -10 -10 -11 -11 -11 -11 -11 -10 -11 -11 -11 -11 -12 -12 -11 -12 -12 -12 -12 -12 -12 -12 -12 -12 -12 -12 -13 -13 -13
-11 -11 -11 -11 -11 -11 -11 -11 -11 -11 -11 -11 -11 -11 -11 -11 -11 -11 -11 -11 -11 -11 -11 -11 -11 -11 -11 -12 -12 -11 -12 -12 -13 -12 -12 -12 -12 -12 -13 -13 -13 -13 -13
-11 -11 -11 -12 -11 -12 -12 -11 -11 -11 -11 -11 -11 -11 -11 -11 -11 -11 -11 -11 -12 -12 -12 -11 -12 -12 -12 -12 -12 -12 -11 -12 -12 -12 -12 -12 -12 -12 -13 -13 -13 -13 -13
-11 -11 -11 -12 -12 -11 -12 -12 -12 -12 -11 -11 -11 -11 -11 -11 -11 -11 -11 -11 -11 -11 -12 -12 -12 -12 -12 -12 -12 -12 -12 -12 -13 -12 -12 -12 -13 -13 -13 -14 -14 -13 -13
-12 -12 -11 -12 -12 -12 -12 -12 -12 -12 -12 -12 -12 -12 -12 -12 -12 -12 -12 -11 -11 -11 -12 -12 -12 -12 -12 -12 -12 -12 -12 -12 -12 -12 -13 -13 -13 -13 -14 -14 -14 -14 -14
-13 -13 -12 -12 -12 -13 -12 -12 -12 -12 -12 -12 -12 -12 -12 -12 -12 -12 -12 -12 -12 -12 -12 -12 -13 -13 -12 -12 -12 -12 -12 -12 -12 -13 -12 -13 -13 -13 -14 -13 -14 -15 -14
-13 -13 -11 -11 -13 -13 -13 -13 -13 -13 -13 -13 -12 -12 -12 -12 -12 -12 -12 -12 -12 -12 -12 -12 -12 -12 -12 -12 -13 -12 -12 -12 -12 -12 -13 -12 -13 -13 -13 -14 -14 -15 -15
-13 -12 -11 -12 -13 -13 -13 -13 -13 -13 -13 -13 -13 -13 -12 -13 -13 -13 -13 -13 -13 -13 -12 -12 -13 -13 -13 -13 -12 -12 -12 -12 -13 -13 -13 -13 -13 -13 -14 -14 -14 -14 -16
-13 -13 -13 -12 -13 -13 -14 -14 -14 -13 -13 -13 -13 -13 -13 -13 -13 -13 -13 -13 -13 -13 -13 -13 -12 -13 -13 -13 -13 -13 -12 -12 -12 -13 -13 -13 -13 -13 -14 -13 -14 -14 -14
-13 -13 -14 -13 -12 -14 -14 -14 -14 -14 -13 -14 -13 -13 -13 -13 -13 -13 -13 -14 -13 -14 -13 -14 -13 -13 -13 -13 -13 -13 -12 -12 -12 -13 -13 -13 -13 -13 -13 -13 -13 -14 -13
-13 -13 -12 -14 -13 -14 -14 -15 -15 -14 -14 -14 -14 -13 -14 -13 -14 -13 -13 -13 -14 -13 -14 -13 -13 -13 -13 -13 -13 -13 -12 -13 -13 -13 -13 -13 -13 -13 -13 -13 -13 -13 -14
-13 -14 -10 -13 -13 -13 -14 -15 -15 -14 -14 -14 -14 -14 -14 -13 -13 -14 -13 -13 -13 -13 -13 -13 -13 -13 -13 -14 -13 -13 -13 -13 -13 -13 -12 -13 -12 -13 -13 -13 -13 -14 -14
-14 -12 -10 -12 -12 -13 -13 -15 -15 -15 -15 -15 -14 -14 -14 -14 -14 -14 -13 -13 -13 -13 -13 -13 -13 -13 -13 -14 -14 -14 -13 -13 -13 -13 -13 -13 -13 -13 -13 -13 -14 -14 -14
-14 -14 -13 -11 -13 -13 -14 -14 -15 -15 -15 -15 -14 -14 -14 -14 -14 -14 -14 -13 -13 -13 -13 -13 -13 -13 -13 -13 -14 -14 -14 -13 -13 -13 -13 -13 -13 -14 -14 -14 -14 -13 -14
-14 -14 -13 -12 -13 -13 -13 -11 -13 -14 -14 -14 -14 -15 -15 -15 -13 -14 -14 -14 -13 -13 -13 -13 -13 -13 -13 -13 -14 -14 -14 -14 -13 -13 -14 -13 -13 -13 -14 -14 -14 -13 -14
-15 -14 -13 -13 -13 -14 -13 -13 -13 -14 -15 -15 -15 -14 -14 -14 -14 -14 -14 -14 -14 -13 -13 -13 -13 -13 -13 -13 -13 -14 -14 -14 -14 -14 -14 -13 -13 -13 -14 -14 -14 -14 -13
-16 -15 -15 -15 -14 -14 -13 -13 -14 -15 -15 -14 -14 -14 -14 -15 -15 -14 -14 -14 -14 -14 -13 -11 -13 -13 -13 -13 -14 -14 -14 -14 -14 -14 -14 -14 -13 -13 -14 -14 -13 -13 -14
-17 -16 -16 -15 -14 -14 -15 -15 -15 -15 -15 -15 -15 -14 -13 -15 -14 -14 -14 -14 -14 -14 -13 -13 -12 -14 -13 -13 -13 -14 -14 -14 -14 -14 -14 -13 -13 -13 -13 -13 -13 -14 -14
-17 -17 -16 -16 -15 -15 -15 -16 -16 -16 -17 -16 -15 -14 -15 -15 -15 -14 -15 -15 -15 -14 -14 -13 -14 -13 -13 -14 -13 -13 -14 -14 -14 -13 -14 -14 -14 -14 -13 -14 -14 -14 -14
-18 -17 -16 -17 -17 -16 -17 -17 -17 -17 -16 -16 -15 -15 -15 -15 -15 -14 -15 -14 -14 -14 -14 -14 -14 -14 -14 -13 -13 -14 -14 -14 -14 -13 -13 -14 -14 -14 -13 -13 -14 -13 -13
-18 -17 -17 -16 -17 -17 -17 -16 -17 -16 -16 -16 -16 -16 -15 -15 -15 -15 -15 -15 -15 -15 -14 -13 -14 -14 -14 -14 -14 -14 -14 -14 -13 -14 -14 -14 -13 -14 -14 -14 -13 -14 -14
-18 -18 -18 -18 -17 -17 -17 -16 -16 -17 -16 -17 -17 -17 -17 -17 -16 -15 -16 -16 -15 -15 -14 -15 -15 -14 -14 -14 -14 -14 -14 -14 -13 -13 -14 -13 -14 -14 -14 -14 -14 -14 -14
-18 -18 -18 -18 -19 -18 -18 -18 -18 -17 -17 -17 -17 -17 -17 -17 -16 -16 -16 -16 -16 -16 -15 -15 -15 -15 -15 -14 -14 -14 -14 -14 -13 -13 -13 -13 -14 -14 -14 -14 -14 -14 -14
-20 -20 -20 -19 -19 -19 -18 -18 -18 -18 -18 -18 -18 -18 -18 -18 -17 -17 -17 -17 -16 -16 -16 -16 -16 -16 -15 -15 -15 -15 -15 -15 -14 -13 -13 -14 -14 -14 -14 -14 -14 -14 -14
-20 -20 -20 -19 -19 -19 -19 -19 -19 -19 -18 -18 -18 -18 -18 -18 -18 -18 -18 -17 -18 -17 -17 -17 -16 -16 -16 -15 -15 -15 -15 -15 -15 -15 -14 -14 -14 -14 -14 -14 -14 -14 -15

GFSMA_500_temp_138.txt.gz
Temp
-12 -11 -11 -11 -11 -11 -11 -11 -11 -11 -11 -11 -11 -11 -11 -11 -11 -11 -11 -11 -11 -11 -11 -11 -11 -11 -11 -11 -11 -11 -12 -12 -13 -12 -12 -12 -12 -12 -12 -12 -12 -12 -12
-12 -12 -11 -11 -11 -11 -11 -11 -11 -11 -11 -11 -11 -11 -11 -11 -11 -11 -11 -11 -11 -11 -11 -11 -11 -11 -11 -11 -11 -11 -12 -12 -12 -13 -13 -13 -13 -12 -12 -12 -12 -12 -12
-13 -12 -12 -12 -12 -12 -11 -11 -11 -11 -12 -11 -11 -11 -11 -11 -11 -11 -11 -11 -11 -11 -11 -11 -12 -11 -11 -11 -11 -11 -11 -11 -12 -12 -12 -12 -12 -12 -12 -13 -13 -12 -12
-13 -12 -12 -12 -12 -12 -12 -12 -12 -11 -12 -12 -12 -11 -11 -11 -11 -11 -12 -11 -11 -11 -11 -11 -11 -12 -12 -12 -11 -11 -11 -11 -12 -12 -12 -12 -12 -12 -12 -13 -13 -13 -13
-12 -12 -12 -12 -12 -12 -12 -12 -12 -11 -12 -12 -12 -12 -11 -11 -12 -12 -12 -12 -12 -12 -12 -12 -11 -12 -12 -12 -12 -12 -12 -11 -12 -11 -12 -12 -12 -12 -12 -12 -12 -13 -13
-12 -12 -12 -12 -13 -12 -12 -12 -12 -12 -12 -12 -12 -12 -12 -12 -12 -12 -12 -12 -12 -12 -12 -12 -12 -12 -12 -12 -12 -12 -12 -12 -12 -12 -12 -12 -12 -12 -12 -12 -13 -13 -14
-12 -12 -12 -13 -14 -12 -13 -13 -12 -11 -12 -12 -12 -12 -12 -12 -12 -12 -12 -12 -12 -13 -13 -12 -13 -12 -12 -12 -12 -12 -12 -12 -12 -12 -12 -12 -12 -12 -13 -12 -12 -13 -13
-12 -11 -11 -12 -13 -12 -13 -13 -13 -12 -12 -12 -12 -12 -12 -12 -13 -13 -12 -13 -13 -13 -13 -13 -13 -13 -13 -12 -13 -13 -12 -12 -12 -12 -12 -12 -12 -12 -13 -13 -13 -13 -14
-13 -13 -12 -11 -12 -11 -12 -13 -13 -13 -13 -13 -13 -12 -12 -13 -13 -13 -13 -13 -13 -13 -13 -13 -13 -13 -13 -13 -13 -13 -13 -12 -12 -12 -12 -12 -12 -12 -12 -13 -13 -14 -14
-12 -14 -14 -13 -12 -12 -12 -12 -13 -13 -13 -13 -13 -13 -12 -12 -13 -13 -14 -13 -14 -13 -13 -13 -14 -14 -14 -14 -13 -13 -13 -13 -13 -13 -12 -13 -13 -12 -13 -13 -13 -13 -14
-12 -13 -13 -13 -13 -13 -13 -14 -13 -13 -13 -13 -13 -13 -13 -12 -13 -13 -14 -14 -14 -14 -13 -14 -14 -14 -14 -14 -14 -13 -13 -13 -13 -13 -13 -13 -13 -13 -13 -13 -13 -13 -13
-13 -12 -13 -13 -13 -11 -12 -13 -13 -14 -13 -14 -14 -14 -13 -13 -13 -13 -13 -14 -14 -14 -14 -14 -14 -14 -14 -14 -14 -14 -13 -13 -13 -13 -13 -13 -12 -13 -13 -12 -13 -13 -13
-13 -12 -13 -14 -13 -12 -11 -12 -14 -14 -14 -15 -14 -14 -14 -14 -14 -13 -13 -14 -13 -14 -13 -13 -14 -13 -14 -14 -14 -13 -13 -13 -13 -13 -13 -13 -13 -13 -13 -12 -12 -13 -14
-13 -13 -13 -14 -13 -14 -13 -12 -14 -13 -14 -15 -15 -14 -14 -14 -14 -14 -14 -13 -13 -13 -13 -13 -14 -13 -13 -13 -13 -13 -13 -13 -14 -13 -13 -13 -13 -13 -12 -13 -12 -13 -13
-14 -14 -13 -14 -14 -14 -13 -13 -12 -13 -14 -14 -15 -14 -15 -14 -14 -14 -14 -13 -13 -13 -13 -13 -13 -13 -13 -13 -13 -13 -13 -13 -13 -13 -13 -13 -14 -13 -13 -13 -13 -13 -13
-15 -14 -14 -14 -13 -14 -15 -14 -13 -13 -13 -13 -14 -14 -14 -15 -14 -14 -14 -13 -14 -13 -13 -13 -13 -13 -13 -13 -14 -13 -13 -14 -14 -14 -14 -14 -15 -14 -13 -13 -13 -13 -13
-17 -16 -15 -14 -14 -14 -14 -14 -14 -13 -13 -14 -14 -14 -12 -14 -14 -15 -14 -13 -14 -13 -13 -13 -14 -13 -14 -14 -14 -14 -13 -14 -14 -14 -14 -14 -14 -14 -14 -13 -13 -13 -13
-17 -17 -15 -15 -15 -14 -13 -14 -14 -13 -13 -14 -13 -13 -13 -14 -14 -14 -15 -14 -14 -14 -13 -13 -13 -15 -13 -14 -13 -13 -13 -13 -14 -14 -14 -14 -14 -14 -13 -13 -13 -13 -13
-18 -17 -16 -16 -15 -15 -15 -14 -15 -15 -14 -13 -14 -14 -14 -14 -15 -15 -15 -14 -14 -14 -14 -13 -14 -14 -13 -14 -14 -13 -14 -13 -14 -14 -14 -14 -14 -14 -14 -13 -13 -13 -13
-17 -16 -17 -17 -17 -16 -16 -15 -15 -14 -14 -14 -14 -14 -15 -15 -15 -15 -15 -14 -14 -13 -13 -13 -12 -13 -14 -14 -14 -13 -13 -13 -13 -14 -14 -14 -14 -14 -14 -14 -13 -14 -13
-18 -18 -18 -18 -18 -17 -16 -17 -16 -15 -15 -15 -15 -16 -16 -16 -16 -15 -14 -14 -14 -14 -14 -14 -13 -13 -13 -14 -14 -14 -13 -13 -14 -14 -14 -14 -14 -14 -14 -14 -14 -13 -14
-18 -18 -17 -16 -16 -16 -16 -16 -17 -17 -16 -17 -16 -16 -16 -16 -16 -15 -15 -14 -14 -15 -14 -14 -14 -14 -14 -14 -14 -13 -13 -13 -13 -13 -14 -14 -14 -14 -14 -14 -14 -14 -14
-18 -18 -17 -17 -17 -17 -17 -17 -16 -17 -17 -17 -17 -16 -16 -16 -15 -15 -15 -15 -15 -15 -15 -15 -15 -15 -15 -15 -15 -14 -15 -14 -14 -14 -14 -14 -14 -14 -14 -14 -14 -14 -14
-19 -18 -18 -18 -18 -18 -18 -18 -18 -18 -18 -17 -17 -18 -18 -17 -17 -17 -16 -17 -16 -16 -16 -16 -15 -16 -16 -16 -15 -14 -15 -14 -14 -14 -14 -14 -14 -14 -14 -14 -14 -14 -14
-20 -20 -20 -20 -20 -20 -20 -19 -19 -19 -19 -19 -19 -19 -19 -19 -19 -19 -18 -17 -16 -16 -16 -16 -15 -16 -16 -16 -15 -15 -15 -15 -15 -15 -15 -15 -14 -14 -14 -14 -14 -14 -15
-20 -19 -19 -19 -19 -19 -19 -19 -19 -19 -19 -19 -19 -19 -19 -19 -19 -19 -19 -18 -18 -18 -18 -18 -17 -16 -16 -16 -16 -16 -16 -15 -15 -15 -16 -15 -15 -14 -14 -14 -14 -14 -15

GFSMA_500_temp_141.txt.gz
Temp
-12 -12 -12 -12 -12 -12 -12 -11 -11 -11 -11 -11 -11 -11 -11 -11 -11 -11 -11 -11 -11 -11 -11 -11 -11 -11 -11 -11 -11 -11 -11 -12 -12 -12 -12 -12 -12 -13 -12 -13 -13 -13 -13
-13 -13 -12 -12 -13 -13 -12 -12 -11 -11 -11 -11 -11 -11 -11 -11 -11 -11 -11 -11 -11 -11 -11 -11 -11 -11 -11 -11 -11 -11 -11 -11 -12 -12 -12 -12 -12 -12 -13 -13 -13 -13 -13
-13 -12 -12 -12 -12 -13 -13 -12 -12 -11 -11 -11 -11 -11 -11 -11 -11 -11 -11 -11 -11 -11 -11 -12 -12 -11 -11 -12 -11 -11 -11 -11 -11 -12 -12 -12 -12 -12 -13 -12 -13 -13 -13
-13 -13 -12 -12 -12 -13 -13 -13 -13 -12 -12 -11 -12 -11 -11 -11 -11 -11 -12 -12 -11 -11 -12 -12 -12 -12 -12 -12 -12 -11 -11 -11 -11 -12 -12 -12 -12 -12 -12 -12 -13 -13 -13
-13 -13 -12 -13 -12 -13 -13 -13 -13 -13 -12 -12 -12 -12 -11 -11 -11 -11 -12 -12 -12 -12 -12 -12 -12 -12 -12 -12 -12 -12 -12 -12 -11 -11 -11 -12 -12 -12 -12 -12 -12 -13 -13
-13 -13 -13 -13 -13 -12 -13 -13 -13 -13 -13 -12 -12 -12 -12 -12 -12 -12 -12 -12 -12 -12 -12 -12 -12 -12 -12 -12 -12 -12 -12 -12 -12 -11 -11 -11 -11 -12 -12 -12 -12 -12 -13
-13 -13 -13 -13 -13 -12 -12 -13 -13 -14 -13 -13 -12 -12 -12 -12 -12 -13 -12 -12 -13 -12 -12 -12 -12 -12 -12 -12 -12 -12 -12 -12 -12 -12 -12 -12 -12 -11 -12 -12 -12 -12 -12
-13 -13 -13 -13 -12 -12 -12 -13 -13 -14 -14 -13 -12 -12 -12 -12 -12 -13 -13 -13 -13 -13 -13 -13 -13 -13 -12 -12 -13 -13 -13 -13 -13 -12 -13 -12 -12 -12 -12 -12 -12 -13 -13
-12 -13 -13 -13 -12 -11 -11 -12 -13 -13 -14 -14 -13 -13 -12 -12 -13 -13 -13 -13 -14 -14 -13 -13 -13 -13 -13 -13 -13 -13 -13 -13 -13 -13 -13 -13 -12 -12 -12 -12 -12 -13 -13
-13 -13 -13 -13 -13 -13 -13 -13 -13 -13 -13 -14 -14 -13 -13 -13 -13 -13 -13 -14 -14 -14 -13 -14 -14 -13 -13 -13 -13 -14 -13 -13 -13 -13 -13 -13 -13 -13 -12 -13 -12 -13 -13
-16 -14 -13 -13 -13 -14 -12 -12 -12 -12 -12 -13 -14 -14 -13 -14 -14 -14 -14 -14 -14 -14 -14 -13 -13 -13 -13 -13 -13 -14 -14 -14 -13 -13 -13 -13 -13 -12 -12 -13 -13 -13 -13
-17 -16 -14 -14 -13 -13 -12 -12 -13 -12 -13 -12 -13 -14 -14 -14 -14 -14 -14 -14 -14 -14 -14 -14 -13 -14 -14 -13 -13 -14 -14 -14 -13 -13 -13 -13 -14 -13 -13 -13 -13 -13 -13
-17 -16 -15 -14 -13 -13 -14 -12 -12 -12 -12 -12 -13 -14 -14 -14 -14 -14 -14 -14 -14 -14 -14 -13 -13 -14 -14 -14 -13 -14 -14 -13 -13 -13 -13 -13 -13 -13 -13 -13 -12 -13 -13
-18 -18 -17 -15 -14 -14 -14 -14 -12 -14 -13 -12 -14 -14 -13 -14 -14 -14 -15 -14 -14 -14 -14 -14 -14 -14 -14 -14 -13 -13 -13 -13 -13 -13 -13 -13 -13 -14 -14 -13 -13 -13 -13
-19 -18 -17 -17 -15 -14 -15 -14 -14 -13 -12 -13 -11 -13 -13 -14 -14 -14 -14 -14 -14 -14 -14 -14 -14 -14 -14 -14 -14 -14 -13 -13 -13 -14 -14 -14 -13 -14 -14 -14 -13 -13 -13
-20 -19 -18 -18 -16 -14 -15 -15 -14 -13 -13 -13 -12 -13 -12 -13 -13 -14 -15 -15 -14 -14 -14 -14 -14 -13 -14 -14 -14 -14 -14 -13 -13 -14 -14 -14 -14 -14 -14 -14 -13 -13 -14
-20 -19 -18 -19 -18 -15 -16 -15 -14 -14 -13 -14 -14 -13 -12 -14 -13 -13 -14 -15 -13 -14 -14 -14 -14 -14 -14 -14 -13 -14 -14 -13 -13 -14 -14 -14 -14 -14 -14 -14 -14 -13 -14
-19 -19 -19 -18 -18 -16 -16 -15 -14 -15 -15 -15 -13 -14 -14 -14 -14 -14 -14 -14 -12 -14 -15 -14 -14 -14 -14 -15 -14 -13 -13 -13 -13 -14 -13 -14 -14 -14 -14 -14 -14 -13 -13
-18 -17 -18 -18 -18 -17 -16 -16 -16 -14 -15 -15 -13 -14 -15 -14 -14 -14 -15 -14 -14 -14 -15 -15 -14 -14 -14 -14 -14 -14 -13 -13 -13 -13 -13 -13 -14 -14 -14 -14 -13 -13 -13
-19 -18 -17 -18 -17 -17 -17 -16 -16 -15 -15 -14 -15 -15 -14 -14 -14 -14 -15 -14 -14 -15 -15 -15 -15 -14 -14 -14 -13 -13 -13 -13 -13 -14 -13 -13 -13 -13 -14 -14 -14 -14 -13
-17 -18 -18 -18 -17 -17 -17 -16 -17 -17 -16 -15 -15 -15 -15 -15 -15 -15 -15 -15 -16 -15 -15 -16 -15 -14 -14 -13 -13 -12 -12 -12 -13 -13 -14 -13 -14 -13 -14 -14 -14 -14 -14
-18 -19 -19 -19 -18 -17 -17 -17 -17 -17 -18 -17 -16 -15 -15 -16 -16 -16 -16 -16 -16 -17 -17 -16 -15 -15 -14 -15 -14 -13 -13 -12 -13 -14 -14 -14 -14 -14 -13 -14 -13 -13 -14
-19 -19 -19 -19 -18 -17 -17 -17 -17 -17 -17 -17 -17 -17 -17 -17 -17 -17 -16 -16 -16 -16 -16 -16 -15 -16 -15 -15 -15 -15 -15 -14 -14 -15 -15 -14 -15 -14 -14 -14 -14 -14 -13
-21 -20 -20 -20 -20 -20 -19 -19 -19 -19 -19 -19 -19 -18 -18 -18 -18 -17 -18 -18 -17 -17 -16 -17 -16 -16 -16 -16 -16 -16 -16 -16 -16 -16 -16 -15 -15 -15 -15 -14 -14 -14 -15
-20 -20 -20 -20 -20 -20 -20 -20 -19 -19 -19 -19 -19 -19 -19 -19 -19 -19 -19 -19 -18 -18 -18 -18 -17 -17 -17 -17 -17 -17 -16 -16 -16 -16 -16 -15 -15 -15 -15 -15 -14 -14 -15
-20 -20 -20 -20 -19 -19 -19 -19 -19 -19 -19 -19 -19 -19 -19 -19 -19 -19 -19 -19 -19 -19 -18 -18 -18 -17 -17 -17 -17 -17 -17 -17 -16 -17 -17 -16 -16 -15 -15 -15 -15 -14 -15